﻿ProjectID	SampleID	SampleType	TaxonomyID	UniqCodeType	UniqCode	SampleName	ScientificName	CommonName	CollectionYear	CollectionMonth	CollectionDay	SamplingTimeStartEnd	SamplingTimeAMPM	SamplingDuration	WeatherStartEnd	CollectionRegion	CollectionCountry	CollectionArea	CollectionLatitudeFrom	CollectionLatitudeTo	CollectionLongitudeFrom	CollectionLongitudeTo	Sex	TissueOrgan	TissueLipid	TissueMoist	Weight	WeightUnit	Length	LengthUnit	LengthType	GrowthStage	Age	Disease	TemperatureStartEnd	WaterTemperatureStartEnd	pH	DO	EC	EC_temp	Salinity	SS	WaterDepthM	TransparencyM	WaterColor	SedimentTemperatureStartEnd	SedimentDepthM	SedimentAppearance	SedimentColor	SedimentSurfaceColor	SedimentOdor	SedimentImpurities	SedimentMoistureOnSiteAnalysis	IgnitionLossOnSiteAnalysis	SoilDepthM	FlowRate	MeanPM10	MeanTotalSuspendedParticles	HumidityStartEnd	WindDirectionStartEnd	WindSpeedMSStartEnd	AmountOfCollectedAirStartEnd	Remarks	RegisterDate	UpdateDate
PRA000015	SAA000492	ST015				BR-1	Water	"Water from creeks or rivers"	2011	1	10					Asia	Vietnam	"Dong Mai"	20.98666667		106.0536111															12	<2.0		370	25																							"Dry season; BR (Battery recycling site)"	2016/11/24	2019/7/17
PRA000015	SAA000493	ST015				BR-2	Water	"Water from creeks or rivers"	2011	1	11					Asia	Vietnam	"Dong Mai"	20.98611111		106.0538889															13	<2.0		370	25																							"Dry season; BR (Battery recycling site)"	2016/11/24	2019/7/17
PRA000015	SAA000494	ST015				BR-3	Water	"Pond water"	2011	1	11					Asia	Vietnam	"Dong Mai"	20.98694444		106.0544444															12	7.1		62	25																							"Dry season; BR (Battery recycling site)"	2016/11/24	2019/7/17
PRA000015	SAA000495	ST015				BR-4	Water	"Water from creeks or rivers"	2011	1	11					Asia	Vietnam	"Dong Mai"	20.98666667		106.0536111															12	7.4		67	25																							"Dry season; BR (Battery recycling site)"	2016/11/24	2019/7/17
PRA000015	SAA000496	ST015				BR-5	Water	"Water from creeks or rivers"	2011	1	11					Asia	Vietnam	"Dong Mai"	20.99666667		106.0569444															12	7.7		40	25																							"Dry season; BR (Battery recycling site)"	2016/11/24	2019/7/17
PRA000015	SAA000497	ST015				BR-6	Water	"Water from creeks or rivers"	2011	1	11					Asia	Vietnam	"Dong Mai"	20.99611111		106.0569444															12	8.5		35	25																							"Dry season; BR (Battery recycling site)"	2016/11/24	2019/7/17
PRA000015	SAA000498	ST015				BR-7	Water	"Water from creeks or rivers"	2011	1	11					Asia	Vietnam	"Dong Mai"	20.99694444		106.0569444															11	7.8		39	25																							"Dry season; BR (Battery recycling site)"	2016/11/24	2019/7/17
PRA000015	SAA000499	ST015				ER-1	Water	"Water from creeks or rivers"	2011	1	13					Asia	Vietnam	"Bui Dau"	20.93333333		106.0947222															16	7.1		87	25																							"Dry season; ER (E-waste recycling site)"	2016/11/24	2019/7/17
PRA000015	SAA000500	ST015				ER-2	Water	"Water from creeks or rivers"	2011	1	13					Asia	Vietnam	"Bui Dau"	20.93305556		106.0952778															17	7		98	25																							"Dry season; ER (E-waste recycling site)"	2016/11/24	2019/7/17
PRA000015	SAA000501	ST015				ER-3	Water	"Pond water"	2011	1	13					Asia	Vietnam	"Bui Dau"	20.93277778		106.095															16	7.4		63	25																							"Dry season; ER (E-waste recycling site)"	2016/11/24	2019/7/17
PRA000015	SAA000502	ST015				ER-4	Water	"Pond water"	2011	1	13					Asia	Vietnam	"Bui Dau"	20.93333333		106.0955556															16	7.4		49	25																							"Dry season; ER (E-waste recycling site)"	2016/11/24	2019/7/17
PRA000015	SAA000503	ST015				ER-5	Water	"Pond water"	2011	1	13					Asia	Vietnam	"Bui Dau"	20.93416667		106.0966667															16	7.6		63	25																							"Dry season; ER (E-waste recycling site)"	2016/11/24	2019/7/17
PRA000015	SAA000504	ST015				ER-6	Water	"Water from creeks or rivers"	2011	1	13					Asia	Vietnam	"Bui Dau"	20.93472222		106.0972222															16	7.4		97	25																							"Dry season; ER (E-waste recycling site)"	2016/11/24	2019/7/17
PRA000015	SAA000505	ST015				ER-7	Water	"Pond water"	2011	1	13					Asia	Vietnam	"Bui Dau"	20.935		106.0975															16	8.2		73	25																							"Dry season; ER (E-waste recycling site)"	2016/11/24	2019/7/17
PRA000015	SAA000506	ST015				ER-8	Water	"Water from creeks or rivers"	2011	1	13					Asia	Vietnam	"Bui Dau"	20.93472222		106.1002778															16	7.2		150	25																							"Dry season; ER (E-waste recycling site)"	2016/11/24	2019/7/17
PRA000015	SAA000507	ST015				ER-9	Water	"Water from creeks or rivers"	2011	1	13					Asia	Vietnam	"Bui Dau"	20.935		106.1002778															16	7		270	25																							"Dry season; ER (E-waste recycling site)"	2016/11/24	2019/7/17
PRA000015	SAA000508	ST015				ER-10	Water	"Water from creeks or rivers"	2011	1	13					Asia	Vietnam	"Bui Dau"	20.93583333		106.1008333															16	7.3		100	25																							"Dry season; ER (E-waste recycling site)"	2016/11/24	2019/7/17
PRA000015	SAA000509	ST015				RU-1	Water	"Pond water"	2011	1	14					Asia	Vietnam	"Duong Quang"	20.93722222		106.1194444															16	7.6		96	25																							"Dry season; RU (Rural control site)"	2016/11/24	2019/7/17
PRA000015	SAA000510	ST015				RU-2	Water	"Pond water"	2011	1	14					Asia	Vietnam	"Duong Quang"	20.93722222		106.1197222															16	7.5		51	25																							"Dry season; RU (Rural control site)"	2016/11/24	2019/7/17
PRA000015	SAA000511	ST015				RU-3	Water	"Pond water"	2011	1	14					Asia	Vietnam	"Duong Quang"	20.93805556		106.1208333															15	6.6		130	25																							"Dry season; RU (Rural control site)"	2016/11/24	2019/7/17
PRA000015	SAA000512	ST015				RU-4	Water	"Pond water"	2011	1	14					Asia	Vietnam	"Duong Quang"	20.93611111		106.1194444															15	7.4		81	25																							"Dry season; RU (Rural control site)"	2016/11/24	2019/7/17
PRA000015	SAA000513	ST015				RU-5	Water	"Water from creeks or rivers"	2011	1	14					Asia	Vietnam	"Duong Quang"	20.93583333		106.1172222															16	7.3		84	25																							"Dry season; RU (Rural control site)"	2016/11/24	2019/7/17
PRA000015	SAA000514	ST015				RU-6	Water	"Water from creeks or rivers"	2011	1	14					Asia	Vietnam	"Duong Quang"	20.93972222		106.1236111															15	7.5		49	25																							"Dry season; RU (Rural control site)"	2016/11/24	2019/7/17
PRA000015	SAA000515	ST015				MW-1	Water	"Water from wastewater canals"	2011	1	15					Asia	Vietnam	"Yen So pump station"	20.95833333		105.8588889															17	8.3		57	25																							"Dry season; MW (Municipal wastewater discharge station)"	2016/11/24	2019/7/17
PRA000015	SAA000516	ST015				MW-2	Water	"Water from wastewater canals"	2011	1	15					Asia	Vietnam	"Yen So pump station"	20.95916667		105.8661111															17	7.6		30	25																							"Dry season; MW (Municipal wastewater discharge station)"	2016/11/24	2019/7/17
PRA000015	SAA000517	ST015				MW-3	Water	"Water from wastewater canals"	2011	1	15					Asia	Vietnam	"Yen So pump station"	20.95861111		105.8680556															17	7.4		33	25																							"Dry season; MW (Municipal wastewater discharge station)"	2016/11/24	2019/7/17
PRA000015	SAA000518	ST015				MW-4	Water	"Water from wastewater canals"	2011	1	15					Asia	Vietnam	"Yen So pump station"	20.95833333		105.8686111															18	7.3		64	25																							"Dry season; MW (Municipal wastewater discharge station)"	2016/11/24	2019/7/17
PRA000015	SAA000519	ST015				MW-5	Water	"Water from wastewater canals"	2011	1	15					Asia	Vietnam	"Yen So pump station"	20.95888889		105.8619444															18	9.2		20	25																							"Dry season; MW (Municipal wastewater discharge station)"	2016/11/24	2019/7/17
PRA000015	SAA000520	ST015				MW-6	Water	"Water from wastewater canals"	2011	1	15					Asia	Vietnam	"Yen So pump station"	20.9575		105.8586111															17	7.6		66	25																							"Dry season; MW (Municipal wastewater discharge station)"	2016/11/24	2019/7/17
PRA000015	SAA000521	ST015				MW-7	Water	"Water from wastewater canals"	2011	1	15					Asia	Vietnam	"Yen So pump station"	20.95861111		105.8661111															17	7.5		33	25																							"Dry season; MW (Municipal wastewater discharge station)"	2016/11/24	2019/7/17
PRA000015	SAA000522	ST015				MW-8	Water	"Water from wastewater canals"	2011	1	15					Asia	Vietnam	"Yen So pump station"	20.9575		105.8691667															17	7.5		66	25																							"Dry season; MW (Municipal wastewater discharge station)"	2016/11/24	2019/7/17
PRA000015	SAA000523	ST015				MD-1	Water	"Leachate and River water"	2011	1	15					Asia	Vietnam	"Lam Son"	21.01777778		105.7533333															18	7.4		38	25																							"Dry season; MD (Municipal dumping site)"	2016/11/24	2019/7/17
PRA000015	SAA000524	ST015				MD-2	Water	"Leachate and River water"	2011	1	15					Asia	Vietnam	"Lam Son"	21.01777778		105.7536111															18	7.5		20	25																							"Dry season; MD (Municipal dumping site)"	2016/11/24	2019/7/17
PRA000015	SAA000525	ST015				MD-3	Water	"Leachate and River water"	2011	1	15					Asia	Vietnam	"Lam Son"	21.01777778		105.7536111															18	7.5		57	25																							"Dry season; MD (Municipal dumping site)"	2016/11/24	2019/7/17
PRA000015	SAA000526	ST015				MD-4	Water	"Leachate and River water"	2011	1	15					Asia	Vietnam	"Lam Son"	21.01555556		105.7555556															18	7.5		22	25																							"Dry season; MD (Municipal dumping site)"	2016/11/24	2019/7/17
PRA000015	SAA000527	ST015				MD-5	Water	"Leachate and River water"	2011	1	15					Asia	Vietnam	"Lam Son"	21.01305556		105.7463889															17	10.5		34	25																							"Dry season; MD (Municipal dumping site)"	2016/11/24	2019/7/17
PRA000015	SAA000528	ST015				MD-6	Water	"Leachate and River water"	2011	1	15					Asia	Vietnam	"Lam Son"	21.01416667		105.7505556															18	6.5		32	25																							"Dry season; MD (Municipal dumping site)"	2016/11/24	2019/7/17
PRA000015	SAA000529	ST015				MD-7	Water	"Leachate and River water"	2011	1	15					Asia	Vietnam	"Lam Son"	21.015		105.7530556															18	7.4		120	25																							"Dry season; MD (Municipal dumping site)"	2016/11/24	2019/7/17
PRA000015	SAA000530	ST015				MD-8	Water	"Leachate and River water"	2011	1	15					Asia	Vietnam	"Lam Son"	21.015		105.7538889															18	6.6		16	25																							"Dry season; MD (Municipal dumping site)"	2016/11/24	2019/7/17
PRA000015	SAA000531	ST015				MD-9	Water	"Leachate and River water"	2011	1	15					Asia	Vietnam	"Lam Son"	21.01527778		105.7552778															18	6.8		16	25																							"Dry season; MD (Municipal dumping site)"	2016/11/24	2019/7/17
PRA000015	SAA000532	ST015				MD-10	Water	"Leachate and River water"	2011	1	15					Asia	Vietnam	"Lam Son"	21.01527778		105.7561111															18	7.4		24	25																							"Dry season; MD (Municipal dumping site)"	2016/11/24	2019/7/17
PRA000035	SAA002042	ST004	34892			"NP2004-1 "	"Neophocaena phocaenoides"	"Finless porpoises "	2004							Asia	China	"Hong Kong"	22.22874593		114.2763185		"Male "	Liver					148	cm	"Body length"	Adult																															"Found stranded in Hong Kong"	2017/6/30	2017/6/30
PRA000035	SAA002043	ST004	34892			"NP2004-2 "	"Neophocaena phocaenoides"	"Finless porpoises "	2004							Asia	China	"Hong Kong"	22.22874593		114.2763185		"Female "	Liver					149	cm	"Body length"	Adult																															"Found stranded in Hong Kong"	2017/6/30	2017/6/30
PRA000035	SAA002044	ST004	34892			"NP2004-3 "	"Neophocaena phocaenoides"	"Finless porpoises "	2004							Asia	China	"Hong Kong"	22.22874593		114.2763185		"Male "	Liver					160	cm	"Body length"	Adult																															"Found stranded in Hong Kong"	2017/6/30	2017/6/30
PRA000035	SAA002045	ST004	34892			"NP2004-4 "	"Neophocaena phocaenoides"	"Finless porpoises "	2004							Asia	China	"Hong Kong"	22.22874593		114.2763185		"Male "	Liver					170	cm	"Body length"	Adult																															"Found stranded in Hong Kong"	2017/6/30	2017/6/30
PRA000035	SAA002046	ST004	34892			"NP2005-1 "	"Neophocaena phocaenoides"	"Finless porpoises "	2005							Asia	China	"Hong Kong"	22.22874593		114.2763185		"Female "	Liver					171	cm	"Body length"	Adult																															"Found stranded in Hong Kong"	2017/6/30	2017/6/30
PRA000035	SAA002047	ST004	34892			"NP2005-2 "	"Neophocaena phocaenoides"	"Finless porpoises "	2005							Asia	China	"Hong Kong"	22.22874593		114.2763185		"Female "	Liver					134	cm	"Body length"	Adult																															"Found stranded in Hong Kong"	2017/6/30	2017/6/30
PRA000035	SAA002048	ST004	34892			"NP2005-3 "	"Neophocaena phocaenoides"	"Finless porpoises "	2005							Asia	China	"Hong Kong"	22.22874593		114.2763185		"Male "	Liver					157	cm	"Body length"	Adult																															"Found stranded in Hong Kong"	2017/6/30	2017/6/30
PRA000035	SAA002049	ST004	34892			"NP2005-4 "	"Neophocaena phocaenoides"	"Finless porpoises "	2005							Asia	China	"Hong Kong"	22.22874593		114.2763185		"Male "	Liver					163	cm	"Body length"	Adult																															"Found stranded in Hong Kong"	2017/6/30	2017/6/30
PRA000035	SAA002050	ST004	34892			"NP2006-1 "	"Neophocaena phocaenoides"	"Finless porpoises "	2006							Asia	China	"Hong Kong"	22.22874593		114.2763185		"Female "	Liver					175	cm	"Body length"	Adult																															"Found stranded in Hong Kong"	2017/6/30	2017/6/30
PRA000035	SAA002051	ST004	34892			"NP2006-2 "	"Neophocaena phocaenoides"	"Finless porpoises "	2006							Asia	China	"Hong Kong"	22.22874593		114.2763185		"Female "	Liver					170	cm	"Body length"	Adult																															"Found stranded in Hong Kong"	2017/6/30	2017/6/30
PRA000035	SAA002052	ST004	34892			"NP2007-1 "	"Neophocaena phocaenoides"	"Finless porpoises "	2007							Asia	China	"Hong Kong"	22.22874593		114.2763185		"Male "	Liver					160	cm	"Body length"	Adult																															"Found stranded in Hong Kong"	2017/6/30	2017/6/30
PRA000035	SAA002053	ST004	34892			"NP2007-2 "	"Neophocaena phocaenoides"	"Finless porpoises "	2007							Asia	China	"Hong Kong"	22.22874593		114.2763185		"Male "	Liver					177	cm	"Body length"	Adult																															"Found stranded in Hong Kong"	2017/6/30	2017/6/30
PRA000035	SAA002054	ST004	34892			"NP2007-3 "	"Neophocaena phocaenoides"	"Finless porpoises "	2007							Asia	China	"Hong Kong"	22.22874593		114.2763185		"Female "	Liver					160	cm	"Body length"	Adult																															"Found stranded in Hong Kong"	2017/6/30	2017/6/30
PRA000035	SAA002055	ST004	34892			"NP2007-4 "	"Neophocaena phocaenoides"	"Finless porpoises "	2007							Asia	China	"Hong Kong"	22.22874593		114.2763185		"Male "	Liver					154	cm	"Body length"	Adult																															"Found stranded in Hong Kong"	2017/6/30	2017/6/30
PRA000035	SAA002056	ST004	34892			"NP2007-5 "	"Neophocaena phocaenoides"	"Finless porpoises "	2007							Asia	China	"Hong Kong"	22.22874593		114.2763185		"Male "	Liver					160	cm	"Body length"	Adult																															"Found stranded in Hong Kong"	2017/6/30	2017/6/30
PRA000035	SAA002057	ST004	34892			"NP2007-6 "	"Neophocaena phocaenoides"	"Finless porpoises "	2007							Asia	China	"Hong Kong"	22.22874593		114.2763185		"Female "	Liver					122	cm	"Body length"	Adult																															"Found stranded in Hong Kong"	2017/6/30	2017/6/30
PRA000035	SAA002058	ST004	34892			"NP2008-1 "	"Neophocaena phocaenoides"	"Finless porpoises "	2008							Asia	China	"Hong Kong"	22.22874593		114.2763185		"Male "	Liver					161	cm	"Body length"	Adult																															"Found stranded in Hong Kong"	2017/6/30	2017/6/30
PRA000035	SAA002059	ST004	34892			"NP2008-2 "	"Neophocaena phocaenoides"	"Finless porpoises "	2008							Asia	China	"Hong Kong"	22.22874593		114.2763185		"Female "	Liver					163	cm	"Body length"	Adult																															"Found stranded in Hong Kong"	2017/6/30	2017/6/30
PRA000035	SAA002060	ST004	34892			"NP2010-1 "	"Neophocaena phocaenoides"	"Finless porpoises "	2010							Asia	China	"Hong Kong"	22.22874593		114.2763185		"Male "	Liver					162	cm	"Body length"	Adult																															"Found stranded in Hong Kong"	2017/6/30	2017/6/30
PRA000035	SAA002061	ST004	34892			"NP2011-1 "	"Neophocaena phocaenoides"	"Finless porpoises "	2011							Asia	China	"Hong Kong"	22.22874593		114.2763185		"Male "	Liver					172	cm	"Body length"	Adult																															"Found stranded in Hong Kong"	2017/6/30	2017/6/30
PRA000035	SAA002062	ST004	34892			"NP2011-2 "	"Neophocaena phocaenoides"	"Finless porpoises "	2011							Asia	China	"Hong Kong"	22.22874593		114.2763185		"Female "	Liver					165	cm	"Body length"	Adult																															"Found stranded in Hong Kong"	2017/6/30	2017/6/30
PRA000035	SAA002063	ST004	34892			"NP2011-3 "	"Neophocaena phocaenoides"	"Finless porpoises "	2011							Asia	China	"Hong Kong"	22.22874593		114.2763185		"Male "	Liver					138	cm	"Body length"	Adult																															"Found stranded in Hong Kong"	2017/6/30	2017/6/30
PRA000035	SAA002064	ST004	34892			"NP2011-4 "	"Neophocaena phocaenoides"	"Finless porpoises "	2011							Asia	China	"Hong Kong"	22.22874593		114.2763185		"Male "	Liver					133	cm	"Body length"	Adult																															"Found stranded in Hong Kong"	2017/6/30	2017/6/30
PRA000035	SAA002065	ST004	34892			"NP2011-5 "	"Neophocaena phocaenoides"	"Finless porpoises "	2011							Asia	China	"Hong Kong"	22.22874593		114.2763185		"Female "	Liver					175	cm	"Body length"	Adult																															"Found stranded in Hong Kong"	2017/6/30	2017/6/30
PRA000035	SAA002066	ST004	34892			"NP2011-6 "	"Neophocaena phocaenoides"	"Finless porpoises "	2011							Asia	China	"Hong Kong"	22.22874593		114.2763185		"Male "	Liver					160	cm	"Body length"	Adult																															"Found stranded in Hong Kong"	2017/6/30	2017/6/30
PRA000035	SAA002067	ST004	34892			"NP2011-7 "	"Neophocaena phocaenoides"	"Finless porpoises "	2011							Asia	China	"Hong Kong"	22.22874593		114.2763185		"Female "	Liver					141	cm	"Body length"	Adult																															"Found stranded in Hong Kong"	2017/6/30	2017/6/30
PRA000035	SAA002068	ST004	34892			"NP2012-1 "	"Neophocaena phocaenoides"	"Finless porpoises "	2012							Asia	China	"Hong Kong"	22.22874593		114.2763185		"Male "	Liver					158	cm	"Body length"	Adult																															"Found stranded in Hong Kong"	2017/6/30	2017/6/30
PRA000035	SAA002069	ST004	34892			"NP2012-2 "	"Neophocaena phocaenoides"	"Finless porpoises "	2012							Asia	China	"Hong Kong"	22.22874593		114.2763185		"Female "	Liver					157	cm	"Body length"	Adult																															"Found stranded in Hong Kong"	2017/6/30	2017/6/30
PRA000035	SAA002070	ST004	34892			"NP2012-3 "	"Neophocaena phocaenoides"	"Finless porpoises "	2012							Asia	China	"Hong Kong"	22.22874593		114.2763185		"Male "	Liver					166	cm	"Body length"	Adult																															"Found stranded in Hong Kong"	2017/6/30	2017/6/30
PRA000035	SAA002071	ST004	34892			"NP2012-4 "	"Neophocaena phocaenoides"	"Finless porpoises "	2012							Asia	China	"Hong Kong"	22.22874593		114.2763185		"Male "	Liver					165	cm	"Body length"	Adult																															"Found stranded in Hong Kong"	2017/6/30	2017/6/30
PRA000035	SAA002072	ST004	34892			"NP2012-5 "	"Neophocaena phocaenoides"	"Finless porpoises "	2012							Asia	China	"Hong Kong"	22.22874593		114.2763185		"Male "	Liver					166	cm	"Body length"	Adult																															"Found stranded in Hong Kong"	2017/6/30	2017/6/30
PRA000035	SAA002073	ST004	34892			"NP2012-6 "	"Neophocaena phocaenoides"	"Finless porpoises "	2012							Asia	China	"Hong Kong"	22.22874593		114.2763185		"Female "	Liver					133	cm	"Body length"	Adult																															"Found stranded in Hong Kong"	2017/6/30	2017/6/30
PRA000035	SAA002074	ST004	34892			"NP2012-7 "	"Neophocaena phocaenoides"	"Finless porpoises "	2012							Asia	China	"Hong Kong"	22.22874593		114.2763185		"Male "	Liver					156	cm	"Body length"	Adult																															"Found stranded in Hong Kong"	2017/6/30	2017/6/30
PRA000035	SAA002075	ST004	34892			"NP2013-1 "	"Neophocaena phocaenoides"	"Finless porpoises "	2013							Asia	China	"Hong Kong"	22.22874593		114.2763185		"Male "	Liver					122	cm	"Body length"	Adult																															"Found stranded in Hong Kong"	2017/6/30	2017/6/30
PRA000035	SAA002076	ST004	34892			"NP2013-2 "	"Neophocaena phocaenoides"	"Finless porpoises "	2013							Asia	China	"Hong Kong"	22.22874593		114.2763185		"Male "	Liver					140	cm	"Body length"	Adult																															"Found stranded in Hong Kong"	2017/6/30	2017/6/30
PRA000035	SAA002077	ST004	34892			"NP2013-3 "	"Neophocaena phocaenoides"	"Finless porpoises "	2013							Asia	China	"Hong Kong"	22.22874593		114.2763185		"Female "	Liver					157	cm	"Body length"	Adult																															"Found stranded in Hong Kong"	2017/6/30	2017/6/30
PRA000035	SAA002078	ST004	34892			"NP2013-4 "	"Neophocaena phocaenoides"	"Finless porpoises "	2013							Asia	China	"Hong Kong"	22.22874593		114.2763185		"Male "	Liver					166	cm	"Body length"	Adult																															"Found stranded in Hong Kong"	2017/6/30	2017/6/30
PRA000035	SAA002079	ST004	34892			"NP2013-5 "	"Neophocaena phocaenoides"	"Finless porpoises "	2013							Asia	China	"Hong Kong"	22.22874593		114.2763185		"Female "	Liver					130	cm	"Body length"	Adult																															"Found stranded in Hong Kong"	2017/6/30	2017/6/30
PRA000035	SAA002080	ST004	34892			"NP2013-6 "	"Neophocaena phocaenoides"	"Finless porpoises "	2013							Asia	China	"Hong Kong"	22.22874593		114.2763185		"Male "	Liver					140	cm	"Body length"	Adult																															"Found stranded in Hong Kong"	2017/6/30	2017/6/30
PRA000035	SAA002081	ST004	34892			"NP2013-7 "	"Neophocaena phocaenoides"	"Finless porpoises "	2013							Asia	China	"Hong Kong"	22.22874593		114.2763185		"Female "	Liver					172	cm	"Body length"	Adult																															"Found stranded in Hong Kong"	2017/6/30	2017/6/30
PRA000035	SAA002082	ST004	34892			"NP2013-8 "	"Neophocaena phocaenoides"	"Finless porpoises "	2013							Asia	China	"Hong Kong"	22.22874593		114.2763185		"Male "	Liver					165	cm	"Body length"	Adult																															"Found stranded in Hong Kong"	2017/6/30	2017/6/30
PRA000035	SAA002083	ST004	34892			"NP2013-9 "	"Neophocaena phocaenoides"	"Finless porpoises "	2013							Asia	China	"Hong Kong"	22.22874593		114.2763185		"Female "	Liver					168	cm	"Body length"	Adult																															"Found stranded in Hong Kong"	2017/6/30	2017/6/30
PRA000035	SAA002084	ST004	34892			"NP2013-10 "	"Neophocaena phocaenoides"	"Finless porpoises "	2013							Asia	China	"Hong Kong"	22.22874593		114.2763185		"Female "	Liver					141	cm	"Body length"	Adult																															"Found stranded in Hong Kong"	2017/6/30	2017/6/30
PRA000035	SAA002085	ST004	34892			"NP2013-11 "	"Neophocaena phocaenoides"	"Finless porpoises "	2013							Asia	China	"Hong Kong"	22.22874593		114.2763185		"Female "	Liver					157	cm	"Body length"	Adult																															"Found stranded in Hong Kong"	2017/6/30	2017/6/30
PRA000035	SAA002086	ST004	34892			"NP2013-12 "	"Neophocaena phocaenoides"	"Finless porpoises "	2013							Asia	China	"Hong Kong"	22.22874593		114.2763185		"Female "	Liver					122	cm	"Body length"	Adult																															"Found stranded in Hong Kong"	2017/6/30	2017/6/30
PRA000035	SAA002087	ST004	34892			"NP2014-1 "	"Neophocaena phocaenoides"	"Finless porpoises "	2014							Asia	China	"Hong Kong"	22.22874593		114.2763185		"Female "	Liver					165	cm	"Body length"	Adult																															"Found stranded in Hong Kong"	2017/6/30	2017/6/30
PRA000035	SAA002088	ST004	34892			"NP2014-2 "	"Neophocaena phocaenoides"	"Finless porpoises "	2014							Asia	China	"Hong Kong"	22.22874593		114.2763185		"Male "	Liver					160	cm	"Body length"	Adult																															"Found stranded in Hong Kong"	2017/6/30	2017/6/30
PRA000035	SAA002089	ST004	34892			"NP2014-3 "	"Neophocaena phocaenoides"	"Finless porpoises "	2014							Asia	China	"Hong Kong"	22.22874593		114.2763185		"Female "	Liver					155	cm	"Body length"	Adult																															"Found stranded in Hong Kong"	2017/6/30	2017/6/30
PRA000035	SAA002090	ST004	34892			"NP2014-4 "	"Neophocaena phocaenoides"	"Finless porpoises "	2014							Asia	China	"Hong Kong"	22.22874593		114.2763185		"Female "	Liver					157	cm	"Body length"	Adult																															"Found stranded in Hong Kong"	2017/6/30	2017/6/30
PRA000035	SAA002091	ST004	34892			"NP2014-5 "	"Neophocaena phocaenoides"	"Finless porpoises "	2014							Asia	China	"Hong Kong"	22.22874593		114.2763185		"Female "	Liver					155	cm	"Body length"	Adult																															"Found stranded in Hong Kong"	2017/6/30	2017/6/30
PRA000035	SAA002092	ST004	103600			"SC2002-1 "	"Sousa chinensis"	"Indo-pacific humpbacked dolphins"	2002							Asia	China	"Hong Kong"	22.28593957		114.1039705		"Male "	Liver					248	cm	"Body length"	Adult																															"Found stranded in Hong Kong"	2017/6/30	2017/6/30
PRA000035	SAA002093	ST004	103600			"SC2004-1 "	"Sousa chinensis"	"Indo-pacific humpbacked dolphins"	2004							Asia	China	"Hong Kong"	22.28593957		114.1039705		"Female "	Liver					249	cm	"Body length"	Adult																															"Found stranded in Hong Kong"	2017/6/30	2017/6/30
PRA000035	SAA002094	ST004	103600			"SC2004-2 "	"Sousa chinensis"	"Indo-pacific humpbacked dolphins"	2004							Asia	China	"Hong Kong"	22.28593957		114.1039705		"Male "	Liver					251	cm	"Body length"	Adult																															"Found stranded in Hong Kong"	2017/6/30	2017/6/30
PRA000035	SAA002095	ST004	103600			"SC2004-3 "	"Sousa chinensis"	"Indo-pacific humpbacked dolphins"	2004							Asia	China	"Hong Kong"	22.28593957		114.1039705		"Male "	Liver					245	cm	"Body length"	Adult																															"Found stranded in Hong Kong"	2017/6/30	2017/6/30
PRA000035	SAA002096	ST004	103600			"SC2005-1 "	"Sousa chinensis"	"Indo-pacific humpbacked dolphins"	2005							Asia	China	"Hong Kong"	22.28593957		114.1039705		"Female "	Liver					230	cm	"Body length"	Adult																															"Found stranded in Hong Kong"	2017/6/30	2017/6/30
PRA000035	SAA002097	ST004	103600			"SC2007-1 "	"Sousa chinensis"	"Indo-pacific humpbacked dolphins"	2007							Asia	China	"Hong Kong"	22.28593957		114.1039705		"Male "	Liver					230	cm	"Body length"	Adult																															"Found stranded in Hong Kong"	2017/6/30	2017/6/30
PRA000035	SAA002098	ST004	103600			"SC2007-2 "	"Sousa chinensis"	"Indo-pacific humpbacked dolphins"	2007							Asia	China	"Hong Kong"	22.28593957		114.1039705			Liver					267	cm	"Body length"	Adult																															"Found stranded in Hong Kong"	2017/6/30	2017/6/30
PRA000035	SAA002099	ST004	103600			"SC2008-1 "	"Sousa chinensis"	"Indo-pacific humpbacked dolphins"	2008							Asia	China	"Hong Kong"	22.28593957		114.1039705		"Female "	Liver					260	cm	"Body length"	Adult																															"Found stranded in Hong Kong"	2017/6/30	2017/6/30
PRA000035	SAA002100	ST004	103600			"SC2012-1 "	"Sousa chinensis"	"Indo-pacific humpbacked dolphins"	2012							Asia	China	"Hong Kong"	22.28593957		114.1039705			Liver					261	cm	"Body length"	Adult																															"Found stranded in Hong Kong"	2017/6/30	2017/6/30
PRA000035	SAA002101	ST004	103600			"SC2012-2 "	"Sousa chinensis"	"Indo-pacific humpbacked dolphins"	2012							Asia	China	"Hong Kong"	22.28593957		114.1039705		"Female "	Liver					222	cm	"Body length"	Adult																															"Found stranded in Hong Kong"	2017/6/30	2017/6/30
PRA000035	SAA002102	ST004	103600			"SC2012-3 "	"Sousa chinensis"	"Indo-pacific humpbacked dolphins"	2012							Asia	China	"Hong Kong"	22.28593957		114.1039705			Liver					260	cm	"Body length"	Adult																															"Found stranded in Hong Kong"	2017/6/30	2017/6/30
PRA000035	SAA002103	ST004	103600			"SC2012-4 "	"Sousa chinensis"	"Indo-pacific humpbacked dolphins"	2012							Asia	China	"Hong Kong"	22.28593957		114.1039705		"Female "	Liver					261	cm	"Body length"	Adult																															"Found stranded in Hong Kong"	2017/6/30	2017/6/30
PRA000035	SAA002104	ST004	103600			"SC2013-1 "	"Sousa chinensis"	"Indo-pacific humpbacked dolphins"	2013							Asia	China	"Hong Kong"	22.28593957		114.1039705		"Female "	Liver					252	cm	"Body length"	Adult																															"Found stranded in Hong Kong"	2017/6/30	2017/6/30
PRA000035	SAA002105	ST004	103600			"SC2013-2 "	"Sousa chinensis"	"Indo-pacific humpbacked dolphins"	2013							Asia	China	"Hong Kong"	22.28593957		114.1039705		"Female "	Liver					236	cm	"Body length"	Adult																															"Found stranded in Hong Kong"	2017/6/30	2017/6/30
PRA000035	SAA002106	ST004	103600			"SC2013-3 "	"Sousa chinensis"	"Indo-pacific humpbacked dolphins"	2013							Asia	China	"Hong Kong"	22.28593957		114.1039705		"Female "	Liver					245	cm	"Body length"	Adult																															"Found stranded in Hong Kong"	2017/6/30	2017/6/30
PRA000035	SAA002107	ST004	103600			"SC2013-4 "	"Sousa chinensis"	"Indo-pacific humpbacked dolphins"	2013							Asia	China	"Hong Kong"	22.28593957		114.1039705		"Female "	Liver					264	cm	"Body length"	Adult																															"Found stranded in Hong Kong"	2017/6/30	2017/6/30
PRA000035	SAA002108	ST004	103600			"SC2014-1 "	"Sousa chinensis"	"Indo-pacific humpbacked dolphins"	2014							Asia	China	"Hong Kong"	22.28593957		114.1039705		"Female "	Liver					270	cm	"Body length"	Adult																															"Found stranded in Hong Kong"	2017/6/30	2017/6/30
PRA000060	SAA003568	ST015				1K	Water	"River water"	2009	4						Asia	Japan	"Suido-bashi bridge, Katabira-gawa Riv"	35.453746		139.607158																																										"Tidally-affected area; Collected on days when no rainfall had occurred for 2 consecutive days"	2018/2/9	2018/2/9
PRA000060	SAA003569	ST015				2K	Water	"River water"	2009	4						Asia	Japan	"Rinkai Tsurumigawa-bashi bridge, Tsurumi-gawa Riv"	35.501549		139.677734																																										"Tidally-affected area; Collected on days when no rainfall had occurred for 2 consecutive days"	2018/2/9	2018/2/9
PRA000060	SAA003570	ST015				3K	Water	"River water"	2009	4						Asia	Japan	"Nippa-bashi bridge, Tsurumi-gawa Riv"	35.528481		139.61723																																										"Nontidally-affected area; Collected on days when no rainfall had occurred for 2 consecutive days"	2018/2/9	2018/2/9
PRA000060	SAA003571	ST015				4K	Water	"River water"	2009	4						Asia	Japan	"Yotsugi-bashi bridge, Tsurumi-gawa Riv"	35.578287		139.498684																																										"Nontidally-affected area; Collected on days when no rainfall had occurred for 2 consecutive days"	2018/2/9	2018/2/9
PRA000060	SAA003572	ST015				5K	Water	"River water"	2009	4						Asia	Japan	"Fukiage-bashi bridge, Onda-gawa Riv"	35.536396		139.480358																																										"Nontidally-affected area; Collected on days when no rainfall had occurred for 2 consecutive days"	2018/2/9	2018/2/9
PRA000060	SAA003573	ST015				6K	Water	"River water"	2009	4						Asia	Japan	"Chiyo-bashi bridge, Tsurumi-gawa Riv"	35.518608		139.551192																																										"Nontidally-affected area; Collected on days when no rainfall had occurred for 2 consecutive days"	2018/2/9	2018/2/9
PRA000060	SAA003574	ST015				7K	Water	"River water"	2009	4						Asia	Japan	"Miyako-bashi bridge, Onda-gawa Riv"	35.517608		139.543736																																										"Nontidally-affected area; Collected on days when no rainfall had occurred for 2 consecutive days"	2018/2/9	2018/2/9
PRA000060	SAA003575	ST015				8K	Water	"River water"	2009	4						Asia	Japan	"Ochiai-bashi bridge, Tsurumi-gawa Riv"	35.513126		139.551997																																										"Nontidally-affected area; Collected on days when no rainfall had occurred for 2 consecutive days"	2018/2/9	2018/2/9
PRA000060	SAA003576	ST015				9K	Water	"River water"	2009	4						Asia	Japan	"Okumagawa managing bridge, Okuma-gawa Riv"	35.52047333		139.6028733																																										"Nontidally-affected area; Collected on days when no rainfall had occurred for 2 consecutive days"	2018/2/9	2018/2/9
PRA000060	SAA003577	ST015				10K	Water	"River water"	2009	4						Asia	Japan	"Takata-bashi bridge, Hayabuchi-gawa Riv"	35.547475		139.6202989																																										"Nontidally-affected area; Collected on days when no rainfall had occurred for 2 consecutive days"	2018/2/9	2018/2/9
PRA000060	SAA003578	ST015				11K	Water	"River water"	2009	4						Asia	Japan	"Yagami-bashi bridge, Yagami-gawa Riv"	35.552053		139.657678																																										"Nontidally-affected area; Collected on days when no rainfall had occurred for 2 consecutive days"	2018/2/9	2018/2/9
PRA000060	SAA003579	ST015				1C	Water	"River water"	2009	4						Asia	Japan	"Yoro-Ohashi bridge, Yoro-gawa Riv"	35.532234		140.078177																																										"Tidally-affected area; Collected on days when no rainfall had occurred for 2 consecutive days"	2018/2/9	2018/2/9
PRA000060	SAA003580	ST015				2C	Water	"River water"	2009	4						Asia	Japan	"Hitomi-bashi bridge, Koito-gawa Riv"	35.339119		139.865025																																										"Tidally-affected area; Collected on days when no rainfall had occurred for 2 consecutive days"	2018/2/9	2018/2/9
PRA000060	SAA003581	ST015				3C	Water	"River water"	2009	4						Asia	Japan	"Obitsu-bashi bridge, Obitsu-gawa Riv"	35.424924		139.943084																																										"Tidally-affected area; Collected on days when no rainfall had occurred for 2 consecutive days"	2018/2/9	2018/2/9
PRA000060	SAA003582	ST015				4C	Water	"River water"	2009	4						Asia	Japan	"Iwata-bashi bridge, Obitsu-gawa Riv"	35.312225		140.051976																																										"Nontidally-affected area; Collected on days when no rainfall had occurred for 2 consecutive days"	2018/2/9	2018/2/9
PRA000060	SAA003583	ST015				5C	Water	"River water"	2009	4						Asia	Japan	"Kogawa-bashi bridge, Ohara-gawa Riv"	35.32162		140.054534																																										"Nontidally-affected area; Collected on days when no rainfall had occurred for 2 consecutive days"	2018/2/9	2018/2/9
PRA000060	SAA003584	ST015				6C	Water	"River water"	2009	4						Asia	Japan	"Asai-bashi bridge, Yoro-gawa Riv"	35.46727778		140.1154444																																										"Nontidally-affected area; Collected on days when no rainfall had occurred for 2 consecutive days"	2018/2/9	2018/2/9
PRA000060	SAA003585	ST015				7C	Water	"River water"	2009	4						Asia	Japan	"Furuichiba-bashi bridge, Murata-gawa Riv"	35.540669		140.151032																																										"Nontidally-affected area; Collected on days when no rainfall had occurred for 2 consecutive days"	2018/2/9	2018/2/9
PRA000060	SAA003586	ST015				8C	Water	"River water"	2009	4						Asia	Japan	"Azuma-bashi bridge, Miyako-gawa Riv"	35.60630556		140.1253333																																										"Nontidally-affected area; Collected on days when no rainfall had occurred for 2 consecutive days"	2018/2/9	2018/2/9
PRA000060	SAA003587	ST015				9C	Water	"River water"	2009	4						Asia	Japan	"Chuo-bashi bridge, Yoshi-kawa Riv"	35.607102		140.120781																																										"Nontidally-affected area; Collected on days when no rainfall had occurred for 2 consecutive days"	2018/2/9	2018/2/9
PRA000060	SAA003588	ST015				10C	Water	"River water"	2009	4						Asia	Japan	"Makuhari-bashi bridge, Hanami-gawa Riv"	35.652861		140.061972																																										"Nontidally-affected area; Collected on days when no rainfall had occurred for 2 consecutive days"	2018/2/9	2018/2/9
PRA000060	SAA003589	ST015				11C	Water	"River water"	2009	4						Asia	Japan	"Kokonoe-hashi bridge, Ebi-gawa Riv"	35.698667		139.990667																																										"Nontidally-affected area; Collected on days when no rainfall had occurred for 2 consecutive days"	2018/2/9	2018/2/9
PRA000060	SAA003590	ST015				12C	Water	"River water"	2009	4						Asia	Japan	"Yoro-gawa Riv"	35.53227		140.083083																																										"Tidally-affected area; Collected on days when no rainfall had occurred for 2 consecutive days"	2018/2/9	2018/2/9
PRA000060	SAA003591	ST015				13C	Water	"River water"	2009	4						Asia	Japan	"Ichihara Pier"	35.540083		140.095389																																										"Tidally-affected area; Collected on days when no rainfall had occurred for 2 consecutive days"	2018/2/9	2018/2/9
PRA000060	SAA003592	ST015				1T	Water	"River water"	2009	4						Asia	Japan	"Denenchofu weir, Tama-gawa Riv"	35.587148		139.666982																																										"In major river of Toko Bay basin; Collected on days when no rainfall had occurred for 2 consecutive days"	2018/2/9	2018/2/9
PRA000060	SAA003593	ST015				2T	Water	"River water"	2009	4						Asia	Japan	"Tamagawara-bashi bridge, Tama-gawa Riv"	35.643876		139.525471																																										"Nontidally-affected area; Collected on days when no rainfall had occurred for 2 consecutive days"	2018/02/09	2018/02/09
PRA000060	SAA003594	ST015				3T	Water	"River water"	2009	4						Asia	Japan	"Chofu-bashi bridge, Tama-gawa Riv"	35.783975		139.264389																																										"Nontidally-affected area; Collected on days when no rainfall had occurred for 2 consecutive days"	2018/2/9	2018/2/9
PRA000060	SAA003595	ST015				4T	Water	"River water"	2009	4						Asia	Japan	"Tasai-bashi bridge, Hirai-gawa Riv"	35.731196		139.319379																																										"Nontidally-affected area; Collected on days when no rainfall had occurred for 2 consecutive days"	2018/2/9	2018/2/9
PRA000060	SAA003596	ST015				5T	Water	"River water"	2009	4						Asia	Japan	"Higashiakigawa-bashi bridge, Aki-kawa Riv"	35.716637		139.317765																																										"Nontidally-affected area; Collected on days when no rainfall had occurred for 2 consecutive days"	2018/2/9	2018/2/9
PRA000060	SAA003597	ST015				6T	Water	"River water"	2009	4						Asia	Japan	"Kawaguchi-gawa Riv"	35.667581		139.33251																																										"Nontidally-affected area; Collected on days when no rainfall had occurred for 2 consecutive days"	2018/2/9	2018/2/9
PRA000060	SAA003598	ST015				7T	Water	"River water"	2009	4						Asia	Japan	"Asakawa-bashi bridge, Asa-kawa Riv"	35.666668		139.330221																																										"Nontidally-affected area; Collected on days when no rainfall had occurred for 2 consecutive days"	2018/2/9	2018/2/9
PRA000060	SAA003599	ST015				8T	Water	"River water"	2009	4						Asia	Japan	"Shinasahi-bashi bridge, Yachi-gawa Riv"	35.686467		139.378607																																										"Nontidally-affected area; Collected on days when no rainfall had occurred for 2 consecutive days"	2018/2/9	2018/2/9
PRA000060	SAA003600	ST015				9T	Water	"River water"	2009	4						Asia	Japan	"Tachikawa-bashi bridge, Zanbori-gawa Riv"	35.688225		139.404645																																										"Nontidally-affected area; Collected on days when no rainfall had occurred for 2 consecutive days"	2018/2/9	2018/2/9
PRA000060	SAA003601	ST015				10T	Water	"River water"	2009	4						Asia	Japan	"Hino-bashi bridge, Tama-gawa Riv"	35.683052		139.412492																																										"Nontidally-affected area; Collected on days when no rainfall had occurred for 2 consecutive days"	2018/02/09	2018/02/09
PRA000060	SAA003602	ST015				11T	Water	"River water"	2009	4						Asia	Japan	"Oguri-gawa Riv."	35.648296		139.457922																																										"Nontidally-affected area; Collected on days when no rainfall had occurred for 2 consecutive days"	2018/02/09	2018/02/09
PRA000060	SAA003603	ST015				12T	Water	"River water"	2009	4						Asia	Japan	"Nakano-hashi bridge, Hirase Riv"	35.602867		139.602567																																										"Nontidally-affected area; Collected on days when no rainfall had occurred for 2 consecutive days"	2018/2/9	2018/2/9
PRA000060	SAA003604	ST015				13T	Water	"River water"	2009	4						Asia	Japan	"Nikaryo-hongawa Riv"	35.614181		139.581154																																										"Nontidally-affected area; Collected on days when no rainfall had occurred for 2 consecutive days"	2018/2/9	2018/2/9
PRA000060	SAA003605	ST015				14T	Water	"River water"	2009	4						Asia	Japan	"Sen-gawa Riv"	35.624778		139.61283																																										"Nontidally-affected area; Collected on days when no rainfall had occurred for 2 consecutive days"	2018/2/9	2018/2/9
PRA000060	SAA003606	ST015				15T	Water	"River water"	2009	4						Asia	Japan	"Tenjinmori-bashi bridge, No-gawa Riv"	35.62159		139.609921																																										"Nontidally-affected area; Collected on days when no rainfall had occurred for 2 consecutive days"	2018/2/9	2018/2/9
PRA000060	SAA003607	ST015				16T	Water	"River water"	2009	4						Asia	Japan	"Meoto-bashi bridge, Nomi-gawa Riv"	35.561264		139.724847																																										"Tidally-affected area; Collected on days when no rainfall had occurred for 2 consecutive days"	2018/2/9	2018/2/9
PRA000060	SAA003608	ST015				17T	Water	"River water"	2009	4						Asia	Japan	"Fujimi-bashi bridge, Kanda-gawa Riv"	35.714797		139.703387																																										"Nontidally-affected area; Collected on days when no rainfall had occurred for 2 consecutive days"	2018/2/9	2018/2/9
PRA000060	SAA003609	ST015				18T	Water	"River water"	2009	4						Asia	Japan	"Saikachi-bashi bridge, Meguro-gawa Riv"	35.643682		139.701267																																										"Nontidally-affected area; Collected on days when no rainfall had occurred for 2 consecutive days"	2018/2/9	2018/2/9
PRA000060	SAA003610	ST015				19T	Water	"River water"	2009	4						Asia	Japan	"Shinyanagi-bashi bridge, Shakujii-gawa Riv"	35.757364		139.745066																																										"Tidally-affected area; Collected on days when no rainfall had occurred for 2 consecutive days"	2018/2/9	2018/2/9
PRA000060	SAA003611	ST015				20T	Water	"River water"	2009	4						Asia	Japan	"Koishikawa-bashi bridge, Kanda-gawa Riv"	35.702669		139.750541																																										"Tidally-affected area; Collected on days when no rainfall had occurred for 2 consecutive days"	2018/2/9	2018/2/9
PRA000060	SAA003612	ST015				1S	Water	"River water"	2009	4						Asia	Japan	"Otake-bashi bridge, Sumida-gawa Riv"	35.752999		139.787674																																										"In major river of Toko Bay basin; Collected on days when no rainfall had occurred for 2 consecutive days"	2018/2/9	2018/2/9
PRA000060	SAA003613	ST015				2S	Water	"River water"	2009	4						Asia	Japan	"Ryogoku-bashi bridge, Shingashi-kawa Riv"	35.694167		139.788611																																										"Tidally-affected area; Collected on days when no rainfall had occurred for 2 consecutive days"	2018/2/9	2018/2/9
PRA000060	SAA003614	ST015				3S	Water	"River water"	2009	4						Asia	Japan	"Nishiarai-bashi bridge, Ara-kawa Riv"	35.758333		139.789195																																										"Tidally-affected area; Collected on days when no rainfall had occurred for 2 consecutive days"	2018/2/9	2018/2/9
PRA000060	SAA003615	ST015				4S	Water	"River water"	2009	4						Asia	Japan	"Nakagawa-ohashi bridge, Naka-gawa Riv"	35.758579		139.856855																																										"In major river of Toko Bay basin; Collected on days when no rainfall had occurred for 2 consecutive days"	2018/2/9	2018/2/9
PRA000060	SAA003616	ST015				5S	Water	"River water"	2009	4						Asia	Japan	"Shinkatsushika-bashi bridge, Edo-gawa Riv"	35.768063		139.879426																																										"In major river of Toko Bay basin; Collected on days when no rainfall had occurred for 2 consecutive days"	2018/2/9	2018/2/9
PRA000060	SAA003617	ST015				6S	Water	"River water"	2009	4						Asia	Japan	"Nakatugawa Confluence, Ara-kawa Riv"	35.951389		138.933889																																										"Nontidally-affected area; Collected on days when no rainfall had occurred for 2 consecutive days"	2018/2/9	2018/2/9
PRA000060	SAA003618	ST015				7S	Water	"River water"	2009	4						Asia	Japan	"Akahira-hashi bridge, Akahira-kawa Riv"	36.013147		139.039814																																										"Nontidally-affected area; Collected on days when no rainfall had occurred for 2 consecutive days"	2018/2/9	2018/2/9
PRA000060	SAA003619	ST015				8S	Water	"River water"	2009	4						Asia	Japan	"Haraya-bashi bridge, Yokose-gawa Riv"	36.029167		139.105278																																										"Nontidally-affected area; Collected on days when no rainfall had occurred for 2 consecutive days"	2018/2/9	2018/2/9
PRA000060	SAA003620	ST015				9S	Water	"River water"	2009	4						Asia	Japan	"Kuge-hashi bridge, Ara-kawa Riv"	36.118253		139.407955																																										"Nontidally-affected area; Collected on days when no rainfall had occurred for 2 consecutive days"	2018/2/9	2018/2/9
PRA000060	SAA003621	ST015				10S	Water	"River water"	2009	4						Asia	Japan	"Higashimatsuyama-bashi bridge, Toki-gawa Riv"	36.012003		139.401085																																										"Nontidally-affected area; Collected on days when no rainfall had occurred for 2 consecutive days"	2018/2/9	2018/2/9
PRA000060	SAA003622	ST015				11S	Water	"River water"	2009	4						Asia	Japan	"Imakawa-hashi bridge, Oppe-kawa Riv"	35.96755		139.343226																																										"Nontidally-affected area; Collected on days when no rainfall had occurred for 2 consecutive days"	2018/2/9	2018/2/9
PRA000060	SAA003623	ST015				12S	Water	"River water"	2009	4						Asia	Japan	"Tenjin-hashi bridge, Koma-kawa Riv"	35.886035		139.31177																																										"Nontidally-affected area; Collected on days when no rainfall had occurred for 2 consecutive days"	2018/2/9	2018/2/9
PRA000060	SAA003624	ST015				13S	Water	"River water"	2009	4						Asia	Japan	"Mukai-hashi bridge, Kasumi-gawa Riv"	35.845917		139.388778																																										"Nontidally-affected area; Collected on days when no rainfall had occurred for 2 consecutive days"	2018/2/9	2018/2/9
PRA000060	SAA003625	ST015				14S	Water	"River water"	2009	4						Asia	Japan	"Kiyokawa-bashi bridge, Nariki-gawa Riv"	35.836556		139.316806																																										"Nontidally-affected area; Collected on days when no rainfall had occurred for 2 consecutive days"	2018/2/9	2018/2/9
PRA000060	SAA003626	ST015				15S	Water	"River water"	2009	4						Asia	Japan	"Yagawa-hashi bridge, Iruma-kawa Riv"	35.844924		139.318595																																										"Nontidally-affected area; Collected on days when no rainfall had occurred for 2 consecutive days"	2018/2/9	2018/2/9
PRA000060	SAA003627	ST015				16S	Water	"River water"	2009	4						Asia	Japan	"Tenjin-hashi bridge, Ichino-kawa Riv"	36.045406		139.413723																																										"Nontidally-affected area; Collected on days when no rainfall had occurred for 2 consecutive days"	2018/2/9	2018/2/9
PRA000060	SAA003628	ST015				17S	Water	"River water"	2009	4						Asia	Japan	"Ronsho-hashi bridge, Toemon-kawa Riv"	35.850082		139.706646																																										"Nontidally-affected area; Collected on days when no rainfall had occurred for 2 consecutive days"	2018/2/9	2018/2/9
PRA000060	SAA003629	ST015				18S	Water	"River water"	2009	4						Asia	Japan	"Sakai-hashi bridge, Shiba-kawa Riv"	35.917229		139.643685																																										"Nontidally-affected area; Collected on days when no rainfall had occurred for 2 consecutive days"	2018/2/9	2018/2/9
PRA000060	SAA003630	ST015				19S	Water	"River water"	2009	4						Asia	Japan	"Haccho-hashi bridge, Shiba-kawa Riv"	35.862111		139.713639																																										"Nontidally-affected area; Collected on days when no rainfall had occurred for 2 consecutive days"	2018/2/9	2018/2/9
PRA000060	SAA003631	ST015				20S	Water	"River water"	2009	4						Asia	Japan	"Toge-hashi bridge, Koaze-kawa Riv"	35.947773		139.459734																																										"Nontidally-affected area; Collected on days when no rainfall had occurred for 2 consecutive days"	2018/2/9	2018/2/9
PRA000060	SAA003632	ST015				21S	Water	"River water"	2009	4						Asia	Japan	"Hatsukari-bashi bridge, Iruma-kawa Riv"	35.919158		139.451473																																										"Nontidally-affected area; Collected on days when no rainfall had occurred for 2 consecutive days"	2018/2/9	2018/2/9
PRA000060	SAA003633	ST015				22S	Water	"River water"	2009	4						Asia	Japan	"Shiritu Urawaminami high school aside, Sasame-kawa Riv"	35.830519		139.657128																																										"Nontidally-affected area; Collected on days when no rainfall had occurred for 2 consecutive days"	2018/2/9	2018/2/9
PRA000060	SAA003634	ST015				23S	Water	"River water"	2009	4						Asia	Japan	"Asahi-hashi bridge, Shingashi-kawa Riv"	35.892252		139.505062																																										"Nontidally-affected area; Collected on days when no rainfall had occurred for 2 consecutive days"	2018/2/9	2018/2/9
PRA000060	SAA003635	ST015				24S	Water	"River water"	2009	4						Asia	Japan	"Shiroshita-bashi bridge, Azuma-gawa Riv"	35.805417		139.535222																																										"Nontidally-affected area; Collected on days when no rainfall had occurred for 2 consecutive days"	2018/2/9	2018/2/9
PRA000060	SAA003636	ST015				25S	Water	"River water"	2009	4						Asia	Japan	"Iroha-bashi bridge, Shingashi-kawa Riv"	35.83621		139.581388																																										"Nontidally-affected area; Collected on days when no rainfall had occurred for 2 consecutive days"	2018/2/9	2018/2/9
PRA000060	SAA003637	ST015				26S	Water	"River water"	2009	4						Asia	Japan	"Azuma-bashi bridge, Kurome-kawa Riv"	35.810833		139.608056																																										"Nontidally-affected area; Collected on days when no rainfall had occurred for 2 consecutive days"	2018/2/9	2018/2/9
PRA000060	SAA003638	ST015				27S	Water	"River water"	2009	4						Asia	Japan	"Showa-hashi bridge, Niigata-kawa Riv"	35.896118		139.828565																																										"Tidally-affected area; Collected on days when no rainfall had occurred for 2 consecutive days"	2018/2/9	2018/2/9
PRA000060	SAA003639	ST015				28S	Water	"River water"	2009	4						Asia	Japan	"Nawate-hashi bridge, Ayase-kawa Riv"	35.887312		139.741164																																										"Tidally-affected area; Collected on days when no rainfall had occurred for 2 consecutive days"	2018/2/9	2018/2/9
PRA000060	SAA003640	ST015				29S	Water	"River water"	2009	4						Asia	Japan	"Tone Ozeki, Tone-gawa Riv"	36.188611		139.473333																																										"Nontidally-affected area; Collected on days when no rainfall had occurred for 2 consecutive days"	2018/2/9	2018/2/9
PRA000060	SAA003641	ST015				30S	Water	"River water"	2009	4						Asia	Japan	"Kuri-hashi bridge, Tone-gawa Riv"	36.142778		139.705																																										"Nontidally-affected area; Collected on days when no rainfall had occurred for 2 consecutive days"	2018/2/9	2018/2/9
PRA000060	SAA003642	ST015				31S	Water	"River water"	2009	4						Asia	Japan	"Sekiyado-hashi bridge, Edo-gawa Riv"	36.081444		139.779944																																										"Nontidally-affected area; Collected on days when no rainfall had occurred for 2 consecutive days"	2018/2/9	2018/2/9
PRA000060	SAA003643	ST015				32S	Water	"River water"	2009	4						Asia	Japan	"Unga-bashi bridge, Tone-unga Canal"	35.915896		139.905299																																										"Nontidally-affected area; Collected on days when no rainfall had occurred for 2 consecutive days"	2018/2/9	2018/2/9
PRA000060	SAA003644	ST019				55S	Water	"Sewage treatment plant (STP) effluent"	2009	4						Asia	Japan	Saitama	35.75361111	36.28333333	138.7113889	139.9002778																																									"Plant A; Population served: 320K; Collected on days when no rainfall had occurred for 2 consecutive days"	2018/2/9	2018/2/9
PRA000060	SAA003645	ST019				56S	Water	"Sewage treatment plant (STP) effluent"	2009	4						Asia	Japan	Saitama	35.75361111	36.28333333	138.7113889	139.9002778																																									"Plant B; Population served: 15K; Collected on days when no rainfall had occurred for 2 consecutive days"	2018/2/9	2018/2/9
PRA000060	SAA003646	ST019				57S	Water	"Sewage treatment plant (STP) effluent"	2009	4						Asia	Japan	Saitama	35.75361111	36.28333333	138.7113889	139.9002778																																									"Plant C; Population served: 33K; Collected on days when no rainfall had occurred for 2 consecutive days"	2018/2/9	2018/2/9
PRA000060	SAA003647	ST019				58S	Water	"Sewage treatment plant (STP) effluent"	2009	4						Asia	Japan	Saitama	35.75361111	36.28333333	138.7113889	139.9002778																																									"Plant D; Population served: 1200K;  Collected on days when no rainfall had occurred for 2 consecutive days"	2018/2/9	2018/2/9
PRA000060	SAA003648	ST019				59S	Water	"Sewage treatment plant (STP) effluent"	2009	4						Asia	Japan	Saitama	35.75361111	36.28333333	138.7113889	139.9002778																																									"Plant D (Advanced water treatment); Population served:1200K;  Collected on days when no rainfall had occurred for 2 consecutive days"	2018/2/9	2018/2/9
PRA000060	SAA003649	ST019				60S	Water	"Sewage treatment plant (STP) effluent"	2009	4						Asia	Japan	Saitama	35.75361111	36.28333333	138.7113889	139.9002778																																									"Plant E; Population served: 110K;  Collected on days when no rainfall had occurred for 2 consecutive days"	2018/2/9	2018/2/9
PRA000095	SAA005816	ST015				W_1xyz01_20110706	Water	"River water"	2011	7	6					Asia	Japan	"Salmon-bashi, bridge, Chitose-gawa Riv., Chitose city, Hokkaido"	42.836104		141.659342																																										"Upstream from the inflow of STP effluent; Chitose STP; Population served (x1000): 95; Sewage treatment volume (x1000 m<sup>3</sup>/day): 79;  Treat the effluent from 7 industrial parks which have semiconductor facilities"	2019/7/26	2019/7/26
PRA000095	SAA005817	ST015				W_1xyz02_20110706	Water	"River water"	2011	7	6					Asia	Japan	"Neshikoshi-bashi bridge, Chitose-gawa Riv., Chitose city, Hokkaido"	42.845615		141.670595																																										"Downstream from the inflow of STP effluent; Chitose STP; Population served (x1000): 95; Sewage treatment volume (x1000 m<sup>3</sup>/day): 79;  Treat the effluent from 7 industrial parks in Chitose city, which have semiconductor facilities "	2019/7/26	2019/7/26
PRA000095	SAA005818	ST015				W_1xyz03_20110706	Water	"River water"	2011	7	6					Asia	Japan	"Chitosegawa-bashi bridge, Chitose-gawa, Riv., Kitahiroshima city, Hokkaido"	42.997513		141.585598																																										"Downstream of the junction with Izari-gawa Riv. & Shimamatu-gawa Riv."	2019/7/26	2019/7/26
PRA000095	SAA005819	ST015				W_1xyz04_20110706	Water	"River water"	2011	7	6					Asia	Japan	"Dai18gou Izarigawa-bashi bridge Izari-gawa Riv. Eniwa city, Hokkaido"	42.922207		141.608062																																										"Upstream from the inflow of STP effluent: Eniwa STP; Population served (x1000): 77; Sewage treatment volume (x1000 m<sup>3</sup>/day): 66; Treat the effluent from 5 industrial parks in Eniwa city, which have semiconductor facilities"	2019/7/26	2019/7/26
PRA000095	SAA005820	ST015				W_1xyz05_20110706	Water	"River water"	2011	7	6					Asia	Japan	"Dai15gou Izarigawa-bashi bridge, Izari-gawa Riv., Eniwa city, Hokkaido"	42.93626		141.61597																																										"Downstream from the inflow of STP effluent; Eniwa STP; Population served (x1000): 77; Sewage treatment volume (x1000 m<sup>3</sup>/day): 66; Treat the effluent from 5 industrial parks in Eniwa city, which have semiconductor facilities"	2019/7/26	2019/7/26
PRA000095	SAA005821	ST015				W_1xyz06_20110706	Water	"River water"	2011	7	6					Asia	Japan	"Minami 9gou-bashi bridge, Shimamatsu-gawa Riv., Kitahiroshikma city, Hokkaido"	42.977339		141.596207																																										"Downstream from the inflow of STP effluent; Kitahiroshima STP; Population served (x1000): 62; Sewage treatment volume (x1000 m<sup>3</sup>/day): 35; Treat the effluent from industrial park in Eniwa city (Kitahiroshima Wattsu industrial park), which have semiconductor facilities"	2019/7/26	2019/7/26
PRA000095	SAA005822	ST015				W_1xyz07_20110706	Water	"River water"	2011	7	6					Asia	Japan	"Uranosawa-bashi bridge, Uranosawa-gawa Riv., Hokkaido"	43.00808		141.556634																																										"Near Hiroshima daini industrial park"	2019/7/26	2019/7/26
PRA000095	SAA005823	ST015				W_1xyz08_20110830	Water	"River water"	2011	8	30					Asia	Japan	"Kiyomi-bashi bridge, Pankeutashinai-gawa Riv., Kamisunagawa town, Hokkaido"	43.466213		142.022491																																										"Upstream from the inflow of industrial park effluent; Near 3 indsutrial parks located in Kamisunagawa town, which have semiconductor facilities"	2019/7/26	2019/7/26
PRA000095	SAA005824	ST015				W_1xyz09_20110830	Water	"River water"	2011	8	30					Asia	Japan	"Chuo-bashi bridge, Pankeutashinai-gawa Riv., Sunagawa city"	43.491963		141.907377																																										"Upstream of the junction with Ishikari-gawa Riv.; Downstream from the inflow of industrial park effluent;  Near 3 indsutrial parks located in Kamisunagawa town, which have semiconductor facilities"	2019/7/26	2019/7/26
PRA000095	SAA005825	ST015				W_1xyz10_20110915	Water	"River water"	2011	9	15					Asia	Japan	"Near the exit of Kushiro-Shiranuka industrial park, Otanoshikeppu-gawa Riv., Kushiro city, Hokkaido"	43.004251		144.268252																																										"Downstream from the inflow of STP effluent; Kushiro Shiranuka industrial park;"	2019/7/26	2019/7/26
PRA000095	SAA005826	ST015		ZETTAICODE_FY2011_W	112690	W_112690_20111017	Water	"River water"	2011	10	17					Asia	Japan	"Yufutsu-bashi bridge, Abira-gawa Riv., Tomakomai city, Hokkaido"	42.62527778		141.7394444																																										"Near the month of the river; there are inustrial parks in the watershed areas; Eastern part of Tomakomai;"	2019/7/26	2019/7/26
PRA000095	SAA005827	ST015		ZETTAICODE_FY2011_W	113080	W_113080_20111017	Water	"River water"	2011	10	17					Asia	Japan	"Rinko-ohashi bridge, Atsuma-gawa Riv., Atsuma town, Hokkaido"	42.609118		141.828173																																										"Near the month of the river; there are inustrial parks near this sampling point; Eastern part of Tomakomai;"	2019/7/26	2019/7/26
PRA000095	SAA005828	ST015				W_1xyz11_20110830	Water	"River water"	2011	8	30					Asia	Japan	"Miura-ohashi bridge, Ishikari-gawa Riv., Bibai city, Hokkaido and Urausu town, Hokkaido"	43.385635		141.811613																																										"Downstream from the inflow of STP effluent; Naie STP; Population served (x1000): 125; Sewage treatment volume (x1000 m<sup>3</sup>/day): 68;  Treat the waste water from Sorachi industrial park"	2019/7/26	2019/7/26
PRA000095	SAA005829	ST015				W_1xyz12_20110830	Water	"River water"	2011	8	30					Asia	Japan	"Mihara-ohashi bridge, Ishikari-gawa Riv., Ebetsu city, Hokkaido"	43.120052		141.581569																																										"Upstream of the junction with Chitose-gawa Riv."	2019/7/26	2019/7/26
PRA000095	SAA005830	ST015		ZETTAICODE_FY2011_W	110060	W_110060_20110830	Water	"River water"	2011	8	30					Asia	Japan	"Ishikari-ohashi bridge, Ishikari-gawa Riv., Ebetsu city, Hokkaido"	43.12444444		141.5430556																																										"Downstream of the junction with Chitose-gawa Riv.; Downstream from the inflow of paper mill effluent; "	2019/7/26	2019/7/26
PRA000095	SAA005831	ST015				W_1xyz13_20110830	Water	"River water"	2011	8	30					Asia	Japan	"Sapporo-ohashi bridge, Ishikari-gawa Riv., Sapporo city and Tobetsu town, Hokkaido"	43.172798		141.419901																																										"Downstream of the junction with Toyohira-gawa Riv. and Tobetsu-gawa Riv.;"	2019/7/26	2019/7/26
PRA000095	SAA005832	ST015		ZETTAICODE_FY2011_W	113470	W_113470_20110830	Water	"River water"	2011	8	30					Asia	Japan	"Shin Ebetsu-bashi bridge, Chitose-gawa Riv., Ebetsu city, Hokkaido"	43.11583333		141.5583333																																										"Upstream of the junction with Ishikari-gawa Riv.; "	2019/7/26	2019/7/26
PRA000095	SAA005833	ST015				W_1xyz14_20110830	Water	"River water"	2011	8	30					Asia	Japan	"Minamimachi 1chome-bashi bridge, Tonebetsu-gawa Riv., Iwamizawa city, Hokkaido"	43.186916		141.75328																																										"Upstream from the inflow of STP effluent; Nankoen STP; Population served (x1000): 87; Sewage treatment volume (x1000 m<sup>3</sup>/day): 53;"	2019/7/26	2019/7/26
PRA000095	SAA005834	ST015				W_1xyz15_20110830	Water	"River water"	2011	8	30					Asia	Japan	"Yamato-bashi bridge, Tonebetsu-gawa Riv., Iwamizawa city, Hokkaido"	43.183327		141.744358																																										"Downstream from the inflow of STP effluent; Under construction on the sampling day; Nankoen STP; Population served (x1000): 87; Sewage treatment volume (x1000 m<sup>3</sup>/day): 53;"	2019/7/26	2019/7/26
PRA000095	SAA005835	ST015				W_1xyz16_20110830	Water	"River water"	2011	8	30					Asia	Japan	"Kayano-bashi bridge, Ikushunbetsu-gawa Riv., Mikasa city, Hokkaido"	43.232848		141.820815																																										"Downstream from the inflow of STP effluent; Mikasa STP; Population served (x1000): 13; Sewage treatment volume (x1000 m<sup>3</sup>/day): 8;  The effluent is drained into the stream of Kawauchi shuho; There are semiconductor facilities"	2019/7/26	2019/7/26
PRA000095	SAA005836	ST015				W_1xyz17_20100726	Water	"River water"	2010	7	29				Rainy	Asia	Japan	"Kuko-bashi bridge, Inani-gawa Riv., Higashi kagura town, Hokkaido"	43.676466		142.455857																																										"Upstream from the inflow of wastewater from Asahikawa Airport"	2019/7/26	2019/7/26
PRA000095	SAA005837	ST015				W_1xyz18_20100726	Water	"River water"	2010	7	29				Rainy	Asia	Japan	"Inani-gawa Riv., Higashi kagura town, Hokkaido"	43.686454		142.432854																																										"Downstream from the inflow of wastewater from Asahikawa Airport"	2019/7/26	2019/7/26
PRA000095	SAA005838	ST015				W_1xyz19_20100806	Water	"River water"	2010	8	6				Sunny	Asia	Japan	"Kuko-bashi bridge, Inani-gawa Riv., Higashi kagura town, Hokkaido"	43.676466		142.455857																																										"Upstream from the inflow of wastewater from Asahikawa Airport"	2019/7/26	2019/7/26
PRA000095	SAA005839	ST015				W_1xyz20_20100806	Water	"River water"	2010	8	6				Sunny	Asia	Japan	"Inani-gawa Riv., Higashi kagura town, Hokkaido"	43.686454		142.432854																																										"Downstream from the inflow of wastewater from Asahikawa Airport"	2019/7/26	2019/7/26
PRA000095	SAA005840	ST015		ZETTAICODE_FY2010_W	110140	W_110140_20100726	Water	"River water"	2010	7	29				Rainy	Asia	Japan	"Higashi kagura-bashi bridge, Chubetu-gawa Riv., Higashi kagura town, Hokkaido"	43.705		142.4591667																																										"Upstream of the junction with the river where the wastewater from Asahikawa Airport is discharged"	2019/7/26	2019/7/26
PRA000095	SAA005841	ST015				W_1xyz21_20100726	Water	"River water"	2010	7	29				Rainy	Asia	Japan	"Hijirino-ohashi bridge, Chubetsu-gawa Riv., Asahikawa city, Hokkaido"	43.725705		142.414397																																										"Downstream of the junction with the river where the wastewater from Asahikawa Airport is discharged"	2019/7/26	2019/7/26
PRA000095	SAA005842	ST015		ZETTAICODE_FY2010_W	110140	W_110140_20100806	Water	"River water"	2010	8	6				Sunny	Asia	Japan	"Higashi kagura-bashi bridge, Chubetu-gawa Riv., Higashi kagura town, Hokkaido"	43.705		142.4591667																																										"Upstream of the junction with the river where the wastewater from Asahikawa Airport is discharged"	2019/7/26	2019/7/26
PRA000095	SAA005843	ST015				W_1xyz22_20100806	Water	"River water"	2010	8	6				Sunny	Asia	Japan	"Hijirino-ohashi bridge, Chubetsu-gawa Riv., Asahikawa city, Hokkaido"	43.725705		142.414397																																										"Downstream of the junction with the river where the wastewater from Asahikawa Airport is discharged"	2019/7/26	2019/7/26
PRA000095	SAA005844	ST015				W_1xyz23_20110621	Water	"River water"	2011	6	21					Asia	Japan	"Tomappu-gawa Riv., Ozora town, Hokkaido"	43.866013		144.169021																																										"Upstream from the inflow of wastewater from Memambetsu Airport"	2019/7/26	2019/7/26
PRA000095	SAA005845	ST015		ZETTAICODE_FY2011_W	114440	W_114440_20110621	Water	"River water"	2011	6	21					Asia	Japan	"Tomappu-gawa Riv., Ozora town, Hokkaido"	43.89166667		144.1708333																																										"Downstream from the inflow of wastewater from Memambetsu Airport"	2019/7/26	2019/7/26
PRA000095	SAA005846	ST015				W_1xyz24_20100821	Water	"River water"	2010	8	21					Asia	Japan	"Takaya-bashi bridge, Otanoshike-gawa Riv., Hokkaido"	43.062302		144.192783																																										"Around Kushiro Airport"	2019/7/26	2019/7/26
PRA000095	SAA005847	ST015				W_1xyz25_20100821	Water	"River water"	2010	8	21					Asia	Japan	"Aioi-bashi bridge, Otanoshike-gawa Riv., Hokkaido"	43.041624		144.232365																																										"Around Kushiro Airport"	2019/7/26	2019/7/26
PRA000095	SAA005848	ST015				W_1xyz26_20100821	Water	"River water"	2010	8	21					Asia	Japan	"Miyashita-bashi bridge, Koitoi-gawa Riv., Hokkaido"	42.997641		144.15565																																										"Downstream from the inflow of wastewater from Kushiro Airport"	2019/7/26	2019/7/26
PRA000095	SAA005849	ST015		ZETTAICODE_FY2011_W	113680	W_113680_20110702	Water	"River water"	2011	7	2					Asia	Japan	"Matsubibi-bashi bridge, Bibi-gawa Riv., Hokkaido"	42.76583333		141.7191667																																										"Upstream from the inflow of wastewater from Chitose Airport"	2019/7/26	2019/7/26
PRA000095	SAA005850	ST015		ZETTAICODE_FY2011_W	118873	W_118873_20110702	Water	"River water"	2011	7	2					Asia	Japan	"Bibi-bashi bridge Bibi-gawa Riv., Hokkaido"	42.7825		141.7191667																																										"Downstream from the inflow of wastewater from Chitose Airport"	2019/7/26	2019/7/26
PRA000116	SAA007535	ST015				Hokkaido_w3_2018	Water	"River water"	2018	11	5	2018-11-05T14:20			Cloudy	Asia	Japan	"Ishikarikako-kyo Bridge, Mouth of Riv. Ishikari (Ishikari City), Hokkaido"	43.22861111		141.3519444														"14.6 "	"9.1 "	"8.3 "	"9.5 "	"65 "			"28 "			Brown																			2021/5/18	2021/5/18
PRA000116	SAA007539	ST015				Iwate_w1-1_2018	Water	"River water"	2018	10	10	2018-10-10T10:05			Cloudy	Asia	Japan	"Riv. Toyosawa (Hanamaki City), Iwate"	39.38166667		141.1191667														"17.9 "	"15.9 "	"7.1 "	"9.9 "	"7.7 "			"5 "			"Light Green"																			2021/5/18	2021/5/18
PRA000116	SAA008014	ST014				Miyagi_w3_2018	Water	"Sea water"	2018	10	16	2018-10-16T10:17			Fair	Asia	Japan	"Sendai Bay (Matsushima Bay), Miyagi"	38.35333333		141.0975														"21.2 "	"18.2 "	"8.0 "	"7.5 "	"4,000 "			"1 "		"2.2 "	Clear																			2021/5/18	2021/5/18
PRA000116	SAA008015	ST015				Akita_w3-123_2018	Water	"Lake water"	2018	9	4	"2018-09-04T10:30; T09:50; T10:51"			Fair	Asia	Japan	"Lake Hachiro, Akita"	39.92277778		139.9988889														"29.0; 29.1; 30.0"	"26.4; 25.9; 26.4"	"9.4; 9.3; 9.3"	"13; 13; 12"	"16; 17; 17"			"15; 15; 15"		"0.6; 0.9; 0.6"	"Light Greenish brown; Dark Yellow green; Dark Yellow green"																		"Pooled (n=3)"	2021/5/18	2021/5/18
PRA000116	SAA007544	ST015				Yamagata_w1_2018	Water	"River water"	2018	10	17	2018-10-17T09:20			Cloudy	Asia	Japan	"Mouth of Riv. Mogami, Yamagata"	38.88722222		139.8433333														"14.3 "	"14.9 "	"7.3 "	"9.4 "	"21 "			"2 "			"Light Yellow"																			2021/5/18	2021/5/18
PRA000116	SAA008016	ST014				Fukushima_w1_2018	Water	"Sea water"	2018	10	24	2018-10-24T10:03			Cloudy	Asia	Japan	"Onahama Port, Fukushima"	36.92472222		140.8752778														"19.5 "	"19.6 "	"8.1 "	"7.0 "	"4,700 "			"5 "		"4.0 "	"Bluish green"																			2021/5/18	2021/5/18
PRA000116	SAA007545	ST015				Ibaraki_w2_2018	Water	"River water"	2018	11	9	2018-11-09T10:29			Cloudy	Asia	Japan	"Kamome-ohasi Bridge, Mouth of Riv. Tone (Kamisu City), Ibaraki"	35.77638889		140.7569444														"17.8 "	"18.0 "	"7.9 "	"9.4 "	"637 "			"4.8 "			Clear																			2021/5/18	2021/5/18
PRA000116	SAA007547	ST015				Tochigi_w1_2018	Water	"River water"	2018	10	18	2018-10-18T11:10			Fair	Asia	Japan	"Tagawa area-Toshuko Weir (Utsunomiya City), Tochigi"	36.52805556		139.8855556														"22.2 "	"18.0 "	"8.3 "	"11.0 "	"20 "			"2 "			Clear																			2021/5/18	2021/5/18
PRA000116	SAA007549	ST015				Saitama_w2_2018	Water	"River water"	2018	10	24	2018-10-24T10:25			Fair	Asia	Japan	"Akigase-Shusuizeki Weir, Riv. Ara (Shiki City), Saitama"	35.84055556		139.6044444														"19.7 "	"17.3 "	"7.7 "	"9.7 "	"25 "			"3 "			"Light Green"																			2021/5/18	2021/5/18
PRA000116	SAA008017	ST015				ChibaCity_w1_2018	Water	"River water"	2018	11	2	2018-11-02T10:30			Fair	Asia	Japan	"Mouth of Riv. Hanami (Chiba City), Chiba"	35.63472222		140.04694440														19.0	19.9	8.0	6.4	3,740			1			Clear																			2021/05/18	2021/05/18
PRA000116	SAA007552	ST015				Tokyo_w1_2018	Water	"River water"	2018	8	23	2018-08-23T10:35			Fair	Asia	Japan	"Mouth of Riv. Arakawa (Koto Ward), Tokyo"	35.64583333		139.8463889														"25.7 "	"25.8 "	"7.7 "	"5.7 "	"1,234 "			"4 "		"1.3 "	"Greenish brown"																			2021/5/18	2021/5/18
PRA000116	SAA007553	ST015				Tokyo_w2_2018	Water	"River water"	2018	8	23	2018-08-23T12:35			Fair	Asia	Japan	"Mouth of Riv. Sumida (Minato Ward), Tokyo"	35.66		139.7705556														"26.3 "	"26.8 "	"7.3 "	"5.4 "	"2,120 "			"3 "		"1.6 "	"Dark Grayish yellow green"																			2021/5/18	2021/5/18
PRA000116	SAA007554	ST014				YokohamaCity_w3_2018	Water	"Sea water"	2018	11	5	2018-11-05T09:50			Cloudy	Asia	Japan	"Yokohama Port, Kanagawa"	35.45555556		139.6636111														"20.2 "	"20.0 "	"8.3 "	"8.7 "				"3.2 "		"5.0 "	Clear																			2021/5/18	2021/5/18
PRA000116	SAA007557	ST014				Kawasaki_w2_2018	Water	"Sea water"	2018	11	5	2018-11-05T11:02			Cloudy/Fair	Asia	Japan	"Keihin Canal, Kawasaki Port, Kanagawa (front of Ogimachi)"	35.49527778		139.7277778														"22.9 "	"20.1 "	"8.2 "	"8.4 "	"4,500 "			"13 "		"2.7 "	"Grayish blue"																			2021/5/18	2021/5/18
PRA000116	SAA007558	ST015				Niigata_w2-1_2018	Water	"River water"	2018	10	3	2018-10-03T09:15			Fair	Asia	Japan	"Downstream of Riv. Shinano (Niigata City), Niigata"	37.88305556		139.0155556														"25.8 "	"19.9 "	"6.8 "	"8.6 "	"9 "			"220 "			Brown																			2021/5/18	2021/5/18
PRA000116	SAA007863	ST015				Toyama_w2_2018	Water	"River water"	2018	10	18	2018-10-18T09:10			Fair	Asia	Japan	"Hagiura-bashi Bridge, Mouth of Riv. Jintsu (Toyama City), Toyama"	36.745		137.2180556														"19.0 "	"14.5 "	"7.5 "	"9.3 "	"14 "			<1			Clear																			2021/5/18	2021/5/18
PRA000116	SAA007559	ST015				Ishikawa_w1_2018	Water	"River water"	2018	10	25	2018-10-25T09:52			Fair	Asia	Japan	"Mouth of Riv. Sai (Kanazawa City), Ishikawa"	36.60027778		136.5888889														"20.5 "	"17.5 "	"7.3 "	"7.9 "	"139 "			"4 "			"Yellow green"																			2021/5/18	2021/5/18
PRA000116	SAA008018	ST015				Fukui_w1_2018	Water	"River water"	2018	11	9	2018-11-09T10:43			Fair	Asia	Japan	"Mishima-bashi Bridge, Riv. Shono (Tsuruga City), Fukui"	35.6475		136.0627778														"20.5 "	"16.5 "	"7.7 "	"9.3 "	"14 "			"1 "			Clear																			2021/5/18	2021/5/18
PRA000116	SAA007560	ST015				Nagano_w2_2018	Water	"Lake water"	2018	10	29	2018-10-29T10:25			Fair	Asia	Japan	"Center of Lake Suwa, Nagano"	36.05		138.0861111														"19.5 "	"15.8 "	"7.7 "	"11 "	"13 "			"11 "		"0.8 "	"Light Yellow green"																			2021/5/18	2021/5/18
PRA000116	SAA007563	ST015				Shizuoka_w1_2018	Water	"River water"	2018	10	24	2018-10-24T13:05			Fair	Asia	Japan	"Riv. Tenryu (Iwata City), Shizuoka"	34.67916667		137.7961111														"24.9 "	"18.1 "	"7.4 "	"9.9 "	"12 "			"22 "			White																			2021/5/18	2021/5/18
PRA000116	SAA008019	ST015				Aichi_w2-2_2018	Water	"Sea water"	2018	10	23	2018-10-23T12:43			Cloudy	Asia	Japan	"Nagoya Port, West of Shiomi Wharf, Aichi"	35.07111111		136.8691667														"18.3 "	"22.5 "	"7.8 "	"3.1 "	"3,470 "			"6 "		"2.2 "	"Light Green"																			2021/5/18	2021/5/18
PRA000116	SAA007567	ST014				Mie_w1_2018	Water	"Sea water"	2018	10	30	2018-10-30T10:00			Fair	Asia	Japan	"Yokkaichi Port, Mie"	34.94944444		136.6530556														"21.9 "	"19.2 "	"8.3 "	"9.6 "	"3,970 "			"4.0 "		"1.5 "	"Greenish brown"																			2021/5/18	2021/5/18
PRA000116	SAA007570	ST015				Shiga_w2-1_2018	Water	"Lake water"	2018	10	10	2018-10-10T10:10			Cloudy	Asia	Japan	"Lake Biwa (center, offshore of Karasaki), Shiga"	35.04611111		135.8955556														"23.1 "	"22.3 "	"8.0 "	"9.1 "	"11.7 "			"3.4 "		"2.3 "	"Dark Yellow green"																			2021/5/18	2021/5/18
PRA000116	SAA007571	ST014				Kyoto_w1_2018	Water	"Sea water"	2018	10	17	2018-10-17T10:40			"Fair with occasional rain"	Asia	Japan	"Miyazu Port, Kyoto"	35.58305556		135.2138889														"18.9 "	"22.9 "	"8.4 "	"4.2 "				"3 "		"7 "	Clear																			2021/5/18	2021/5/18
PRA000116	SAA007573	ST015				KyotoCity_w1_2018	Water	"River water"	2018	11	8	2018-11-08T10:30			Fair	Asia	Japan	"Miyamae-bashi Bridge, Riv. Katsura (Kyoto City), Kyoto"	34.905		135.7125														"19.5 "	"20.5 "	"7.4 "	"9.0 "	"20 "			"1 "			Clear																			2021/5/18	2021/5/18
PRA000116	SAA007574	ST015				Osaka_w1_2018	Water	"River water"	2018	11	13	2018-11-13T09:40			Cloudy	Asia	Japan	"Mouth of Riv. Yamato (Sakai City), Osaka"	34.60833333		135.4325														"17.3 "	"19.6 "	"8.0 "	"6.6 "				"2 "		"1.5 "	Clear																			2021/5/18	2021/5/18
PRA000116	SAA007576	ST014				OsakaCity_w2_2018	Water	"Sea water"	2018	11	12	2018-11-12T11:07			Cloudy	Asia	Japan	"Osaka Port, Osaka"	34.65861111		135.4313889														"18.3 "	"19.6 "	"7.6 "	"7.4 "	"2,220 "			"1.2 "		"3.0 "	"Light Grayish yellow"																			2021/5/18	2021/5/18
PRA000116	SAA007577	ST014				Hyogo_w3_2018	Water	"Sea water"	2018	10	18	2018-10-18T10:29			Fair	Asia	Japan	"Offshore of Himeji, Hyogo"	34.76194444		134.6697222														"22.0 "	"23.3 "	"7.3 "	"6.6 "	"3,930 "			"18.1 "		"2.2 "	"Greenish brown"																			2021/5/18	2021/5/18
PRA000116	SAA007580	ST014				Kobe_w1_2018	Water	"Sea water"	2018	11	1	2018-11-01T10:30			Fair	Asia	Japan	"Center of Kobe Port, Hyogo"	34.66444444		135.1944444														"16.0 "	"21.0 "	"7.9 "	"6.4 "				"2 "		"2.3 "	"Greenish brown"																			2021/5/18	2021/5/18
PRA000116	SAA007582	ST015				Wakayama_w1_2018	Water	"River water"	2018	11	13	2018-11-13T14:40			Cloudy	Asia	Japan	"Kinokawa-ohashi Bridge, Mouth of Riv. Kinokawa (Wakayama City), Wakayama"	34.23		135.1561111														"18.7 "	"20.1 "	"7.8 "	"7.6 "	"3,270 "			"1 "		"2.0 "	"Greenish blue"																			2021/5/18	2021/5/18
PRA000116	SAA007584	ST014				Okayama_w2_2018	Water	"Sea water"	2018	11	13	2018-11-13T10:25			Cloudy	Asia	Japan	"Offshore of Mizushima, Okayama"	34.48055556		133.665														"18.0 "	"19.0 "	"7.9 "	"7.2 "	"7,000 "			"8 "		"1.8 "	"Dark Yellow green"																			2021/5/18	2021/5/18
PRA000116	SAA008020	ST014				Hiroshima_w2_2018	Water	"Sea water"	2018	11	13	2018-11-13T09:53			Fair	Asia	Japan	"Kure Port, Hiroshima"	34.23361111		132.5391667														"16.7 "	"19.8 "	"8.1 "	"6.7 "				"1.2 "		"6.0 "	"Dark Bluish green"																			2021/5/18	2021/5/18
PRA000116	SAA008021	ST014				Hiroshima_w3_2018	Water	"Sea water"	2018	11	13	2018-11-13T13:01			Cloudy	Asia	Japan	"Hiroshima Bay (Hiroshima City), Hiroshima"	34.34833333		132.4225														"17.9 "	"19.9 "	"8.1 "	"6.18 "				"0.5 "		"7.0 "	"Dark Bluish green"																			2021/5/18	2021/5/18
PRA000116	SAA007586	ST014				Yamagachi_w1_2018	Water	"Sea water"	2018	10	19	2018-10-19T13:45			Fair	Asia	Japan	"Tokuyama Bay, Yamaguchi"	33.99361111		131.7505556														"21.5 "	"21.3 "	"8.0 "	"7.9 "				"3.2 "		"6.5 "	"Bluish green"																			2021/5/18	2021/5/18
PRA000116	SAA008022	ST014				Yamaguchi_w3_2018	Water	"Sea water"	2018	10	12	2018-10-12T10:53			Fair	Asia	Japan	"Offshore of Ube, Yamaguchi"	33.915		131.1975														"20.0 "	"21.8 "	"8.3 "	"7.1 "				"2.9 "		"4.0 "	"Grayish green"																			2021/5/18	2021/5/18
PRA000116	SAA007587	ST014				Yamaguchi_w2_2018	Water	"Sea water"	2018	11	1	2018-11-01T11:15			Fair	Asia	Japan	"Offshore of Hagi, Yamaguchi"	34.43805556		131.3794444														"20.0 "	"20.9 "	"8.3 "	"7.3 "				"2.0 "		"9.0 "	"Bluish green"																			2021/5/18	2021/5/18
PRA000116	SAA008023	ST015				Tokushima_w1_2018	Water	"River water"	2018	10	16	2018-10-16T09:30			Cloudy	Asia	Japan	"Mouth of Riv. Yoshino (Tokushima City), Tokushima"	34.085		134.5913889														"19.8 "	"19.5 "	"7.8 "	"7.9 "	"1,800 "			"2 "		"2.0 "	"Dark green"																			2021/5/18	2021/5/18
PRA000116	SAA007588	ST014				Kagawa_w1_2018	Water	"Sea water"	2018	10	23	2018-10-23T08:50			Cloudy	Asia	Japan	"Takamatsu Port, Kagawa"	34.34972222		134.0788889														"20.4 "	"22.3 "	"8.1 "	"7.0 "				"5 "		"2.0 "	Green																			2021/5/18	2021/5/18
PRA000116	SAA008024	ST015				Kochi_w2_2018	Water	"River water"	2018	10	11	2018-10-11T08:23			Cloudy	Asia	Japan	"Mouth of Riv. Shimanto (Shimanto City), Kochi"	32.93777778		132.8441667														"19.8 "	"19.7 "	"6.53 "	"8.06 "	"640 "			"3.33 "			Clear																			2021/5/18	2021/5/18
PRA000116	SAA007591	ST014				KitakyushuCity_w1_2018	Water	"Sea water"	2018	10	30	2018-10-30T09:20			Fair	Asia	Japan	"Dokai Bay (Kitakyushu City), Fukuoka"	33.90388889		130.8158333														"19.1 "	"19.9 "	"7.9 "	"7.4 "	"4,500 "			"3 "		"3.5 "	Clear																			2021/5/18	2021/5/18
PRA000116	SAA007593	ST014				Saga_w1_2018	Water	"Sea water"	2018	10	31	2018-10-31T10:20			Cloudy	Asia	Japan	"Imari Bay, Saga"	33.34		129.8208333														"14.0 "	"18.5 "	"8.4 "	"3.4 "	"4,700 "			"44 "		"2.5 "	Clear																			2021/5/18	2021/5/18
PRA000116	SAA008025	ST014				Nagasaki_w1_2018	Water	"Sea water"	2018	10	22	2018-10-22T13:33			Fair	Asia	Japan	"Omura Bay, Nagasaki"	32.98833333		129.8522222														"24.5 "	"22.8 "	"8.1 "	"7.6 "				<1		"7.0 "	"Light greenish bllue"																			2021/5/18	2021/5/18
PRA000116	SAA007870	ST015				Kumamoto_w1_2018	Water	"River water"	2018	10	23	2018-10-23T13:30			Cloudy	Asia	Japan	"Hiraki-bashi Bridge, Riv. Midori (Uto City), Kumamoto"	32.71638889		130.6422222														"21.1 "	"19.3 "	"7.6 "	"8.0 "	"340 "			"15 "			Brown																			2021/5/18	2021/5/18
PRA000116	SAA008026	ST015				Miyazaki_w3_2018	Water	"River water"	2018	10	24	2018-10-24T11:35			Fair	Asia	Japan	"Mouth of Riv. Oyodo (Miyazaki City), Miyazaki"	31.89611111		131.4402778														"24.0 "	"20.7 "	"7.8 "	"9.5 "	"380 "			"7 "			Clear																			2021/5/18	2021/5/18
PRA000116	SAA008027	ST015				Kagoshima_w1_2018	Water	"River water"	2018	9	25	2018-09-25T11:55			Fair	Asia	Japan	"Shinkawa-bashi Bridge, Riv. Amori (Kirishima City), Kagoshima"	31.7225		130.7416667														"23.7 "	"23.0 "	"7.5 "	"8.5 "				"6 "			Clear																			2021/5/18	2021/5/18
PRA000116	SAA008028	ST015				Kagoshima_w2_2018	Water	"River water"	2018	9	13	2018-09-13T12:18			Fair	Asia	Japan	"Gotanda-bashi Bridge, Riv. Gotanda (Ichikikushikino City), Kagoshima"	31.72583333		130.2769444														"29.3 "	"29.2 "	"7.7 "	"9.4 "				"2 "			Clear																			2021/5/18	2021/5/18
PRA000116	SAA008029	ST014				Okinawa_w1_2018	Water	"Sea water"	2018	11	6	2018-11-06T11:30			Fair	Asia	Japan	"Naha Port, Okinawa"	26.21222222		127.665														"30.0 "	"25.6 "	"8.1 "	"4.7 "	"4,570 "			"13.2 "		"1.5 "	Clear																			2021/5/18	2021/5/18
PRA000116	SAA008030	ST024				Hokkaido_sed2-123_2018	Sediment	"River sediment"	2018	11	5	"2018-11-05T14:33; T14:44; T14:56"			Cloudy	Asia	Japan	"Ishikarikakokyo Bridge, Mouth of Riv. Ishikari (Ishikari City), Hokkaido"	43.22861111		141.3519444														14.6	9.1										"14.1; 13.6;13.7"			Brown	Brown			"38.5; 43.9; 45.9 (Each)/ 52.8 (Mixed)"	"9.8; 14.2; 8.9 (Each)/ 7.1 (Mixed)"									"n=3 pooled: SAA007633, SAA007634, SAA007635"	2021/5/24	2021/5/24
PRA000116	SAA008031	ST023				Hokkaido_sed3-123_2018	Sediment	"Marine sediment"	2018	9	12	"2018-09-12T10:50; T11:05; T11:20"			Fair	Asia	Japan	"Tomakomai Port, Hokkaido"	42.63138889		141.6288889														"19.6; 20.1; 19.9"	19.5								3.5		17	16		Black	"Greenish blue"	"Hydrogen sulfide odor"		"49.0; 35.8; 34.3 (Each)/ 46.9 (Mixed)"	"9.0; 4.6; 4.1 (Each)/ 4.3 (Mixed)"									"n=3 pooled: SAA007636, SAA007637, SAA007638"	2021/5/24	2021/5/24
PRA000116	SAA008032	ST024				Iwate_sed1-123_2018	Sediment	"River sediment"	2018	10	10	"2018-10-10T10:05; T11:00; T11:00"			Cloudy	Asia	Japan	"Riv. Toyosawa (Hanamaki City), Iwate"	39.38166667		141.1191667														"17.9; 18.0; 18.0"	"15.9; 16.0; 16.0"										"15.5; 15.7; 15.5"	0.15	"Sand (Mixed with pebble)"	Brown	Green_Light	"Odorless; River algae smell; River algae smell"	None	"25.3; 23.7; 21.1 (Each)/24.9 (Mixed)"	"2.2; 1.8; 1.6 (Each)/1.5 (Mixed)"									"n=3 pooled: SAA007873; SAA007874; SAA007875"	2021/5/24	2021/5/24
PRA000116	SAA008036	ST023				Miyagi_sed1_123_2018	Sediment	"Marine sediment"	2018	10	16	"2018-10-16T10:17; T10:52; T11:08"			Fair	Asia	Japan	"Sendai Bay (Matsushima Bay), Miyagi"	38.35333333		141.0975														"21.2; 21.0; 19.1"	"18.2; 18.0; 18.0"								"2.2; 2.2; 2.1"		"19.0; 19.0; 19.2"	"4.7; 4.5; 4.6"	Muddy	"Graysih green"	Clear	"Seaweed odor_Faint"	Shell	"57.8; 61.1; 57.2 (Each)/ 67.5 (Mixed)"	"10.7; 11.8; 11.2 (Each)/ 8.7 (Mixed)"									"n=3 pooled: SAA008033, SAA008034, SAA008035"	2021/5/24	2021/5/24
PRA000116	SAA008037	ST024				Sendai_sed1_123_2018	Sediment	"River sediment"	2018	11	5	"2018-11-05T10:30; T09:47; T10:15"			Cloudy	Asia	Japan	"Hirose-ohashi Bridge, Riv. Hirose (Sendai City), Miyagi"	38.21333333		140.9088889														13.7	"12.8; 12.7; 12.7"										14	"0.23; 0.31; 0.75"	Sandy	Brown	Clear	"Swampy odor_Faint"	None	"9.9; 10.4; 16.4 (Each)/ 15.4 (Mixed)"	"1.0; 1.1; 1.3 (Each)/ 0.9 (Mixed)"									"n=3 pooled: SAA007876, SAA007877, SAA007878"	2021/5/24	2021/5/24
PRA000116	SAA008041	ST024				Akita_sed2-123_2018	Sediment	"Lake sediment"	2018	9	4	"2018-09-04T10:32; T10:13; T10:53"			Fair	Asia	Japan	"Lake Hachiro, Akita"	39.92277778		139.9988889														"29.0; 29.1; 30.0"	"26.4; 25.9; 26.4"								"0.6; 0.9; 0.6"		"23.4; 23.3; 22.7"	"6.1; 6.8; 8.3"	"Sandy, mud; Muddy; Muddy"	"Gray black"	"Greenish brown_Light; Yellow green_Dark; Yellow green_Dark"	Odorless	None	"64.0; 75.2; 76.0 (Each)/ 73.6 (Mixed)"	"7.4; 11.6; 12.6 (Each)/ 7.7 (Mixed)"									"n=3 pooled: SAA008038, SAA008039, SAA008040"	2021/5/24	2021/5/24
PRA000116	SAA008042	ST024				Yamagata_sed1-123_2018	Sediment	"River sediment"	2018	10	17	"2018-10-17T10:20; T10:20; T10:20"			Cloudy	Asia	Japan	"Mouth of Riv. Mogami (Sakata City), Yamagata"	38.88722222		139.8433333														15.8	15.2										"14.6; 14.0; 14.5"	0.3	"Fine sand"	"Gray black"	Yellow_Light	"Earthy odor"	"Vegetative pieces"	"33.7; 33.1; 34.6 (Each)/ 33.2 (Mixed)"	"4.2; 4.2; 4.5 (Each)/ 3.1 (Mixed)"									"n=3 pooled: SAA007879, SAA007880, SAA007881"	2021/5/24	2021/5/24
PRA000116	SAA008046	ST023				Fukushima_sed1-123_2018	Sediment	"Marine sediment"	2018	10	24	"2018-10-24T10:03; T11:07; T11:49"			"Cloudy; Fair; Fair"	Asia	Japan	"Onahama Port, Fukushima"	36.92472222		140.8752778														"19.5; 20.1; 20.0"	"19.6; 20.3; 20.5"								"4.0; 3.8; 3.8"		"19.8; 19.8; 19.8"	"14.0; 13.0; 14.0"	Mud	"Grayish green"	"Blue green"	"Seaweed odor_Faint"	None	"44.5; 41.2; 47.1 (Each)/ 58.7 (Mixed)"	"8.1; 7.4; 9.2 (Each)/ 9.1 (Mixed)"									"n=3 pooled: SAA008043, SAA008044, SAA008045"	2021/5/24	2021/5/24
PRA000116	SAA008047	ST024				Ibaraki_sed1-123_2018	Sediment	"River sediment"	2018	11	9	"2018-11-09T09:48; T10:35; T10:50"			"Cloudy; Rain; rain"	Asia	Japan	"Kamome-ohasi Bridge, Mouth of Riv. Tone (Kamisu City), Ibaraki"	35.77638889		140.7569444														"20.1; 17.8; 18.1"	"18.8; 18.0; 18.0"											"0.95; 6.5; 1.8"	"Sandy, mud; Clay; Sandy"	Brown	Clear	Odorless	"None; None; Shellfish"	"26.0; 39.0; 24.0 (Each)/ 33.2 (Mixed)"	"1.8; 5.7; 1.4 (Each)/ 2.3 (Mixed)"									"n=3 pooled: SAA007885, SAA007886, SAA007887"	2021/5/24	2021/5/24
PRA000116	SAA008051	ST024				Tochigi_sed1-123_2018	Sediment	"River sediment"	2018	10	18	"2018-10-18T10:04; T12:00; T12:58"			Fair	Asia	Japan	"Tagawa area-Toshuko Weir (Utsunomiya City), Tochigi"	36.52805556		139.8855556														"20.5; 22.2; 23.8"	"17.2; 18.0; 18.5"										"18.0; 18.0; 19.0"	"0.62; 0.56; 0.26"	Gravel	Brown	Clear	Odorless		"NA (Each)/ 19.3 (Mixed)"	"NA (Each)/ 0.8 (Mixed)"									"n=3 pooled: SAA008048, SAA008049, SAA008050"	2021/5/24	2021/5/24
PRA000116	SAA008052	ST023				Chiba_sed1-123_2018	Sediment	"Marine sediment"	2018	10	16	"2018-10-16T10:20; T10:45; T10:59"			Cloudy	Asia	Japan	"Ichihara-Anesaki Coast, Chiba"	35.52166667		140.0283333														"20.8; 21.0; 21.6"	"21.1; 21.2; 21.2"								"5.5; 5.4; 5.4"		"21.0; 21.0; 21.0"	"18.5; 18.4; 18.4"	Silt	Black	"Dark bluish green"	"Hydrogen sulfide odor"	"Pieces of shell"	"72.9; 75.0; 73.6 (Each)/ 82.3 (Mixed)"	"12.9; 13.3; 12.7 (Each)/ 11.2 (Mixed)"									"n=3 pooled: SAA007900, SAA007901, SAA007902"	2021/5/24	2021/5/24
PRA000116	SAA008056	ST024				ChibaCity_sed1-123_2018	Sediment	"River sediment"	2018	11	2	"2018-11-02T10:52; T11:23; T11:47"			Fair	Asia	Japan	"Mouth of Riv. Hanami (Chiba City), Chiba"	35.63472222		140.04694440														"22.0; 23.5; 22.0"	"19.9; 21.5; 20.3"										"18.0; 21.2; 18.8"	"2.0; 1.7; 1.8"	Muddy	"Gray black"	Clear	"Seaweed odor"	Shellfish	"27.0; 29.0; 26.7 (Each)/ 27.8 (Mixed)"	"3.4; 4.2; 3.7 (Each)/ 2.5 (Mixed)"									"n=3 pooled: SAA008053, SAA008054, SAA008055"	2021/05/24	2021/05/24
PRA000116	SAA008060	ST024				Tokyo_sed1-456_2018	Sediment	"River sediment"	2018	8	23	"2018-08-23T10:35; T11;20; T11:40"			Fair	Asia	Japan	"Mouth of Riv. Arakawa (Koto Ward), Tokyo"	35.64583333		139.8463889														"25.7; 26.1; 25.8"	"25.8; 26.8; 26.6"								"1.3; 1.1; 1.4"		"26.5; 26.7; 26.6"	"3.8; 3.1; 2.8"	Silt	"Olive black"	"Greenish brown; Greenish brown; Grayish yellow green_Dark"	"Odorless; Odorless; Hydrogen sulfide odor_Faint"	"Clam; Shell"	"39.1; 33.1; 39.1 (Each)/ 51.0 (Mixed)"	"7.3; 6.2; 7.7 (Each)/ 6.8 (Mixed)"									"n=3 pooled: SAA008057, SAA008058, SAA008059"	2021/5/24	2021/5/24
PRA000116	SAA008064	ST024				Tokyo_sed2-456_2018	Sediment	"River sediment"	2018	8	23	"2018-08-23T12:35; T13;15; T13:30"			Fair	Asia	Japan	"Mouth of Riv. Sumida (Minato Ward), Tokyo"	35.66		139.7705556														"26.3; 26.1; 27.2"	"26.8; 26.4; 27.0"								"1.6; 1.7; 1.7"		"25.1; 25.3; 25.5"	"5.4; 5.1; 4.0"	Silt	Black	"Grayish yellow green_Dark"	"Hydrogen sulfide odor"	"Vegetative pieces; Shell; Vegetative pieces; Vegetative pieces; Polychaete"	"57.3; 59.0; 52.3 (Each)/ 64.8 (Mixed)"	"10.6; 12.2; 11.1 (Each)/ 9.9 (Mixed)"									"n=3 pooled: SAA008061, SAA008062, SAA008063"	2021/5/24	2021/5/24
PRA000116	SAA008065	ST023				Yokohama_sed1-123_2018	Sediment	"Marine sediment"	2018	11	5	"2018-11-05T10:40；T09:50; T11:20"			Cloudy	Asia	Japan	"Yokohama Port, Kanagawa"	35.45555556		139.6636111														"21.0; 20.2; 21.0"	"20.5; 20.0; 20.5"								"3.0; 5.0; 4.5"		"19.0; 19.2; 19.5"	"11.7; 12.5; 11.5"	Muddy	"Black brown"	Clear	"Hydrogen sulfide odor_Faint"	None	"64.2; 78.5; 75.8 (Each)/ 68.6 (Mixed)"	"8.2; 11.0; 10.5 (Each)/ 9.1 (Mixed)"									"n=3 pooled: SAA007650, SAA007651, SAA007652"	2021/5/24	2021/5/24
PRA000116	SAA008066	ST024				KawasakiCity_sed1-123_2018	Sediment	"River sediment"	2018	11	5	"2018-11-05T11:47; T12:17; T12:05"			Cloudy	Asia	Japan	"Mouth of Riv. Tama (Kawasaki City), Kanagawa"	35.53		139.7836111														"19.7; 18.7; 22.6"	"19.5; 19.7; 19.6"								"2.0; 1.5; 1.6"		"20.0; 19.9; 20.0"	"4.0; 2.1; 2.5"	"Mud, sand; Mud; Mud"	"Blackish brown"	"Greenish blue"	"Seaweed odor; Tar odor; Seaweed odor"	"Vegetative pieces; Shell; Vegetative pieces; Shell; Shell"	"30.5; 28.8; 29.7 (Each)/ 50.8 (Mixed)"	"6.6; 6.1; 5.9 (Each)/ 8.7 (Mixed)"									"n=3 pooled: SAA007903, SAA007904, SAA007905"	2021/5/24	2021/5/24
PRA000116	SAA008067	ST023				KawasakiCity_sed2-123_2018	Sediment	"Marine sediment"	2018	11	5	"2018-11-05T11:02; T10:45; T10:25"			"Cloudy, occasionally fair"	Asia	Japan	"Keihin Canal, Kawasaki Port, Kanagawa (front of Ogimachi)"	35.49527778		139.7277778														"22.9; 21.2; 20.9"	"20.1; 20.3; 20.0"								"2.7; 2.9; 3.0"		"20.0; 20.2; 20.0"	"15.1; 13.8; 13.5"	Mud	"Gray green"	"Grayish blue"	"Hydrogen sulfide odor_Faint"	Shell	"35.1;51.6; 37.1 (Each)/ 67.4 (Mixed)"	"6.9; 10.8; 7.7 (Each)/ 9.0 (Mixed)"									"n=3 pooled: SAA007653, SAA007654, SAA007655"	2021/5/24	2021/5/24
PRA000116	SAA008068	ST024				Niigata_sed1-123_2018	Sediment	"River sediment"	2018	10	3	"2018-10-03T10:10; T10:05; T10:05"			Fair	Asia	Japan	"Downstream of Riv. Shinano (Niigata City), Niigata"	37.88305556		139.0155556														25.8	19.9										19	"0.89; 4.3; 5.1"	"Muddy; Sandy and Muddy; Sandy and Muddy"	"Blackish brown; Light brown; Brown"	Brown	"Earthy odor; Odorless; Odorless"	"None; Leaves; Tree branch; Leaves"	"56.0; 22.1; 17.7 (Each)/ 30.3 (Mixed)"	"6.4; 1.9; 1.4 (Each)/ 2.6 (Mixed)"									"n=3 pooled: SAA007906, SAA007907, SAA007908"	2021/5/24	2021/5/24
PRA000116	SAA008072	ST024				Toyama_sed1-123_2018	Sediment	"River sediment"	2018	10	18	"2018-10-18T09:20; T10:30; T11:00"			Fair	Asia	Japan	"Hagiura-bashi Bridge, Mouth of Riv. Jintsu (Toyama City), Toyama"	36.745		137.2180556														"17.5; 19.0; 21.5"	"15.5; 16.5; 16.5"										"15.5; 18.0; 17.5"	"0.95; 0.63; 0.85"	"Muddy; Muddy; Sandy"	"Gray black"	Clear	"Seaweed odor_Faint; Hydrogen sulfide odor_Faint; Odorless"	"Leaves; Leaves; Leaves; Roots"	"37.0; 36.0; 22.0 (Each)/ 27.9 (Mixed)"	"3.8; 3.7; 1.2 (Each)/ 2.0 (Mixed)"									"n=3 pooled: SAA008069, SAA008070, SAA008071"	2021/5/24	2021/5/24
PRA000116	SAA008073	ST024				Ishikawa_sed1-123_2018	Sediment	"River sediment"	2018	10	25	"2018-10-25T10:23; T12:14; T12:46"			Fair	Asia	Japan	"Mouth of Riv. Sai (Kanazawa City), Ishikawa"	36.60027778		136.5888889														"20.9; 19.7; 21.1"	"17.5; 18.0; 17.6"												"Sandy silt; Sandy silt; Sand"	"Gray black; Gray brown; Blackish brown"	"Yellow green; Green; Green"	"Fish rotten odor_Faint"	"Pebble, Shell; Pebble; Pebble"	"24.0; 29.0; 22.0 (Each)/ 24.6 (Mixed)"	"2.5; 2.7; 1.3 (Each)/ 2.1 (Mixed)"									"n=3 pooled: SAA007656, SAA007657, SAA007658"	2021/5/24	2021/5/24
PRA000116	SAA008077	ST024				Fukui_sed1-123_2018	Sediment	"River sediment"	2018	11	9	"2018-11-09T10:43; T10:43, T10:43"			Fair	Asia	Japan	"Mishima-bashi Bridge, Riv. Shono (Tsuruga City), Fukui"	35.6475		136.0627778														"20.5; 20.5; 20.5"	"16.5; 16.5; 16.5"										"16.5; 16.5; 16.5"	"0.1; 0.1; 0.1"	"Sandy; Sandy; Sandy"	Brown	Clear	Odorless	Stones	"21.8; 22.3; 20.5 (Each)/ 20.9 (Mixed)"	"1.1; 1.1; 1.1 (Each)/ 0.9 (Mixed)"									"n=3 pooled: SAA008074, SAA008075, SAA008076"	2021/5/24	2021/5/24
PRA000116	SAA008081	ST024				Yamanashi_sed1-123_2018	Sediment	"River sediment"	2018	10	22	"2018-10-22T10:50; T10:20; T09:50"			Fair	Asia	Japan	"Chiaki-bashi Bridge, Riv. Ara (Kofu City), Yamanashi"	35.6475		138.5655556														"14.5; 13.5; 13.1"	"14.8; 12.6; 14.9"										"12.6; 12.2; 14.3"	"1.0; 0.28; 0.9"	"Sand; Pebble; Sand"	Gray	Clear	Odorless	"Pebbles; Sand; None"	"20.5; 17.7; 27.0 (Each)/ 21.3 (Mixed)"	"0.9; 1.1; 1.0 (Each)/ 0.8 (Mixed)"									"n=3 pooled: SAA008078, SAA008079, SAA008080"	2021/5/24	2021/5/24
PRA000116	SAA008082	ST024				Nagano_sed1-123_2018	Sediment	"Lake sediment"	2018	10	29	"2018-10-29T10:25; T11:20; T11:30"			Fair	Asia	Japan	"Center of Lake Suwa, Nagano"	36.05		138.0861111														"19.5; 18.0; 17.2"	"15.8; 15.4; 14.9"								"0.8; 1.0; 0.9"		"16.5; 16.5; 15.2"	"5.8; 5.8; 5.8"	Muddy	"Blackish brown_dark"	"Yellow green_Light"	"Swampy odor_Faint"	None	"79.3; 80.6; 80.2 (Each)/ 85.2 (Mixed)"	"15.6; 15.3; 15.2 (Each)/ 13.6 (Mixed)"									"n=3 pooled: SAA007912, SAA007913, SAA007914"	2021/5/24	2021/5/24
PRA000116	SAA008083	ST023				Shizuoka_sed1-123_2018	Sediment	"Marine sediment"	2018	9	27	"2018-09-27T10:05; T10:25; T10:50"			"Light rain"	Asia	Japan	"Shimizu Port, Shizuoka"	35.02416667		138.5161111														"20.5; 20.0; 20.0"	"23.4; 23.9; 23.9"								"2.5; 3.0; 2.5"		"23.4; 25.3; 24.9"	"25.5; 20.1; 16.6"	"Sand. Mud"	"Gray green_dark"	Clear	"Seaweed odor"	Shellfish	"35.9; 29.8; 31.4 (Each)/ 28.8 (Mixed)"	"4.4; 4.3; 4.0 (Each)/ 3.3 (Mixed)"									"n=3 pooled: SAA007659, SAA007660, SAA007661"	2021/5/24	2021/5/24
PRA000116	SAA008084	ST024				Shizuoka_sed3-123_2018	Sediment	"River sediment"	2018	10	24	"2018-10-24T13:30; T14:00; T14:40"			Fair	Asia	Japan	"Riv. Tenryu (Iwata City), Shizuoka"	34.67916667		137.7961111														"24.9; 26.9; 25.8"	"18.1;NA; NA"										"17.5; 18.2; 18.5"	"0.53; 0.29; 0.73"	Sand	"Gray green_dark"	White	"Seaweed odor"	Pebble	"19.4; 17.5; 24.5 (Each)/ 20.3 (Mixed)"	"1.3; 1.1; 2.2 (Each)/ 1.2 (Mixed)"									"n=3 pooled: SAA007915, SAA007916, SAA007917"	2021/5/24	2021/5/24
PRA000116	SAA008088	ST023				Aichi_sed2-123_2018	Sediment	"Marine sediment"	2018	10	23	"2018-10-23T10:56; T11:05; T11:14"			Cloudy	Asia	Japan	"Kinuura Port, Aichi"	34.84166667		136.9486111														"18.4; 18.4; 18.4"	"26.0; 26.0; 26.0"								"2.0; 2.0; 2.0"		"22.7; 22.2; 22.8"	"14.2; 14.2; 14.2"	Muddy	"Gray green"	Green_Light	"Hydrogen sulfide odor"	Shell	"63.5; 65.4; 65.0 (Each)/ 65.2 (Mixed)"	"10.8; 10.4; 10.4 (Each)/ 8.7 (Mixed)"									"n=3 pooled: SAA008085, SAA008086, SAA008087"	2021/5/24	2021/5/24
PRA000116	SAA008092	ST023				Aichi_sed1-456_2018	Sediment	"Marine sediment"	2018	10	23	"2018-10-23T12:43; T12:51; T12:59"			Cloudy	Asia	Japan	"Nagoya Port, Aichi"	35.07111111		136.8691667														"18.3; 18.3; 18.3"	"22.5; 22.5; 22.5"								"2.2; 2.2; 2.2"		"23.6; 23.8; 24.0"	"16.7; 16.7; 16.7"	Muddy	"Gray black"	Green_Light	"Hydrogen sulfide odor"	Shell	"59.2; 56.9; 59.3 (Each)/ 58.3 (Mixed)"	"7.8; 7.6; 7.8 (Each)/ 6.8 (Mixed)"									"n=3 pooled: SAA008089, SAA008090, SAA008091"	2021/5/24	2021/5/24
PRA000116	SAA008093	ST023				Mie_sed1-123_2018	Sediment	"Marine sediment"	2018	10	30	"2018-10-30T10:00; T10:20; T10:35"			Fair	Asia	Japan	"Yokkaichi Port, Mie"	34.94944444		136.6530556														"21.9; 21.0; 21.5"	"19.2; 19.2; 19.0"								"1.5; 1.8; 1.5"		"22.2; 22.0; 22.0"	"13.0; 12.5; 8.0"	Muddy	"Gray black"	"Gray green"	"Hydrogen sulfide odor_Faint"	"Almost none; Almost none; Shell"	"69.0; 72.0; 57.0 (Each)/ 63.5 (Mixed)"	"9.4; 9.9; 7.1 (Each)/ 7.3 (Mixed)"									"n=3 pooled: SAA007663, SAA007664, SAA007665"	2021/5/24	2021/5/24
PRA000116	SAA008094	ST023				Mie_sed2-123_2018	Sediment	"Marine sediment"	2018	10	22	"2018-10-22T09:55; T10:20; T10:30"			Fair	Asia	Japan	"Toba Port, Mie"	34.48083333		136.8486111														"23.5; 22.0; 22.0"	"21.0; 22.0; 22.0"								"3.0; 4.0; 4.0"		"22.5; 22.0; 22.0"	"6.0; 5.6; 5.4"	Muddy	"Gray brown"	"Gray green"	"Mud smell_Faint"	"Shell; pieces of wood, leaves"	"53.0; 52.0; 43.0 (Each)/ 44.2 (Mixed)"	"10.0; 8.8; 6.2 (Each)/ 7.1 (Mixed)"									"n=3 pooled: SAA007666, SAA007667, SAA007668"	2021/5/24	2021/5/24
PRA000116	SAA008095	ST024				Shiga_sed1-123_2018	Sediment	"Lake sediment"	2018	10	22	"2018-10-22T09:25; T10:05; T10:35"			Fair	Asia	Japan	"Lake Biwa (center, offshore of Minamihira), Shiga"	35.18527778		135.9733333														"19.0; 19.0; 20.0"	"18.2; 19.8; 20.1"								"5.4; 4.1; 5.0"		"8.0; 8.2; 8.3"	"59.1; 53.0; 49.0"	Muddy	"Gray black"	Green_Dark	"Swampy odor"	None	"70.0; 67.8; 67.4 (Each)/ 79.5 (Mixed)"	"11.9; 11.4; 11.5 (Each)/ 10.2 (Mixed)"									"n=3 pooled: SAA007926, SAA007927, SAA007928"	2021/5/24	2021/5/24
PRA000116	SAA008096	ST024				Shiga_sed2-123_2018	Sediment	"Lake sediment"	2018	10	10	"2018-10-10T10:10; T10:40; T11:00"			Cloudy	Asia	Japan	"Lake Biwa (center, offshore of Karasaki), Shiga"	35.04611111		135.8955556														"23.1; 22.7; 23.3"	"22.3; 22.4; 22.3"								"2.3; 3.0; 2.9"		"22.2; 22.3; 22.0"	"4.0; 4.0; 3.4"	Muddy	"Gray black"	"Yellow green_Dark"	"Swampy odor"	"Aquatic plants"	"66.1; 67.5; 55.7 (Each)/ 74.4 (Mixed)"	"12.2; 12.8; 8.9 (Each)/ 9.1 (Mixed)"									"n=3 pooled: SAA007929, SAA007930, SAA007931"	2021/5/24	2021/5/24
PRA000116	SAA008097	ST023				Kyoto_sed1-123_2018	Sediment	"Marine sediment"	2018	10	17	"2018-10-17T10:25; T10:40; T11:07"			"Fair, occasionally rain"	Asia	Japan	"Miyazu Port, Kyoto"	35.58305556		135.2138889														"19.3; 18.9; 20.0"	22.9;22.9；22.9								"7.0; 7.0; 8.0"		"20.7; 21.7; 21.5"	"10.0; 22.0; 22.0"	Muddy	"Gray black"	Clear	"Seaweed odor"	None	"28.3; 51.5; 53.9 (Each)/ 45.3 (Mixed)"	"3.2; 9.3; 9.1 (Each)/ 5.2 (Mixed)"									"n=3 pooled: SAA007932, SAA007933, SAA007934"	2021/5/24	2021/5/24
PRA000116	SAA008098	ST024				Kyoto_sed2-123_2018	Sediment	"River sediment"	2018	11	8	"2018-11-08T10:15; T11:00; T11:20"			Fair	Asia	Japan	"Miyamae-bashi Bridge, Riv. Katsura (Kyoto City), Kyoto"	34.905		135.7125														"19.5; 19.5; 19.5"	"20.5; 20.5; 20.5"										"20.0; 20.0; 19.8"	"0.8; 0.8; 0.5"	Sand	"Gray brown"	Clear	Odorless	None	"17.0; 16.6; 20.4 (Each)/ 18.0 (Mixed)"	"1.1; 1.0; 1.2 (Each)/ 0.9 (Mixed)"									"n=3 pooled: SAA007935, SAA007936, SAA007937"	2021/5/24	2021/5/24
PRA000116	SAA008099	ST024				Osaka_sed1-123_2018	Sediment	"River sediment"	2018	11	13	"2018-11-13T11:45; T10:25; T11:05"			Cloudy	Asia	Japan	"Mouth of Riv. Yamato (Sakai City), Osaka"	34.60833333		135.4325														"18.2;17.6; 17.8"	"19.8; 19.6; 19.7"								"2.2; 1.5; 1.2"		"20.5; 20.7; 20.0"	"2.9; 1.5; 1.7"	"Silt; Sandy silt; Silt"	"Black; Blak; Olive black"	Clear	"Tar odor"	"None; Vegetative pieces; Vegetatige pieces"	"40.8; 48.4; 29.4 (Each)/ 45.5 (Mixed)"	"8.2; 12.0; 4.3 (Each)/ 6.9 (Mixed)"									"n=3 pooled: SAA007938, SAA007939, SAA007940"	2021/5/24	2021/5/24
PRA000116	SAA008100	ST023				OsakaCity_sed1-123_2018	Sediment	"Marine sediment"	2018	11	12	"2018-11-12T11:45; T11:07; T12:00"			Cloudy	Asia	Japan	"Osaka Port, Osaka"	34.65861111		135.4313889														"19.6; 18.3; 18.9"	"19.0; 19.6; 19.6"								"3.0; 3.0; 3.1"		"20.4; 20.3; 19.8"	"12.8; 12.9; 12.9"	Sludge	Black	"Grayish yellow_Light"	"Hydrogen sulfide odor"	None	"59.6; 65.1; 57.5 (Each)/ 70.2 (Mixed)"	"11.4; 12.3; 10.8 (Each)/ 9.7 (Mixed)"									"n=3 pooled: SAA007669 SAA007670, SAA007671"	2021/5/24	2021/5/24
PRA000116	SAA008101	ST024				OsakaCity_sed2-123_2018	Sediment	"River sediment"	2018	11	16	"2018-11-16T09:38; T11:05; T10:25"			Fair	Asia	Japan	"Kema-bashi Bridge, Riv. Oh (Osaka City), Osaka"	34.71776		135.51961														"16.0; 16.4; 18.7"	"16.0; 16.0; 16.1"										"15.2; 16.1; 16.2"	"1.95; 1.6; 3.0"	Sludge	Gray	"Grayish yellow_Dark"	Odorless	Shellfish	"47.2; 46.6; 36.7 (Each)/ 56.2 (Mixed)"	"10.0; 8.0; 6.4 (Each)/ 8.7 (Mixed)"									"n=3 pooled: SAA007941, SAA007942, SAA007943"	2021/5/24	2021/5/24
PRA000116	SAA008105	ST023				OsakaCity_sed4-123_2018	Sediment	"Marine sediment"	2018	11	12	"2018-11-12T12:28; T12:45; T12:59"			Cloudy	Asia	Japan	"Outside of Osaka Port, Osaka"	34.64027778		135.3858333														"17.9; 16.5; 17.0"	"19.8; 19.4; 19.8"								"3.3; 3.3; 3.2"		"19.5; 19.8; 19.3"	"17.5; 12.5; 12.8"	Sludge	Gray	"Grayish yellow_Light"	Odorless	"None; Shellfish; None"	"54.7; 48.9; 25.1 (Each)/ 58.5 (Mixed)"	"9.1; 8.5; 3.3 (Each)/ 6.6 (Mixed)"									"n=3 pooled: SAA008102, SAA008103, SAA008104"	2021/5/24	2021/5/24
PRA000116	SAA008109	ST024				OsakaCity_sed3-123_2018	Sediment	"River sediment"	2018	11	12	"2018-11-12T13:23; T13:38; T13:55"			"Rain; Cloudy; Cloudy"	Asia	Japan	"Mouth of Riv. Yodo, Osaka"	34.67638889		135.3975														"16.1; 15.8; 15.7 "	"19.2; 19.8; 19.7"								"2.3; 3.1; 2.9"		"19.0; 20.0; 20.0"	"6.5; 5.2; 4.1"	Sludge	Gray	"Grayish yellow_Light"	Odorless	"Vegetative pieces"	"32.7; 32.0; 50.8 (Each)/ 50.8 (Mixed)"	"6.8; 6.8; 11.9 (Each); 7.9 (Mixed)"									"n=3 pooled: SAA008106, SAA008107, SAA008108"	2021/5/24	2021/5/24
PRA000116	SAA008110	ST023				Hyogo_sed1-123_2018	Sediment	"Marine sediment"	2018	10	18	"2018-10-18T11:29; T11:13; T10:59"			Fair	Asia	Japan	"Offshore of Himeji, Hyogo"	34.76194444		134.6697222														"21.8; 21.8; 22.0"	"23.9; 23.5; 23.3"								"2.0; 2.1; 2.2"		"23.0; 23.1; 23.5"	"11.0; 10.0; 8.0"	Silt	"Gray green"	"Greenish brown"	"Hydrogen sulfide odor_Faint"	None											"n=3 pooled: SAA007672, SAA007673, SAA007674"	2021/5/24	2021/5/24
PRA000116	SAA008114	ST023				Hyogo_sed2-123_2018	Sediment	"Marine sediment"	2018	11	1	"2018-11-01T10:30; T11:05; T11:18"			Fair	Asia	Japan	"Center of Kobe Port, Hyogo"	34.66444444		135.1944444														"16.0; 20.0; 17.0"	"21.0; 19.0; 19.0"								"2.3; 2.7; 2.5"		"20.5; 21.0; 20.5"	"10.7; 10.4; 13.2"	Silt	"Gray black"	"Greenish brown"	"Hydrogen sulfide odor_Faint"	None	"52.6; 46.4; 57.2 (Each)/ 63.5(Mixed)"	"8.7; 8.4; 9.6 (Each)/ 7.9(Mixed)"									"n=3 pooled: SAA008111, SAA008112, SAA008113"	2021/5/24	2021/5/24
PRA000116	SAA008115	ST024				Nara_sed1-123_2018	Sediment	"River sediment"	2018	10	2	"2018-10-02T10:40; T10:40;T10:40"			Fair	Asia	Japan	"Riv. Yamato (Oji Town), Nara"	34.58583333		135.6833333														"24.0; 24.0; 24.0 "	"19.0; 19.0; 19.0"										"19.5; 19.0; 20.0"	0.3	"Muddy; Sandy; Sandy"	"Blackish brown; Brown; Brown"	"Yellowish brown_Light"	"Earthy odor; Sewage odor; Swampy odor"	None	"27.0; 10.0; 10.0 (Each)/ 21.7 (Mixed)"	"1.8; 0.4; 0.4 (Each)/ 0.8 (Mixed)"									"n=3 pooled: SAA007947, SAA007948, SAA007949"	2021/5/24	2021/5/24
PRA000116	SAA008116	ST024				Wakayama_sed1-123_2018	Sediment	"River sediment"	2018	11	13	"2018-11-13T14:40; T13:45; T13:05"			Cloudy	Asia	Japan	"Kinokawa-ohashi Bridge, Mouth of Riv. Kinokawa (Wakayama City), Wakayama"	34.23		135.1561111														"18.7; 19.3; 18.0"	"20.1; 20.8; 20.4"								"2.0; 2.0; 3.0"		"20.8; 20.2; 20.6"	"3.5; 5.3; 3.9"	"Sandy; Sandy; Sandy (partly muddy)"	"Gray; Gray; Gray brown"	"Greenish blue"	"Seaweed odor"	"None; Pebble; Shell"	"20.7; 18.8; 18.7 (Each)/ 20.5 (Mixed)"	"1.8; 1.5; 2.2 (Each)/ 1.5 (Mixed)"									"n=3 pooled: SAA007950, SAA007951, SAA007952"	2021/5/24	2021/5/24
PRA000116	SAA008117	ST023				Okayama_sed1-123_2018	Sediment	"Marine sediment"	2018	11	13	"2018-11-13T11:00; T11:20; T12:05"			Cloudy	Asia	Japan	"Offshore of Mizushima, Okayama"	34.48055556		133.665														"18.0; 18.0; 18.0"	"19.0; 19.0; 19.0"								"1.8; 1.8; 1.8"		"19.7; 19.7; 19.6"	"11.0; 11.4; 9.0"	Ooze	"Gray green"	"Yellow green_Dark"	"Earthy odor"	"Small pieces of shell"	"46.1; 48.9; 48.5 (Each)/ 44.5 (Mixed)"	"5.8; 6.4; 6.3 (Each)/ 5.2 (Mixed)"									"n=3 pooled: SAA007678, SAA007679, SAA007680"	2021/5/24	2021/5/24
PRA000116	SAA008121	ST023				Hiroshima_sed1-123_2018	Sediment	"Marine sediment"	2018	11	13	"2018-11-13T09:53; T10:24; T10:36"			Fair	Asia	Japan	"Kure Port, Hiroshima"	34.23361111		132.5391667														"16.7; 17.6; 17.2"	"19.8; 19.9; 19.9"								"6.0; 6.0; 7.0"		"20.0; 19.8; 20.1"	"19.8; 18.0; 20.0"	Silt	"Gray green_dark"	"Blue green_Dark"	"None; Hydrogen sulfide odor; Hydrogen sulfide odor"	None	"60.2; 61.3; 66.7 (Each)/ 71.6 (Mixed)"	"12.7; 12.3; 12.8 (Each)/ 11.0 (Mixed)"									"n=3 pooled: SAA008118, SAA008119, SAA008120"	2021/5/24	2021/5/24
PRA000116	SAA008125	ST023				Hiroshima_sed2-123_2018	Sediment	"Marine sediment"	2018	11	13	"2018-11-13T13:01; T13:42; T13:52"			Cloudy	Asia	Japan	"Hiroshima Bay (Hiroshima City), Hiroshima"	34.34833333		132.4225														"17.9; 17.8; 17.5"	"19.9; 20.4; 20.2"								"7.0; 3.0; 5.0"		"19.8; 20.0; 20.1"	"13.0; 13.0; 14.0"	Silt	"Gray brown_dark"	"Blue green_Dark"	None	None	"56.5; 56.8; 58.6 (Each)/ 66.8 (Mixed)"	"11.8; 11.8; 12.1 (Each)/ 10.1 (Mixed)"									"n=3 pooled: SAA008122, SAA008123, SAA008124"	2021/5/24	2021/5/24
PRA000116	SAA008126	ST023				Yamaguchi_sed1-123_2018	Sediment	"Marine sediment"	2018	10	19	"2018-10-19T13:45; T13:55; T14:04"			Fair	Asia	Japan	"Tokuyama Bay, Yamaguchi"	33.99361111		131.7505556														"21.5; 21.5; 21.5"	"21.3; 21.3; 21.3"								"6.5; 6.5; 6.5"		"19.0; 19.0; 19.0"	"23.0; 23.0; 23.0"	Silt	"Gray yellow green"	"Blue green"	"Hydrogen sulfide odor_Faint"	None	"61.0; 57.8; 56.7 (Each)/ 66.2 (Mixed)"	"10.7; 10.3; 10.0 (Each)/ 8.1 (Mixed)"									"n=3 pooled: SAA007681, SAA007682, SAA007683"	2021/5/24	2021/5/24
PRA000116	SAA008130	ST023				Yamaguchi_sed2-123_2018	Sediment	"Marine sediment"	2018	10	12	"2018-10-12T10:53; T11:01; T11:10"			Fair	Asia	Japan	"Offshore of Ube, Yamaguchi"	33.915		131.1975														"20.0; 20.0; 20.0"	"21.8; 21.8; 21.8"								"4.0; 4.0; 4.0"		"19.0; 19.0; 19.0"	"9.8; 9.8; 9.8"	Silt	"Gray green"	"Gray green"	None	None	"38.8; 36.3; 32.0 (Each)/ 43.8 (Mixed)"	"7.6; 7.4; 7.2 (Each)/ 6.3 (Mixed)"									"n=3 pooled: SAA008127, SAA008128, SAA008129"	2021/5/24	2021/5/24
PRA000116	SAA008131	ST023				Yamaguchi_sed3-123_2018	Sediment	"Marine sediment"	2018	11	1	"2018-11-01T11:15; T11:25; T11:36"			Fair	Asia	Japan	"Offshore of Hagi, Yamaguchi"	34.43805556		131.3794444														"20.0; 20.0; 20.0"	"20.9; 20.9; 20.9"								"9.0; 9.0; 9.0"		"20.0; 20.0; 20.0"	"26.4; 26.4; 26.4"	"Fine sand"	"Light gray"	"Blue green"	Odorless	None	"35.7; 34.2; 33.7 (Each)/ 30.7 (Mixed)"	"5.8; 5.8; 5.8 (Each)/ 3.9 (Mixed)"									"n=3 pooled: SAA007684, SAA007685, SAA007686"	2021/5/24	2021/5/24
PRA000116	SAA008135	ST024				Tokushima_sed1-123_2018	Sediment	"River sediment"	2018	10	16	"2018-10-16T09:30; T09:00; T09:55"			Cloudy	Asia	Japan	"Mouth of Riv. Yoshino (Tokushima City), Tokushima"	34.085		134.5913889														"19.8; 18.5; 19.0"	"19.5; 19.4; 20.1"								"2.0; 2.5; 2.0"		"19.7; 22.0; 21.2"	"6.3; 4.6; 6.2"	Sandy	"Gray black"	Green_Dark	Odorless	None	"16.0; 17.0; 20.0 (Each)/ 21.4 (Mixed)"	"1.2; 1.3; 1.3 (Each)/ 1.1 (Mixed)"									"n=3 pooled: SAA008132, SAA008133, SAA008134"	2021/5/24	2021/5/24
PRA000116	SAA008136	ST023				Kagawa_sed1-123_2018	Sediment	"Marine sediment"	2018	10	23	"2018-10-23T09:05; T09:20; T09:36"			Cloudy	Asia	Japan	"Takamatsu Port, Kagawa"	34.34972222		134.0788889														"20.8; 21.0; 20.0"	"22.3; 22.2; 22.2"								"2.0; 1.5; 2.0"		"22.2; 22.2; 22.5"	"2.4; 6.1; 5.5"	"Muddy; Sandy; Muddy"	"Black; Olive black; Black"	"Green; Green; Green"	"Hydrogen sulfide odor; Fish odor; Hydrogen sulfide odor"	"Mostly vegetative pieces; partly pieces of plastics and shell; Mostly vegetative pieces; partly pieces of shell; None"	"57.2; 25.1; 36.7 (Each)/ 46.2 (Mixed)"	"14.8; 1.7; 5.9 (Each)/ 5.3 (Mixed)"									"n=3 pooled: SAA007953, SAA007954, SAA007955"	2021/5/24	2021/5/24
PRA000116	SAA008137	ST023				Ehime_sed1-123_2018	Sediment	"Marine sediment"	2018	10	29	"2018-10-29T10:30; T10:40; T10:50"			Fair	Asia	Japan	"Niihama Port, Ehime"	33.98777778		133.3144444														"22.5; 22.5; 22.5"	"21.0; 21.0; 21.0"								"2.0; 2.0; 2.0"		"19.6; 19.6; 19.6"	"7.3; 7.3; 7.3"	"Fine sand"	"Gray green_dark"	"Yellow green_Dark"	Odorless	None	"31.7; 32.6; 31.0 (Each)/ 36.8 (Mixed)"	"2.5; 2.5; 2.5 (Each)/ 3.3 (Mixed)"									"n=3 pooled: SAA007957, SAA007958, SAA007959"	2021/5/24	2021/5/24
PRA000116	SAA008141	ST024				Kochi_sed1-123_2018	Sediment	"River sediment"	2018	10	11	"2018-10-11T08:45; T09:38; T11:05"			Cloudy	Asia	Japan	"Mouth of Riv. Shimanto (Shimanto City), Kochi"	32.93777778		132.8441667														"19.8; 21.2; 18.0"	"19.7; 21.0; 20.0"										"23.2; 22.5; 19.8"	"6.9; 7.0; 0.5"	"Muddy; Muddy; Sandy"	"Blackish brown; Blackish brown; Gray brown"	Clear	"Earthy odor_Faint; Hydrogen sulfide odor_Faint; Odorless"	"branches; Shell; Branches; Pebbles; Pebbles"	"37.7; 32.3; 21.2 (Each)/ 39.0 (Mixed)"	"9.2; 5.5; 2.8 (Each)/ 5.0 (Mixed)"									"n=3 pooled: SAA008138, SAA008139, SAA008140"	2021/5/24	2021/5/24
PRA000116	SAA008142	ST023				KitakyushuCity_sed1-123_2018	Sediment	"Marine sediment"	2018	10	30	"2018-10-30T10:30; T10:10; T09:45"			Fair	Asia	Japan	"Dokai Bay (Kitakyushu City), Fukuoka"	33.90388889		130.8158333														"19.1; 19.1; 19.1"	"19.9; 19.9; 19.9"								"3.5; 3.5; 3.5"		"18.6; 19.1; 19.5"	"9.9; 10.3; 7.2"	Mud	Black	Clear	Odorless	None	"50.8; 55.7; 62.6 (Each)/ 50.2 (Mixed)"	"9.1; 10.2; 20.6 (Each)/ 8.6 (Mixed)"									"n=3 pooled: SAA007687, SAA007688, SAA007689"	2021/5/24	2021/5/24
PRA000116	SAA008143	ST023				FukuokaCity_sed1-123_2018	Sediment	"Marine sediment"	2018	10	16	"2018-10-16T09:05; T09:18; T09:28"			Fair	Asia	Japan	"Hakata Bay, Fukuoka"	33.60833333		130.3297222														"18.9; 19.3; 20.2"	"21.5; 21.5; 21.5"								"3.2; 3.3; 3.5"		"22.0; 23.0; 22.5"	"7.4; 7.7; 7.8"	Silt	Gray	Green_Dark	Odorless	None	"41.0; 43.0; 42.0 (Each)/ 53.7 (Mixed)"	"9.6; 9.1; 9.5 (Each)/ 8.4 (Mixed)"									"n=3 pooled: SAA007960, SAA007961, SAA007962"	2021/5/24	2021/5/24
PRA000116	SAA008144	ST023				Saga_sed1-123_2018	Sediment	"Marine sediment"	2018	10	31	"2018-10-31T11:02; T11:21; T11:40"			Cloudy	Asia	Japan	"Imari Bay, Saga"	33.34		129.8208333														"14.0; 14.0; 14.0"	"18.5; 18.5; 18.5"								"2.5; 2.8; 2.9"		"20.0; 20.0; 20.0"	"13.9; 14.4; 15.3"	Muddy	"Gray black"	Clear	"Earthy odor"	None	"63.3; 64.0; 61.1 (Each)/ 63.9 (Mixed)"	"11.5; 11.3; 10.7 (Each)/ 9.3 (Mixed)"									"n=3 pooled: SAA007963, SAA007964, SAA007965"	2021/5/24	2021/5/24
PRA000116	SAA008148	ST023				Nagasaki_sed1-123_2018	Sediment	"Marine sediment"	2018	10	22	"2018-10-22T14:05; T14:28; T14:40"			Fair	Asia	Japan	"Omura Bay, Nagasaki"	32.98833333		129.8522222														"24.5; 24.5; 24.5"	"22.8; 22.9; 22.8"								"7.0; 7.0; 7.0"		"22.5; 22.5; 22.5"	"19.5; 19.6; 19.5"	Mud	"Gray yellow; Gray black; Gray yellow"	"Greenish blue_Light; Greenish blue_Light; Greenish blue_Light"	"Odorless; Sulfide odor_weak; Odorless"	"None; None; Shell"	"68.0; 68.0; 68.0 (Each)/ 68.4 (Mixed)"	"12.0; 12.0; 12.0 (Each)/ 12.6 (Mixed)"									"n=3 pooled: SAA008145, SAA008146, SAA008147"	2021/5/24	2021/5/24
PRA000116	SAA008149	ST024				Oita_sed1-123_2018	Sediment	"River sediment"	2018	11	19	"2018-11-19T10:15; T09:47; T10:40"			Cloudy	Asia	Japan	"Mouth of Riv. Oita, Oita"	33.25722222		131.6175														"18.1; 15.6; 16.3"	"17.5; 17.4; 16.7"										"19.7; 20.0; 20.0"	"2.6; 3.5; 3.0"	Sandy	Black	"Grayish green_Dark"	Odorless	"Pieces of shell; shell; Gravels; pieces of wood"	"20.1; 21.2; 19.1 (Each)/ 20.5 (Mixed)"	"1.2; 1.2; 1.0 (Each)/ 1.0 (Mixed)"									"n=3 pooled: SAA007966, SAA007967, SAA007968"	2021/5/24	2021/5/24
PRA000116	SAA008153	ST024				Miyazaki_sed1-123_2018	Sediment	"River sediment"	2018	10	24	"2018-10-24T11:40; T11:48; T12:00"			Fair	Asia	Japan	"Mouth of Riv. Oyodo (Miyazaki City), Miyazaki"	31.89611111		131.4402778														"24.0; 24.0; 24.0"	"20.7; 20.0; 21.0"										"20.8; 20.0; 21.0"	"0.3; 0.6; 0.6"	"Sand; Stones; Pebbles; Sand; Pebbles; Sand"	"Gray black_Light"	Clear	Odorless	"None; None; Bubble"	"17.9; 21.0; 19.8 (Each)/ 19.2 (Mixed)"	"1.2; 1.1; 1.3 (Each)/ 1.0 (Mixed)"									"n=3 pooled: SAA008150, SAA008151, SAA008152"	2021/5/24	2021/5/24
PRA000116	SAA008157	ST024				Kagoshima_sed1-123_2018	Sediment	"River sediment"	2018	9	25	"2018-09-25T11:20; T10:40; T10:09"			Fair	Asia	Japan	"Riv. Amori (Kirishima City), Kagoshima"	31.7225		130.7416667														"23.7; 25.8; 26.8"	"23.0; 23.3; 22.8"										"23.4; 24.3; 22.6"	"0.3; 0.5; 0.6"	Gravel	"Blackish brown"	Clear	"Sewage odor_Faint; Earthy odor_Faint; Odorless"	Pebble	"21.0; 15.0; 17.0 (Each)/ 22.5 (Mixed)"	"1.3; 0.7; 1.0 (Each)/ 0.9 (Mixed)"									"n=3 pooled: SAA008154, SAA008155, SAA008156"	2021/5/24	2021/5/24
PRA000116	SAA008161	ST024				Kagoshima_sed2-123_2018	Sediment	"River sediment"	2018	9	13	"2018-09-13T12:00; T11:11; T10:21"			Fair	Asia	Japan	"Gotanda-bashi Bridge, Riv. Gotanda (Ichikikushikino City), Kagoshima"	31.72583333		130.2769444														"29.3; 29.6; 27.8"	"29.2; 27.0; 26.0"										"27.7; 26.9; 25.4"	"0.2; 0.4; 0.2"	Gravel	"Blackish brown"	Clear	"Earthy odor_Faint"	Pebble	"17.0; 16.0; 16.0 (Each)/ 21.9 (Mixed)"	"1.6; 1.3; 2.4 (Each)/ 1.6 (Mixed)"									"n=3 pooled: SAA008158, SAA008159, SAA008160"	2021/5/24	2021/5/24
PRA000116	SAA008165	ST023				Okinawa_sed1-123_2018	Sediment	"Marine sediment"	2018	11	6	"2018-11-06T11:30; T10:40; T12:00"			Fair	Asia	Japan	"Naha Port, Okinawa"	26.21222222		127.665														"30.0; 29.0; 28.0"	"25.6; 26.2; 24.9"								"1.5; 1.5; 4.4"		"26.1; 27.1; 25.5"	"7.3; 7.8; 7.7"	Sludge	"Gray black"	Clear	"Hydrogen sulfide odor; Sewage odor"	"Pieces of wood; Shell; Vinyl pieces; Pieces of wood; Coral pieces; Vinyl pieces; Pieces of wood; Coral pieces"	"44.0; 47.6; 33.5 (Each)/ 48.2 (Mixed)"	"10.5; 12.4; 8.9 (Each)/ 8.7 (Mixed)"									"n=3 pooled: SAA008162, SAA008163, SAA008164"	2021/5/24	2021/5/24
PRA000120	SAA008434	ST015				Hokkaido_w3_2019	Water	"River water"	2019	11	21	2019-11-21T14:00			Cloudy	Asia	Japan	"Ishikarikakokyo Bridge, Mouth of Riv. Ishikari (Ishikari City), Hokkaido"	43.22861111		141.3519444														"2.1 "	"2.9 "	"8.2 "	"14 "	"26 "			"3 "			"Grayish brown"																			2022/6/2	2022/6/2
PRA000120	SAA008439	ST015				Iwate_w1-1_2019	Water	"River water"	2019	12	4	2019-12-04T10:25			Fair	Asia	Japan	"Toyosawa-bashi Bridge, Riv. Toyosawa (Hanamaki City), Iwate"	39.38166667		141.1191667														"6.0 "	"6.0 "	"7.4 "	"12 "	"0 "			"6 "			"Light green"																			2022/6/2	2022/6/2
PRA000120	SAA008736	ST014				Miyagi_w3_2019	Water	"Sea water"	2019	10	15	2019-10-15T10:18			Fair	Asia	Japan	"Sendai Bay (Matsushima Bay), Miyagi"	"38.3533333 "		"141.0975000 "														"16.7 "	"18.0 "	"7.5 "	"8 "	"3,100 "			"3 "		"0.6 "	Clear																			2022/6/2	2022/6/2
PRA000120	SAA008737	ST015				Akita_w3_2019	Water	"Lake water"	2019	10	21	2019-10-21T09:54			Fair	Asia	Japan	"Lake Hachiro, Akita"	"39.9227778 "		"139.9988889 "														"20.0 "	"16.4 "	"8.8 "	"13 "	"29 "			"22 "		"0.5 "	"Light Greenish brown"																			2022/6/2	2022/6/2
PRA000120	SAA008444	ST015				Yamagata_w1-1_2019	Water	"River water"	2019	12	11	2019-12-11T09:10			Fair	Asia	Japan	"Mouth of Riv. Mogami, Yamagata"	38.88722222		139.8433333														"8.7 "	"5.0 "	"7.0 "	"12 "	"11 "			"4 "			"Light yellow green"																			2022/6/2	2022/6/2
PRA000120	SAA008738	ST014				Fukushima_w1_2019	Water	"Sea water"	2019	11	12	2019-11-12T11:20			Fair	Asia	Japan	"Onahama Port, Fukushima"	"36.92472222 "		"140.87527780 "														"20.2 "	"18.0 "	"8.0 "	"7.6 "	"4,700 "			"5 "		"4.0 "	Clear																			2022/6/2	2022/6/2
PRA000120	SAA008447	ST015				Ibaraki_w2_2019	Water	"River water"	2019	12	10	2019-12-10T10:00			Cloudy	Asia	Japan	"Kamome-ohasi Bridge, Mouth of Riv. Tone (Kamisu City), Ibaraki"	35.77638889		140.7569444														"14.3 "	"12.4 "	"5.3 "	"8.6 "	"20 "			"2 "			Clear																			2022/6/2	2022/6/2
PRA000120	SAA008449	ST015				Tochigi_w1-2_2019	Water	"River water"	2019	10	30	2019-10-30T10:50			Cloudy	Asia	Japan	"Tagawa area-Toshuko Weir (Utsunomiya City), Tochigi"	"36.52805556 "		"139.88555560 "														"17.0 "	"16.0 "	"7.4 "	"9.9 "	"17 "			"4 "			Clear																			2022/6/2	2022/6/2
PRA000120	SAA008739	ST015				Gunma_w8_2019	Water	"River water"	2019	10	24	2019-10-24T11:50			Cloudy	Asia	Japan	"Upstream of Tone-Ozeki, Riv. Tone (Chiyoda machi), Gunma"	"36.20611111 "		"139.43416670 "														"17.5 "		"7.4 "	"8.9 "				"71 "			"Light Brown"																			2022/6/2	2022/6/2
PRA000120	SAA008451	ST015				Saitama_w2_2019	Water	"River water"	2019	11	27	2019-11-27T10:40			Cloudy	Asia	Japan	"Akigase-Shusuizeki Weir, Riv. Ara (Shiki City), Saitama"	35.84055556		139.6044444														"10.1 "	"13.3 "	"7.6 "	"10 "	"22 "			"8 "			"Light grayish green"																			2022/6/2	2022/6/2
PRA000120	SAA008740	ST015				ChibaCity_w1_2019	Water	"River water"	2019	11	7	2019-11-07T10:40			Fair	Asia	Japan	"Mouth of Riv. Hanami (Chiba City), Chiba"	35.63472222		140.04694440														"16.0 "	"19.2 "	"7.5 "	"6.8 "	"2,700 "			<1			Clear																			2022/6/2	2022/6/2
PRA000120	SAA008456	ST015				Tokyo_w1_2019	Water	"River water"	2019	12	18	2019-12-18T10:25			Fair	Asia	Japan	"Mouth of Riv. Arakawa (Koto Ward), Tokyo"	35.64583333		139.8463889														"12.8 "	"14.6 "	"7.5 "	"8.2 "	"4,480 "			"3 "		"1.9 "	"Yellow green"																			2022/6/2	2022/6/2
PRA000120	SAA008457	ST015				Tokyo_w2_2019	Water	"River water"	2019	12	18	2019-12-18T13:00			Cloudy	Asia	Japan	"Mouth of Riv. Sumida (Minato Ward), Tokyo"	35.66		139.7705556														"16.3 "	"15.9 "	"8.1 "	"6.1 "	"4,450 "			"1 "		"4 "	"Dark green"																			2022/6/2	2022/6/2
PRA000120	SAA008459	ST014				YokohamaCity_w3_2019	Water	"Sea water"	2019	11	27	2019-11-27T10:00			Rain	Asia	Japan	"Yokohama Port, Kanagawa"	35.45555556		139.6636111														"9.0 "	"16.5 "	"8.0 "	"6.8 "				"3 "		"5.5 "	Clear																			2022/6/2	2022/6/2
PRA000120	SAA008741	ST014				KawasakiCity_w2-2_2019	Water	"Sea water"	2019	11	27	2019-11-27T11:15			"Light rain"	Asia	Japan	"Keihin Canal, Kawasaki Port, Kanagawa (front of Ogimachi)"	35.49527778		139.7277778														"9.4 "	"17.2 "	"7.9 "	"7.3 "	"4,300 "			"6 "		"4.2 "	"Grayish green"																			2022/6/2	2022/6/2
PRA000120	SAA008463	ST015				Niigata_w2_2019	Water	"River water"	2019	12	4	2019-12-04T09:40			Rain	Asia	Japan	"Downstream of Riv. Shinano (Niigata City), Niigata"	37.88305556		139.0155556														"7.5 "	"8.0 "	"6.9 "	"11 "	"11 "			"30 "			"yellowish brown"																			2022/6/2	2022/6/2
PRA000120	SAA008742	ST015				Toyama_w2_2019	Water	"River water"	2019	12	10	2019-12-10T11:28			Fair	Asia	Japan	"Hagiura-bashi Bridge, Mouth of Riv. Jintsu (Toyama City), Toyama"	"36.745 "		"137.21805560 "														"15.5 "	"8.3 "	"7.5 "	"11 "	"42 "			"1 "			Clear																			2022/6/2	2022/6/2
PRA000120	SAA008743	ST015				Ishikawa_w1-2_2019	Water	"River water"	2019	10	23	2019-10-23T09:23			Fair	Asia	Japan	"Mouth of Riv. Sai (Kanazawa City), Ishikawa"	36.60027778		136.5888889														"21.9 "	"17.5 "	"7.3 "	"9.0 "	"110 "			"6 "			Green																			2022/6/2	2022/6/2
PRA000120	SAA008618	ST015				Fukui_w1_2019	Water	"River water"	2019	10	23	2019-10-23T10:50			Fair	Asia	Japan	"Mishima-bashi Bridge, Riv. Shono (Tsuruga City), Fukui"	35.6475		136.0627778														25.4	"22.5 "	"7.4 "	"9.4 "	8			"< 1.0"			Clear																			2022/6/2	2022/6/2
PRA000120	SAA008467	ST015				Nagano_w2_2019	Water	"Lake water"	2019	12	3	2019-12-03T09:30			Fair	Asia	Japan	"Center of Lake Suwa, Nagano"	36.05		138.0861111														"5.4 "	"8.0 "	"7.5 "	"9.6 "	"13 "			"3 "		"1.7 "	"Light yellow green"																			2022/6/2	2022/6/2
PRA000120	SAA008469	ST015				Shizuoka_w7_2019	Water	"River water"	2019	11	27	2019-11-27T10:30			Cloudy	Asia	Japan	"Kaketsuka-bashi Bridge, Riv. Tenryu (Iwata City), Shizuoka"	34.67888889		137.7958333														"17.5 "	"12.5 "	"7.6 "	"11 "	"13 "			"4 "			"Light white"																			2022/6/2	2022/6/2
PRA000120	SAA008744	ST014				Aichi_w2-2_2019	Water	"Sea water"	2019	12	11	2019-12-11T12:10			Fair	Asia	Japan	"Nagoya Port, West of Shiomi Wharf, Aichi"	35.07111111		136.8691667														"14.2 "	"16.6 "	"8.1 "	"8.4 "	"4,500 "			"2 "		"2.5 "	Clear																			2022/6/2	2022/6/2
PRA000120	SAA008474	ST014				Mie_w1_2019	Water	"Sea water"	2019	11	28	2019-11-28T10:10			Cloudy	Asia	Japan	"Yokkaichi Port, Mie"	34.94944444		136.6530556														"12.0 "	"17.0 "	"8.1 "	"7.2 "	"4,500 "			"2 "		"3.1 "	"Greenish brown"																			2022/6/2	2022/6/2
PRA000120	SAA008479	ST015				Shiga_w2-2_2019	Water	"Lake water"	2019	11	19	2019-11-19T09:50			Fair	Asia	Japan	"Lake Biwa (center, offshore of Karasaki), Shiga"	35.04611111		135.8955556														"18.7 "	"15.2 "	"8.0 "	"9.8 "	"13 "			"3 "		"3.0 "	"Yellow green"																			2022/6/2	2022/6/2
PRA000120	SAA008480	ST014				Kyoto_w1_2019	Water	"Sea water"	2020	1	8	2020-01-08T10:35			Cloudy	Asia	Japan	"Miyazu Port, Kyoto"	35.58305556		135.2138889														"17.0 "	"13.9 "	"8.5 "	"5.2 "				"2 "		"6.0 "	Clear																			2022/6/2	2022/6/2
PRA000120	SAA008482	ST015				KyotoCity_w1-1_2019	Water	"River water"	2019	11	28	2019-11-28T10:00			Cloudy	Asia	Japan	"Miyamae-bashi Bridge, Riv. Katsura (Kyoto City), Kyoto"	34.905		135.7125														"10.0 "	"15.2 "	"7.3 "	"9.0 "	"17 "			"4 "			Clear																			2022/6/2	2022/6/2
PRA000120	SAA008483	ST015				Osaka_w1_2019	Water	"River water"	2019	12	5	2019-12-05T09:38			Fair	Asia	Japan	"Mouth of Riv. Yamato (Sakai City), Osaka"	34.60833333		135.4325														"11.6 "	"12.5 "	"7.8 "	"8.1 "				"10 "		"1.5 "	"Light yellow"																			2022/6/2	2022/6/2
PRA000120	SAA008485	ST014				OsakaCity_w2_2019	Water	"Sea water"	2019	12	3	2019-12-03T08:11			Fair	Asia	Japan	"Osaka Port, Osaka"	34.65861111		135.4313889														"10.2 "	"13.8 "	"7.6 "	"8.1 "	"1,690 "			"2 "		"3.5 "	"Light grayish yellow"																			2022/6/2	2022/6/2
PRA000120	SAA008486	ST014				Hyogo_w3_2019	Water	"Sea water"	2019	11	13	2019-11-13T10:47			Fair	Asia	Japan	"Offshore of Himeji, Hyogo"	34.76194444		134.6697222														"17.4 "	"19.8 "	"8.3 "	"6.9 "	"2,300 "			"5 "		"8.0 "	"Dark green"																			2022/6/2	2022/6/2
PRA000120	SAA008487	ST014				Kobe_w1_2019	Water	"Sea water"	2019	12	10	2019-12-10T09:53			Fair	Asia	Japan	"Center of Kobe Port, Hyogo"	34.66444444		135.1944444														"15.2 "	"14.3 "	"7.6 "	"8.0 "				"1 "		"6.6 "	"Greenish brown"																			2022/6/2	2022/6/2
PRA000120	SAA008745	ST015				Wakayama_w1-2_2019	Water	"River water"	2019	10	31	2019-10-31T14:20			Fair	Asia	Japan	"Kinokawa-ohashi Bridge, Mouth of Riv. Kinokawa (Wakayama City), Wakayama"	34.23		135.1561111														"20.9 "	"19.2 "	"6.8 "	"8.2 "	"950 "			"7 "		"1.5 "	Green																			2022/6/2	2022/6/2
PRA000120	SAA008491	ST014				Okayama_w2_2019	Water	"Sea water"	2019	10	23	2019-10-23T10:35			Fair	Asia	Japan	"Offshore of Mizushima, Okayama"	34.48055556		133.665														"23.6 "	"22.0 "	"8.0 "	"6.7 "	"6,500 "			"6 "		"1.5 "	"Dark Yellow green"																			2022/6/2	2022/6/2
PRA000120	SAA008746	ST014				Hiroshima_w2_2019	Water	"Sea water"	2019	11	13	2019-11-13T09:58			Fair	Asia	Japan	"Kure Port, Hiroshima"	"34.23361111 "		"132.5391667 "														"17.2 "	"20.7 "	"8.1 "	"7.1 "				"1 "		"7.0 "	"Dark Bluish green"																			2022/6/2	2022/6/2
PRA000120	SAA008747	ST014				Hiroshima_w3_2019	Water	"Sea water"	2019	11	13	2019-11-13T12:23			Fair	Asia	Japan	"Hiroshima Bay (Hiroshima City), Hiroshima"	"34.34833333 "		"132.4225 "														"18.2 "	"21.0 "	"8.2 "	"7.9 "				"2 "		"5.0 "	"Dark Bluish green"																			2022/6/2	2022/6/2
PRA000120	SAA008492	ST014				Yamaguchi_w1-1_2019	Water	"Sea water"	2019	11	12	2019-11-12T12:25			Fair	Asia	Japan	"Tokuyama Bay, Yamaguchi"	33.99361111		131.7505556														"20.0 "	"22.4 "	"8.0 "	"5.9 "				"2 "		"7.0 "	"Bluish green"																			2022/6/2	2022/6/2
PRA000120	SAA008748	ST014				Yamaguchi_w3_2019	Water	"Sea water"	2019	11	13	2019-11-13T11:30			Fair	Asia	Japan	"Offshore of Ube, Yamaguchi"	33.915		131.1975														"20.9 "	"20.1 "	"8.2 "	"5.9 "				"2 "		"4.0 "	"Grayish green"																			2022/6/2	2022/6/2
PRA000120	SAA008494	ST014				Yamaguchi_w2-1_2019	Water	"Sea water"	2019	11	22	2019-11-22T11:20			Cloudy	Asia	Japan	"Offshore of Hagi, Yamaguchi"	34.43805556		131.3794444														"14.5 "	"19.5 "	"8.2 "	"7.0 "				"1 "		"15 "	"Bluish green"																			2022/6/2	2022/6/2
PRA000120	SAA008749	ST015				Tokushima_w1_2019	Water	"River water"	2019	11	12	2019-11-12T11:10			Fair	Asia	Japan	"Mouth of Riv. Yoshino (Tokushima City), Tokushima"	34.085		134.5913889														"21.0 "	"18.8 "	"8.0 "	"7.6 "	"3,900 "			"1 "		"3.2 "	Green																			2022/6/2	2022/6/2
PRA000120	SAA008497	ST014				Kagawa_w1_2019	Water	"Sea water"	2019	11	26	2019-11-26T08:55			Fair	Asia	Japan	"Takamatsu Port, Kagawa"	34.34972222		134.0788889														"13.4 "	"15.9 "	"8.1 "	"7.8 "				"7 "		"1.1 "	"Bluish green"																			2022/6/2	2022/6/2
PRA000120	SAA008750	ST015				Kochi_w2_2019	Water	"River water"	2019	10	15	2019-10-15T09:45			Fair	Asia	Japan	"Mouth of Riv. Shimanto (Shimanto City), Kochi"	32.93777778		132.8441667														"26.8 "	"22.2 "	"7.1 "	"8.4 "	"1,900 "			"4 "			Clear																			2022/6/2	2022/6/2
PRA000120	SAA008502	ST014				KitakyushuCity_w1_2019	Water	"Sea water"	2019	11	25	2019-11-25T09:30			Cloudy	Asia	Japan	"Dokai Bay (Kitakyushu City), Fukuoka"	33.90388889		130.8158333														"19.3 "	"17.8 "	"8.1 "	"7.7 "	"4,800 "			"3 "		"4.5 "	Clear																			2022/6/2	2022/6/2
PRA000120	SAA008504	ST014				Saga_w1_2019	Water	"Sea water"	2019	11	29	2019-11-29T10:40			Fair	Asia	Japan	"Imari Bay, Saga"	33.34		129.8208333														"13.0 "	"16.5 "	"8.5 "	"7.7 "	"4,200 "			"17 "		"2.5 "	Clear																			2022/6/2	2022/6/2
PRA000120	SAA008751	ST014				Nagasaki_w1_2019	Water	"Sea water"	2019	10	29	2019-10-29T10:42			Fair	Asia	Japan	"Omura Bay, Nagasaki"	32.98833333		129.8522222														"23.0 "	"22.6 "	"8.2 "	"7.2 "				"4 "		"7.6 "	"Light bluish green"																			2022/6/2	2022/6/2
PRA000120	SAA008752	ST015				Kumamoto_w1_2019	Water	"River water"	2019	10	24	2019-10-24T11:30			Cloudy	Asia	Japan	"Hiraki-bashi Bridge, Riv. Midori (Uto City), Kumamoto"	32.71638889		130.6422222														"23.8 "	"21.2 "	"7.0 "	"7.7 "	"530 "			"16 "			"Light Yellowish brown"																			2022/6/2	2022/6/2
PRA000120	SAA008753	ST015				Miyazaki_w3_2019	Water	"River water"	2019	10	15	2019-10-15T11:46			Fair	Asia	Japan	"Mouth of Riv. Oyodo (Miyazaki City), Miyazaki"	31.89611111		131.4402778														"26.5 "	"23.5 "	"7.6 "	"8.0 "	"980 "			"< 1"			Clear																			2022/6/2	2022/6/2
PRA000120	SAA008754	ST015				Kagoshima_w1_2019	Water	"River water"	2019	11	13	2019-11-13T11:44			Cloudy	Asia	Japan	"Shinkawa-bashi Bridge, Riv. Amori (Kirishima City), Kagoshima"	31.7225		130.7416667														"18.5 "	"18.5 "	"7.7 "	"9.5 "				"2 "			Clear																			2022/6/2	2022/6/2
PRA000120	SAA008755	ST015				Kagoshima_w2_2019	Water	"River water"	2019	11	11	2019-11-11T11:47			Fair	Asia	Japan	"Gotanda-bashi Bridge, Riv. Gotanda (Ichikikushikino City), Kagoshima"	31.72583333		130.2769444														"21.5 "	"18.2 "	"8.1 "	"10 "				"2 "			Clear																			2022/6/2	2022/6/2
PRA000120	SAA008621	ST014				Okinawa_w1_2019	Water	"Sea water"	2020	1	10	2020-01-10T11:40			Cloudy	Asia	Japan	"Naha Port, Okinawa"	26.21222222		127.665														22.4	22.5	"7.9 "	"4.3 "	"4,890 "			"20 "		1.5	Clear																			2022/6/2	2022/6/2
PRA000120	SAA008756	ST024				Hokkaido_sed2-123_2019	Sediment	"River sediment"	2019	11	21	"2019-11-21T14:00; T14:20; T14:40"			"Cloudy; Cloudy; Cloudy"	Asia	Japan	"Ishikarikakokyo Bridge, Mouth of Riv. Ishikari (Ishikari City), Hokkaido"	43.22861111		141.3519444														"2.1; 2.0; 2.1"	"2.9; 2.9; 2.9"										"3.3; 3.0; 3.2"			"Blackish brown; Blackish brown; Blackish brown"	"Gray brown; Gray brown; Gray brown"	"Odorless; Odorless; Odorless"		"47.0; 52.0; 48.0 (Each) / 48.6 (Mixed)"	"6.0; 7.4; 6.2 (Each) / 7.0 (Mixed)"									"n=3 pooled: SAA008622; SAA008623; SAA008624"	2022/7/12	2022/7/12
PRA000120	SAA008757	ST023				Hokkaido_sed3-123_2019	Sediment	"Marine sediment"	2019	9	12	"2019-09-12T10:45; T11:00; T11:10"			"Fair; Fair; Fair"	Asia	Japan	"Tomakomai Port, Hokkaido"	42.63138889		141.6288889														"21.0; 20.6; 21.7"	"21.9; 21.9; 22.0"								"3.5; 3.5; 3.5"		"18.9; 19.2; 19.0"	"16.0; 16.0; 16.0"		"Black; Black; Black"	"Greenish blue; Greenish blue; Greenish blue"	"Hydrogen sulfide odor; Hydrogen sulfide odor; Hydrogen sulfide odor"		"56.0; 41.0; 44.0 (Each) / 47.8 (Mixed)"	"6.4; 3.9; 4.4 (Each) / 5.3 (Mixed)"									n=3	2022/7/12	2022/7/12
PRA000120	SAA008758	ST024				Iwate_sed1-123_2019	Sediment	"River sediment"	2019	12	4	"2019-12-04T10:25; T11:51; T11:53"			"Fair; Cloudy; Cloudy"	Asia	Japan	"Toyosawa-bashi Bridge, Riv. Toyosawa (Hanamaki City), Iwate"	39.38166667		141.1191667														"6.0; 6.0; 6.0"	"6.0; 6.5; 6.5"										"6.0; 5.5; 6.0"	"0.1; 0.1; 0.1"	"Sand mixed with pebbles; Sand mixed with pebbles; Sand mixed with pebbles"	"Brown; Light brown; Light brown"	"Green_Light; Green_Light; Green_Light"	"Odorless; Odorless; Odorless"	"Vegetative pieces; None; Vegetative pieces"	"17.2; 20.0; 17.5 (Each) / 18.6 (Mixed)"	"1.7; 1.6; 1.7 (Each) / 1.5 (Mixed)"									"n=3 pooled: SAA008625; SAA008626; SAA008627"	2022/7/12	2022/7/12
PRA000120	SAA008759	ST023				Miyagi_sed1_123_2019	Sediment	"Marine sediment"	2019	10	15	"2019-10-15T10:18; T11:34; T11:52"			"Fair; Fair; Fair"	Asia	Japan	"Sendai Bay (Matsushima Bay), Miyagi"	38.3533333		141.0975														"16.7; 18.7; 16.6"	"18.0; 18.2; 18.3"								"0.6; 0.7; 0.5"		"18.4; 18.2; 17.5"	"3.4; 3.8; 3.6"	"Muddy; Muddy; Muddy"	"Grayish green; Grayish green; Grayish green"	"Clear; Clear; Clear"	"Seaweed odor_Faint; Seaweed odor_Faint; Seaweed odor_Faint"	"Shell; None; Shell"	"60.1; 49.2; 46.4 (Each) / 63.9 (Mixed)"	"10.8; 8.8; 8.7 (Each) / 8.7 (Mixed)"									n=3	2022/7/12	2022/7/12
PRA000120	SAA008760	ST024				Sendai_sed1_123_2019	Sediment	"River sediment"	2019	11	19	"2019-11-19T14:26; T13:39; T14:15"			"Fair; Fair; Fair"	Asia	Japan	"Hirose-ohashi Bridge, Riv. Hirose (Sendai City), Miyagi"	38.21333333		140.9088889														"17.4; 17.4; 17.4"	"11.9; 11.7; 11.7"										"13.0; 13.0; 13.0"	"25.0; 35.0; 46.0"	"Sandy; Sandy; Sandy"	"Grayish black; Grayish black; Grayish black"	"Clear; Clear; Clear"	"Swampy odor; Swampy odor; Swampy odor"	"None; None; None"	"9.2; 17.0; 16.7 (Each) / 19.1 (Mixed)"	"1.1; 1.0; 1.1 (Each) / 0.9 (Mixed)"									"n=3 pooled: SAA008628; SAA008629; SAA008630"	2022/7/12	2022/7/12
PRA000120	SAA008761	ST024				Akita_sed2-123_2019	Sediment	"Lake sediment"	2019	10	21	"2019-10-21T10:43; T10:21; T11:03"			"Fair; Fair; Fair"	Asia	Japan	"Lake Hachiro, Akita"	39.92277778		139.9988889														"20.5; 20.0; 22.5"	"15.5; 16.4; 16.7"								"0.5; 0.5; 0.5"		"15.4; 15.5; 15.4"	"6.8; 7.1; 7.2"	"Muddy; Muddy; Muddy"	"Grayish black; Grayish black; Grayish black"	"Greenish brown_Light; Greenish brown_Light; Greenish brown_Light"	"Odorless; Odorless; Odorless"	"None; None; None"	"78.8; 76.8; 78.2 (Each) / 76.9 (Mixed)"	"12.2; 12.5; 12.5 (Each) / 8.6 (Mixed)"									n=3	2022/7/12	2022/7/12
PRA000120	SAA008762	ST024				Yamagata_sed1-123_2019	Sediment	"River sediment"	2019	12	11	"2019-12-11T10:30; T10:30; T10:30"			"Fair; Fair; Fair"	Asia	Japan	"Mouth of Riv. Mogami (Sakata City), Yamagata"	38.88722222		139.8433333														"11.5; 11.5; 11.5"	"5.0; 5.0; 5.0"										"6.2; 6.2; 6.2"	"0.3; 0.3; 0.3"	"Fine sand; Fine sand; Fine sand"	"Grayish black; Grayish black; Grayish black"	"Yellow green_Light; Yellow green_Light; Yellow green_Light"	"Earthy odor; Earthy odor; Earthy odor"	"Vegetative pieces; Vegetative pieces; Vegetative pieces"	"38.0; 35.9; 37.4 (Each) / 40.2 (Mixed)"	"5.2; 4.1; 5.0 (Each) / 4.1 (Mixed)"									"n=3 pooled: SAA008632; SAA008633; SAA008634"	2022/7/12	2022/7/12
PRA000120	SAA008763	ST023				Fukushima_sed1-123_2019	Sediment	"Marine sediment"	2019	11	12	"2019-11-12T11:20; T12:20; T12:45"			"Fair; Fair; Fair"	Asia	Japan	"Onahama Port, Fukushima"	36.92472222		140.8752778														"20.2; 20.2; 21.1"	"18.0; 17.7; 17.8"								"4.0; 3.0; 3.5"		"16.8; 15.7; 16.5"	"17.3; 14.3; 14.4"	"Mud; Mud; Mud"	"Grayish green; Grayish green; Grayish green"	"Blue green; Blue green; Blue green"	"Seaweed odor_Faint; Seaweed odor_Faint; Seaweed odor_Faint"	"None; None; None"	"52.4; 52.1; 59.9 (Each) / 56.1 (Mixed)"	"10.0; 11.0; 14.0 (Each) / 8.7 (Mixed)"									n=3	2022/7/12	2022/7/12
PRA000120	SAA008764	ST024				Ibaraki_sed1-123_2019	Sediment	"River sediment"	2019	12	10	"2019-12-10T09:40; T10:00; T10:45"			"Cloudy; Cloudy; Fair"	Asia	Japan	"Kamome-ohasi Bridge, Mouth of Riv. Tone (Kamisu City), Ibaraki"	35.77638889		140.7569444														"12.1; 14.3; 17.7"	"11.2; 12.4; 11.7"											"1.3; 5.3; 2.5"	"Mud; Sandy mud; Mud"	"Black; Black; Black"	"Clear; Clear; Clear"	"Swampy odor_Faint; Swampy odor_Faint; Swampy odor_Faint"	"None; None; None"	"34.0; 24.0; 32.0 (Each) / 35.2 (Mixed)"	"3.9; 1.3; 3.9 (Each) / 3.3 (Mixed)"									"n=3 pooled: SAA008635; SAA008636; SAA008637"	2022/7/12	2022/7/12
PRA000120	SAA008765	ST024				Tochigi_sed1-123_2019	Sediment	"River sediment"	2019	10	30	"2019-10-30T10:00; T11:28; T12:05"			"Cloudy; Cloudy; Fair"	Asia	Japan	"Tagawa area-Toshuko Weir (Utsunomiya City), Tochigi"	36.52805556		139.8855556														"16.0; 19.0; 22.0"	"15.6; 16.0; 17.0"										"17.0; 17.0; 18.2"	"0.30; 0.53; 0.45"	"Gravel; Gravel; Gravel"	"Brown; Brown; Brown"	"Clear; Clear; Clear"	"Odorless; Odorless; Odorless"		"(Each) / 17.8 (Mixed)"	"(Each) / 0.8 (Mixed)"									n=3	2022/7/12	2022/7/12
PRA000120	SAA008766	ST023				Chiba_sed1-123_2019	Sediment	"Marine sediment"	2019	11	27	"2019-11-27T10:16; T10:53; T11:10"			"Rain; Rain; Rain"	Asia	Japan	"Ichihara-Anesaki Coast, Chiba"	35.52166667		140.0283333														"9.8; 10.0; 10.0"	"17.6; 17.6; 17.5"								"5.0; 5.0; 5.0"		"18.0; 17.8; 18.4"	"18.6; 18.8; 18.3"	"Silt; Silt; Silt"	"Olive_Dark; Olive_Dark; Olive_Dark"	"Dark green; Dark green; Dark green"	"Hydrogen sulfide odor; Hydrogen sulfide odor; Hydrogen sulfide odor"	"Few shellfish pieces; Few shellfish pieces; Few shellfish pieces"	"74.1; 74.3; 71.0 (Each) / 81.1 (Mixed)"	"11.8; 11.9; 10.4 (Each) / 10.7 (Mixed)"									"n=3 pooled: SAA008638; SAA008639; SAA008640"	2022/7/12	2022/7/12
PRA000120	SAA008767	ST024				ChibaCity_sed1-123_2019	Sediment	"River sediment"	2019	11	7	"2019-11-07T10:50; T11:15; T11:40"			"Fair; Fair; Fair"	Asia	Japan	"Mouth of Riv. Hanami (Chiba City), Chiba"	35.63472222		140.0469444														"16.0; 18.0; 18.5"	"19.2; 21.0; 20.5"										"19.8; 19.8; 19.6"	"2.0; 1.7; 1.8"	"Muddy; Muddy; Muddy"	"Grayish black; Grayish black; Grayish black"	"Clear; Clear; Clear"	"Seaweed odor; Seaweed odor; Seaweed odor"	"Shellfish; Shellfish; Shellfish"	"23.1; 23.5; 27.3 (Each) / 23.9 (Mixed)"	"1.9; 1.8; 3.3 (Each) / 1.7 (Mixed)"									n=3	2022/7/12	2022/7/12
PRA000120	SAA008768	ST024				Tokyo_sed1-123_2019	Sediment	"River sediment"	2019	12	18	"2019-12-18T10:25; T11:40; T12:05"			"Fair; Cloudy; Cloudy"	Asia	Japan	"Mouth of Riv. Arakawa (Koto Ward), Tokyo"	35.64583333		139.8463889														"12.8: 14.4: 14.6"	"14.6; 16.0; 15.0"								"1.9; 1.9; 1.7"		"15.5; 15.6; 15.4"	"4.6; 3.4; 2.8"	"Silt mixed with fine sand; Silt; Silt mixed with fine sand"	"Olive black; Blackish brown; Blackish brown"	"Yellow green; Dark green; Yellow green"	"Hydrogen sulfide odor; Hydrogen sulfide odor_Faint; Hydrogen sulfide odor_Faint"	"Polychaetes, Seashells; Gammaridea,  Vegetative pieces, Vinyl pieces, Seashells; Gammaridea, Polychaete, Vegetative pieces"	"41.8; 39.0; 34.2 (Each) / 50.4 (Mixed)"	"8.1; 8.0; 7.0 (Each) / 6.7 (Mixed)"									"n=3 pooled: SAA008641; SAA008642; SAA008643"	2022/7/12	2022/7/12
PRA000120	SAA008769	ST024				Tokyo_sed2-123_2019	Sediment	"River sediment"	2019	12	18	"2019-12-18T13:00; T14:00; T14:15"			"Cloudy; Fair; Fair"	Asia	Japan	"Mouth of Riv. Sumida (Minato Ward), Tokyo"	35.66		139.7705556														"16.3; 16.3; 15.5"	"15.9; 15.9; 15.9"								"4.0; 3.3; 2.8"		"17.2; 17.0; 17.2"	"5.1; 5.0; 3.8"	"Silt; Silt; Silt"	"Black; Black; Black"	"Dark green; Dark green; Dark green"	"Hydrogen sulfide odor_Strong; Hydrogen sulfide odor_Strong; Hydrogen sulfide odor_Strong"	"Seashells; Seashells; Seashells; Vegetative pieces"	"54.6; 52.4; 48.0 (Each) / 66.8 (Mixed)"	"12.0; 11.9; 10.4 (Each) / 11.2 (Mixed)"									"n=3 pooled: SAA008644; SAA008645; SAA008646"	2022/7/12	2022/7/12
PRA000120	SAA008770	ST023				Yokohama_sed1-123_2019	Sediment	"Marine sediment"	2019	11	27	"2019-11-27T11:00; T10:00; T11:30"			"Rain; Rain; Rain"	Asia	Japan	"Yokohama Port, Kanagawa"	35.45555556		139.6636111														"9.0; 9.0; 9.0"	"15.8; 16.5; 16.0"								"5.0; 5.5; 5.0"		"17.0; 17.2; 18.0"	"11.3; 12.3; 11.2"	"Muddy; Muddy, Muddy"	"Brown; Brown; Brown"	"Clear; Clear; Clear"	"Hydrogen sulfide odor_Faint; Hydrogen sulfide odor_Faint; Hydrogen sulfide odor_Faint"	"None; None; None"	"67.3; 75.7; 67.8 (Each) / 70.9 (Mixed)"	"11.9; 11.9; 12.0 (Each) / 9.9 (Mixed)"									"n=3 pooled: SAA008647; SAA008648; SAA008649"	2022/7/12	2022/7/12
PRA000120	SAA008771	ST024				KawasakiCity_sed1-123_2019	Sediment	"River sediment"	2019	11	27	"2019-11-27T14:20; T15:02;T14:44"			"Cloudy; Cloudy; Cloudy"	Asia	Japan	"Mouth of Riv. Tama (Kawasaki City), Kanagawa"	35.53		139.7836111														"11.2; 12.6; 11.7"	"14.8; 14.6; 14.6"								"0.4; 0.9; 0.9"		"17.0; 17.3; 17.0"	"3.5; 3.2; 3.5"	"Muddy sand; Muddy sand; Sand"	"Grayish brown; Grayish brown; Grayish brown"	"Gray green; Green_Dark; Green_Dark"	"Sewage odor; Sewage odor_Faint; Sewage odor_Faint"	"Seashells, Vegetative pieces; Seashells, Vegetative pieces; Seashells, Vegetative pieces"	"33.7; 29.3; 21.3 (Each) / 33.9 (Mixed)"	"6.4; 5.9; 2.7 (Each) / 4.8 (Mixed)"									"n=3 pooled: SAA008650; SAA008651; SAA008652"	2022/7/12	2022/7/12
PRA000120	SAA008772	ST023				KawasakiCity_sed2-123_2019	Sediment	"Marine sediment"	2019	11	27	"2019-11-27T11:15; T10:49; T10:27"			"Light rain; Light rain; Light rain"	Asia	Japan	"Keihin Canal, Kawasaki Port, Kanagawa (front of Ogimachi)"	35.49527778		139.7277778														"9.4; 9.1; 8.7"	"17.2; 16.8; 16.6"								"4.2; 3.5; 3.7"		"18.0; 18.6; 18.0"	"14.5; 14.5; 13.5"	"Mud; Mud; Mud"	"Grayish green; Grayish green; Green_Dark"	"Gray green; Gray green; Gray green"	"Hydrogen sulfide odor; Hydrogen sulfide odor; Hydrogen sulfide odor"	"Seashells, Vegetative pieces; Seashells, Vegetative pieces; Seashells, Vegetative pieces"	"53.2; 70.8; 61.8 (Each) / 68.2 (Mixed)"	"10.3; 15.6; 12.6 (Each) / 10.2 (Mixed)"									"n=3 pooled: SAA008653; SAA008654; SAA008655"	2022/7/12	2022/7/12
PRA000120	SAA008773	ST024				Niigata_sed1-12_2019	Sediment	"River sediment"	2019	12	11	"2019-12-11T14:00; T13:40"			"Cloudy; Cloudy"	Asia	Japan	"Downstream of Riv. Shinano (Niigata City), Niigata"	37.88305556		139.0155556														"14.5; 14.5"	"8.0; 8.0"										"8.5; 8.5"	"4.6; 4.6"	"Sandy; Sandy"	"Brown; Brown"	"Green; Green"	"Earthy odor; Earthy odor"	"Twigs, Leaves; Leaves"	"26.2; 23.0 (Each) / 22.3 (Mixed)"	"1.2; 1.1 (Each) / 1.1 (Mixed)"									"n=2 pooled: SAA008656; SAA008657"	2022/7/12	2022/7/12
PRA000120	SAA008774	ST024				Toyama_sed1-123_2019	Sediment	"River sediment"	2019	11	13	"2019-11-13T10:10; T10:50; T12:02"			"Fair; Fair; Fair"	Asia	Japan	"Hagiura-bashi Bridge, Mouth of Riv. Jintsu (Toyama City), Toyama"	36.745		137.2180556														"18.4; 18.4; 18.9"	"13.3; 13.3; 14.9"										"13.8; 13.6; 14.1"	"0.7; 0.4; 0.4"	"Muddy; Muddy sand; Sandy"	"Gray; Gray; Gray"	"Clear; Clear; Clear"	"Hydrogen sulfide odor_Faint; Hydrogen sulfide odor_Faint; Odorless"	"Leaves, Stems; Leaves, Stems; None"	"46.0; 31.0; 16.0 (Each) / 39.1 (Mixed)"	"9.6; 4.2; 1.2 (Each) / 4.3 (Mixed)"									n=3	2022/7/12	2022/7/12
PRA000120	SAA008775	ST024				Ishikawa_sed1-456_2019	Sediment	"River sediment"	2019	10	23	"2019-10-23T09:48; T11:11; T11:40"			"Fair; Fair; Fair"	Asia	Japan	"Mouth of Riv. Sai (Kanazawa City), Ishikawa"	36.60027778		136.5888889														"21.9; 19.9; 23.4"	"17.5; 17.4; 17.2"											"3.2; 1.3; 1.0"	"Silt; Sany silt; Silty sand"	"Grayish black; Grayish brown; Blackish brown"	"Green; Green; Green"	"Fish rotten odor; Fish rotten odor_Faint; Fish rotten odor_Faint"	"Pebbles, twigs, shell; Pebbles, twigs; Pebbles"	"32.1; 23.4; 22.6 (Each) / 30.7 (Mixed)"	"4.8; 2.2; 1.8 (Each) / 3.1 (Mixed)"									n=3	2022/7/12	2022/7/12
PRA000120	SAA008776	ST024				Fukui_sed1-123_2019	Sediment	"River sediment"	2019	10	23	"2019-10-23T10:50; T10:50; T10:50"			"Fair; Fair; Fair"	Asia	Japan	"Mishima-bashi Bridge, Riv. Shono (Tsuruga City), Fukui"	35.6475		136.0627778														"25.4; 25.4; 25.4"	"22.5; 22.5; 22.5"										"22.5; 22.5; 22.5"	"0.1; 0.1; 0.1"	"Sandy; Sandy; Sandy"	"Brown; Brown; Brown"	"Clear; Clear; Clear"	"Odorless; Odorless; Odorless"	"Stones; Stones; Stones"	"20.4; 20.6; 20.2 (Each) / 18.4 (Mixed)"	"0.9; 0.9; 0.9 (Each) / 0.7 (Mixed)"									n=3	2022/7/12	2022/7/12
PRA000120	SAA008777	ST024				Yamanashi_sed1-123_2019	Sediment	"River sediment"	2019	11	1	"2019-11-01T10:30; T09:58; T09:25"			"Fair; Fair; Fair"	Asia	Japan	"Chiaki-bashi Bridge, Riv. Ara (Kofu City), Yamanashi"	35.6475		138.5655556														"15.3; 17.5; 17.5"	"14.3; 14.0; 15.2"										"14.8; 15.0; 15.5"	"0.1; 0.2; 0.3"	"Sand; Pebble; Sand"	"Gray; Gray; Gray"	"Greenish brown; Greenish brown; Greenish brown"	"Odorless; Odorless; Odorless"	"None; Sand; Pebbles"	"18.5; 16.1; 15.2 (Each) / 16.7 (Mixed)"	"1.1; 1.3; 0.7 (Each) / 0.7 (Mixed)"									n=3	2022/7/12	2022/7/12
PRA000120	SAA008778	ST024				Nagano_sed1-123_2019	Sediment	"Lake sediment"	2019	12	3	"2019-12-03T09:30; T10:18; T10:42"			"Fair; Fair; Fair"	Asia	Japan	"Center of Lake Suwa, Nagano"	36.05		138.0861111														"5.4; 7.1; 8.1"	"8.0; 8.2; 8.2"								"1.8; 1.6; 1.4"		"7.8; 7.9; 7.8"	"5.5; 5.5; 5.5"	"Muddy; Muddy, Muddy"	"Blackish brown_Dark; Blackish brown_Dark; Blackish brown_Dark"	"Yellow green_Light; Yellow green_Light; Yellow green_Light"	"Swampy odor_Faint; Swampy odor_Faint; Swampy odor_Faint"	"None; None; None"	"79.6; 78.9; 79.6 (Each) / 84.6 (Mixed)"	"14.2; 13.7; 15.0 (Each) / 13.3 (Mixed)"									"n=3 pooled: SAA008661; SAA008662; SAA008663"	2022/7/12	2022/7/12
PRA000120	SAA008779	ST023				Shizuoka_sed1-123_2019	Sediment	"Marine sediment"	2019	12	4	"2019-12-04T09:35; T10:15; T10:30"			"Fair; Fair; Fair"	Asia	Japan	"Shimizu Port, Shizuoka"	35.02416667		138.5161111														"12.1; 12.9; 12.9"	"17.2; 17.9; 18.2"								"5.5; 5.5; 5.0"		"20.1; 20.5; 20.0"	"24.9; 20.1; 17.4"	"Sand, Clay; Sand, Clay; Sand, Clay"	"Grayish green_Dark; Grayish green_Dark; Grayish green_Dark"	"Clear; Clear; Clear"	"Odorless; Odorless; Odorless"	"Shellfish, pieces of wood; Shellfish, pieces of wood; Shellfish, pieces of wood"	"34.8; 30.7; 35.6 (Each) / 31.4 (Mixed)"	"5.0; 4.5; 5.1 (Each) / 4.0 (Mixed)"									"n=3 pooled: SAA008664; SAA008665; SAA008666"	2022/7/12	2022/7/12
PRA000120	SAA008780	ST024				Shizuoka_sed6-123_2019	Sediment	"River sediment"	2019	11	27	"2019-11-27T10:30; T11:30; T12:10"			"Cloudy; Cloudy; Cloudy"	Asia	Japan	"Kaketsuka-bashi Bridge, Riv. Tenryu (Iwata City), Shizuoka"	34.67888889		137.7958333														"17.5; 16.7; 17.4"	"12.5; 12.2; 12.2"										"13.5; 13.3; 13.0"	"0.3; 0.4; 0.3"	"Sand; Sand; Sand"	"Grayish brown_Dark; Grayish brown_Dark; Grayish brown_Dark"	"White_Light; White_Light; White_Light"	"Odorless; Odorless; Odorless"	"Pebbles; Pebbles; Pebbles"	"19.5; 17.4; 14.5 (Each) / 17.7 (Mixed)"	"1.9; 1.4; 1.5 (Each) / 1.4 (Mixed)"									"n=3 pooled: SAA008667; SAA008668; SAA008669"	2022/7/12	2022/7/12
PRA000120	SAA008781	ST023				Aichi_sed2-123_2019	Sediment	"Marine sediment"	2019	12	11	"2019-12-11T10:20; T10:25; T10:30"			"Fair; Fair; Fair"	Asia	Japan	"Kinuura Port, Aichi"	34.84166667		136.9486111														"12.7; 12.7; 12.7"	"16.9; 16.9; 16.9"								"3.2; 3.2; 3.2"		"15.0; 15.0; 15.5"	"15.1; 15.1; 15.1"	"Muddy; Muddy; Muddy"	"Grayish green; Grayish green; Grayish green"	"Clear; Clear; Clear"	"Hydrogen sulfide odor_Faint; Hydrogen sulfide odor_Faint; Odorless"	"Shell; Shell; Shell"	"65.0; 64.8; 65.4 (Each) / 64.8 (Mixed)"	"10.9; 10.6; 10.4 (Each) / 9.9 (Mixed)"									n=3	2022/7/12	2022/7/12
PRA000120	SAA008782	ST023				Aichi_sed1-456_2019	Sediment	"Marine sediment"	2019	12	11	"2019-12-11T12:10; T12:15; T12:20"			"Fair; Fair; Fair"	Asia	Japan	"Nagoya Port, West of Shiomi Wharf, Aichi"	35.07111111		136.8691667														"14.2; 14.2; 14.2"	"16.6; 16.6; 16.6"								"2.5; 2.5; 2.5"		"17.0; 17.0; 17.0"	"15.2; 15.2; 15.2"	"Muddy; Muddy; Muddy"	"Grayish green; Grayish green; Grayish green"	"Clear; Clear; Clear"	"Hydrogen sulfide odor_strong; Hydrogen sulfide odor_strong; Hydrogen sulfide odor_strong"	"None; None; None"	"63.0; 61.2; 60.1 (Each) / 60.9 (Mixed)"	"8.8; 10.0; 8.1 (Each) / 7.4 (Mixed)"									n=3	2022/7/12	2022/7/12
PRA000120	SAA008783	ST023				Mie_sed1-123_2019	Sediment	"Marine sediment"	2019	11	28	"2019-11-28T10:10; T10:47; T10:53"			"Cloudy; Cloudy; Cloudy"	Asia	Japan	"Yokkaichi Port, Mie"	34.94944444		136.6530556														"12.0; 11.0; 11.0"	"17.0; 16.5; 17.0"								"3.1; 3.5; 3.3"		"19.0; 19.0; 19.0"	"12.0; 7.2; 7.3"	"Muddy; Muddy, Muddy"	"Grayish black; Grayish black; Grayish black"	"Green brown; Green brown; Green brown"	"Hydrogen sulfide odor_Faint; Hydrogen sulfide odor_Faint; Hydrogen sulfide odor_Faint"	"Almost none; Almost none; Seashells"	"64.8; 53.9; 57.4 (Each) / 56.3 (Mixed)"	"8.2; 6.6; 7.1 (Each) / 6.9 (Mixed)"									"n=3 pooled: SAA008679; SAA008680; SAA008681"	2022/7/12	2022/7/12
PRA000120	SAA008784	ST023				Mie_sed2-456_2019	Sediment	"Marine sediment"	2019	11	25	"2019-11-25T11:00; T11:13; T11:19"			"Fair; Fair; Fair"	Asia	Japan	"Toba Port, Mie"	34.48083333		136.8486111														"22.0; 21.2; 21.2"	"18.0; 18.0; 18.0"								"2.5; 3.1; 3.3"		"19.0; 18.0; 18.0"	"5.7; 6.1; 6.0"	"Muddy; Muddy; Muddy"	"Grayish brown; Grayish brown; Grayish brown"	"Grayish green; Grayish green; Grayish green"	"Swampy odor_Faint; Swampy odor_Faint; Swampy odor_Faint"	"Shell, vegetative pieces; Shell, vegetative pieces; Shell, vegetative pieces"	"56.9; 44.9; 42.2 (Each) / 43.9 (Mixed)"	"10.5; 8.2; 6.0 (Each) / 7.9 (Mixed)"									n=3	2022/7/12	2022/7/12
PRA000120	SAA008785	ST024				Shiga_sed1-123_2019	Sediment	"Lake sediment"	2019	11	27	"2019-11-27T09:30; T09:55; T10:25"			"Cloudy; Cloudy; Cloudy"	Asia	Japan	"Lake Biwa (center, offshore of Minamihira), Shiga"	35.18527778		135.9733333														"13.5; 14.5l 14.2"	"15.8; 15.6; 15.3"								"5.2; 5.4; 5.8"		"8.9; 8.4; 8.5"	"60.9; 53.8; 49.3"	"Muddy; Muddy, Muddy"	"Grayish black; Grayish black; Grayish black"	"Greenish blue_Dark; Greenish blue_Dark; Greenish blue_Dark"	"Swampy odor; Swampy odor; Swampy odor"		"70.5; 68.9; 69.3 (Each) / 79.6 (Mixed)"	"11.0; 10.7; 10.8 (Each) / 10.9 (Mixed)"									"n=3 pooled: SAA008685; SAA008686; SAA008687"	2022/7/12	2022/7/12
PRA000120	SAA008786	ST024				Shiga_sed2-123_2019	Sediment	"Lake sediment"	2019	11	19	"2019-11-19T09:50; T10:30; T11:10"			"Fair; Fair; Fair"	Asia	Japan	"Lake Biwa (center, offshore of Karasaki), Shiga"	35.04611111		135.8955556														"18.7; 18.9; 18.6"	"15.2; 16.6; 15.2"								"3.0; 2.8; 2.7"		"16.0; 15.5; 15.0"	"3.8; 4.3; 4.0"	"Muddy; Muddy, Muddy"	"Grayish black; Grayish black; Grayish black"	"Yellow green; Yellow green; Yellow green"	"Swampy odor; Swampy odor; Swampy odor"	"Aquatic plants; Aquatic plants; Aquatic plants"	"65.6; 66.2; 63.6 (Each) / 74.1 (Mixed)"	"10.2; 10.8; 10.3 (Each) / 10.2 (Mixed)"									"n=3 pooled: SAA008688; SAA008689; SAA008690"	2022/7/12	2022/7/12
PRA000120	SAA008787	ST023				Kyoto_sed1-123_2019	Sediment	"Marine sediment"	2020	1	8	"2020-01-08T10:15; T10:35; T11:05"			"Cloudy; Cloudy; Cloudy"	Asia	Japan	"Miyazu Port, Kyoto"	35.58305556		135.2138889														"16.9; 17.0; 17.4"	"13.9; 13.9; 13.9"								"6.0; 6.0; 6.0"		"12.6; 13.0; 12.9"	"11.5; 23.1; 22.5"	"Muddy; Muddy, Muddy"	"Grayish black; Grayish black; Grayish black"	"Clear; Clear; Clear"	"Seaweed odor; Seaweed odor; Seaweed odor"	"None; None; None"	"26.9; 37.7; 42.2 (Each) / 45.9 (Mixed)"	"2.9; 11.9; 9.1 (Each) / 5.9 (Mixed)"									"n=3 pooled: SAA008691; SAA008692; SAA008693"	2022/7/12	2022/7/12
PRA000120	SAA008788	ST024				KyotoCity_sed1-456_2019	Sediment	"River sediment"	2019	11	28	"2019-11-28T10:20; T10:35; T10:45"			"Cloudy; Cloudy; Cloudy"	Asia	Japan	"Miyamae-bashi Bridge, Riv. Katsura (Kyoto City), Kyoto"	34.905		135.7125														"10.0; 10.0; 10.0"	"15.2; 15.2; 15.2"										"14.0; 14.0; 14.2"	"0.8; 0.8; 0.8"	"Sandy; Sandy; Sandy"	"Grayish brown; Grayish brown; Grayish brown"	"Clear; Clear; Clear"	"Odorless; Odorless; Odorless"	"None; None; None"	"19.7; 21.4; 17.4 (Each) / 20.7 (Mixed)"	"1.1; 1.2; 1.1 (Each) / 1.0 (Mixed)"									n=3	2022/7/12	2022/7/12
PRA000120	SAA008789	ST024				Osaka_sed1-123_2019	Sediment	"River sediment"	2019	12	5	"2019-12-05T13:00; T11:55; T12:30"			"Fair; Fair; Fair"	Asia	Japan	"Mouth of Riv. Yamato (Sakai City), Osaka"	34.60833333		135.4325														"12.4; 12.0; 12.2"	"13.0; 12.8; 12.8"								"1.8; 1.5; 1.3"		"15.3; 12.5; 13.9"	"2.3; 1.6; 1.6"	"Silt; Silt mixed with sand; Silt mixed with sand"	"Black; Grayish olive; Olive black"	"Yellow_Light; Yellow_Light; Yellow_Light"	"Fishy smell; Fishy smell; Fishy smell"	"Vegetative pieces; Vegetative pieces; Vegetative pieces"	"50.9; 31.8; 38.3 (Each) / 54.2 (Mixed)"	"13.6; 3.9; 7.4 (Each) / 7.9 (Mixed)"									"n=3 pooled: SAA008697; SAA008698; SAA008699"	2022/7/12	2022/7/12
PRA000120	SAA008790	ST023				OsakaCity_sed1-123_2019	Sediment	"Marine sediment"	2019	12	3	"2019-12-03T08:54; T08:11; T09:16"			"Fair; Fair; Fair"	Asia	Japan	"Osaka Port, Osaka"	34.65861111		135.4313889														"10.9; 10.2; 12.1"	"15.6; 13.8; 16.0"								"2.9; 3.5; 3.4"		"16.4; 16.5; 17.2"	"12.2; 11.7; 12.6"	"Silt; Silt; Silt"	"Black; Black; Black"	"Grayish yellow_Light; Grayish yellow_Light; Grayish yellow_Light"	"Hydrogen sulfide odor; Hydrogen sulfide odor; Hydrogen sulfide odor"	"None; None; None"	"54.3; 52.7; 60.6 (Each) / 66.9 (Mixed)"	"10.1; 9.4; 10.7 (Each) / 9.5 (Mixed)"									"n=3 pooled: SAA008703; SAA008704; SAA008705"	2022/7/12	2022/7/12
PRA000120	SAA008791	ST023				OsakaCity_sed4-123_2019	Sediment	"Marine sediment"	2019	12	3	"2019-12-03T09:48; T10:10; T10:32"			"Fair; Fair; Fair"	Asia	Japan	"Outside of Osaka Port, Osaka"	34.64027778		135.3858333														"13.4; 15.0; 12.4"	"17.7; 17.4; 16.9"								"3.5; 3.4; 3.4"		"16.1; 16.5; 17.5"	"15.2; 11.9; 12.6"	"Silt; Silt; Silt"	"Grayish black; Grayish black; Grayish black"	"Grayish yellow_Light; Grayish yellow_Light; Grayish yellow_Light"	"Hydrogen sulfide odor_Faint; Putrid odor; Putrid odor"	"None; None; None"	"53.8; 43.9; 39.1 (Each) / 60.0 (Mixed)"	"9.2; 6.0; 5.3 (Each) / 7.0 (Mixed)"									n=3	2022/7/12	2022/7/12
PRA000120	SAA008792	ST024				OsakaCity_sed3-123_2019	Sediment	"River sediment"	2019	12	3	"2019-12-03T11:02; T11:27; T11:44"			"Fair; Fair; Cloudy"	Asia	Japan	"Mouth of Riv. Yodo, Osaka"	34.67638889		135.3975														"13.8; 14.0; 13.4"	"17.9; 17.2; 17.2"								"2.3; 3.4; 2.5"		"16.6; 17.2; 17.1"	"6.4; 5.2; 4.0"	"Silt; Silt; Silt"	"Grayish black; Grayish black; Grayish black"	"Grayish yellow_Light; Grayish yellow_Light; Grayish yellow_Light"	"Putrid odor; Oily odor; Oily odor"	"Vegetative pieces; Vegetative pieces; Vegetative pieces"	"38.5; 37.4; 44.3 (Each) / 56.9 (Mixed)"	"7.9; 7.4; 9.9 (Each) / 9.6 (Mixed)"									n=3	2022/7/12	2022/7/12
PRA000120	SAA008793	ST024				OsakaCity_sed2-123_2019	Sediment	"River sediment"	2019	11	28	"2019-11-28T09:35; T11:20; T10:45"			"Cloudy; Cloudy; Cloudy"	Asia	Japan	"Kema-bashi Bridge, Riv. Oh (Osaka City), Osaka"	34.71776		135.51961														"10.8; 11.5; 11.6"	"14.4; 14.3; 14.0"										"13.0; 13.4; 13.5"	"3.0; 2.0; 3.5"	"Silt; Silt; Silt"	"Gray; Gray; Gray"	"Grayish yellow_Light; Grayish yellow_Light; Grayish yellow_Light"	"Sewage odor_Faint; Sewage odor_Faint; Sewage odor_Faint"	"Shellfish; Shellfish; Shellfish"	"45.2; 53.1; 44.6 (Each) / 59.4 (Mixed)"	"7.6; 10.2; 8.9 (Each) / 9.2 (Mixed)"									"n=3 pooled: SAA008700; SAA008701; SAA008702"	2022/7/12	2022/7/12
PRA000120	SAA008794	ST023				Hyogo_sed1-123_2019	Sediment	"Marine sediment"	2019	11	13	"2019-11-13T11:00; T11:15; T11:35"			"Fair; Fair; Fair"	Asia	Japan	"Offshore of Himeji, Hyogo"	34.76194444		134.6697222														"17.4; 17.4; 17.4"	"19.9; 19.9; 20.0"								"8.0; 8.0; 8.0"		"20.0; 20.0; 20.0"	"9.0; 10.0; 11.0"	"Silt; Silt; Silt"	"Grayish brown; Grayish brown; Grayish brown"	"Dark green; Dark green; Dark green"	"Hydrogen sulfide odor; Hydrogen sulfide odor;  Hydrogen sulfide odor"	"None; None; None"	"(each) / 70.7 (Mixed)"	"(Each) / 9.8 (Mixed)"									"n=3 pooled: including SAA008706"	2022/7/12	2022/7/12
PRA000120	SAA008795	ST023				Hyogo_sed2-123_2019	Sediment	"Marine sediment"	2019	12	10	"2019-12-10T09:53; T10:32; T10:48"			"Fair; Fair; Fair"	Asia	Japan	"Center of Kobe Port, Hyogo"	34.66444444		135.1944444														"45.2; 15.0; 15.1"	"14.3; 14.7; 14.5"								"6.6; 10.0; 9.1"		"15.0; 15.0; 15.0"	"10.9; 10.6; 12.8"	"Silt; Silt; Silt"	"Greenish brown; Greenish brown; Greenish brown"	"Green brown; Green brown; Green brown"	"Hydrogen sulfide odor; Hydrogen sulfide odor; Hydrogen sulfide odor"	"Pebbles; Seashells, Pebbles; - "	"55.5; 51.8; 56.4 (Each) / 62.1 (Mixed)"	"9.5; 11.5; 9.0 (Each) / 8.8 (Mixed)"									"n=3 pooled: SAA008707; SAA008708; SAA008709"	2022/7/12	2022/7/12
PRA000120	SAA008796	ST024				Nara_sed1_123_2019	Sediment	"River sediment"	2019	12	5	"2019-12-05T10:30; T10:45; T11:00"			"Fair; Fair; Fair"	Asia	Japan	"Taisho-bashi Bridge, Riv. Yamato (Oji town), Nara"	34.58583333		135.6833333														"13.0; 13.0; 13.0"	"11.0; 11.0; 11.0"										"11.0; 11.0; 11.0"	"0.3; 0.3; 0.3"	"Sandy; Sandy; Sandy"	"Brown; Brown; Brown"	"Grayish yellow green_Light; Grayish yellow green_Light; Grayish yellow green_Light"	"Sewage odor_Faint; Sewage odor_Faint; Sewage odor_Faint"	"None; None; None"	"24.0; 22.0; 22.0 (Each) / 19.8 (Mixed)"	"0.9; 0.5; 0.5 (Each) / 0.6 (Mixed)"									"n=3 pooled: SAA008710; SAA008711; SAA008712"	2022/7/12	2022/7/12
PRA000120	SAA008797	ST024				Wakayama_w1-456_2019	Sediment	"River sediment"	2019	10	31	"2019-10-31T12:45; T13:30; T13:10"			"Fair; Fair; Fair"	Asia	Japan	"Kinokawa-ohashi Bridge, Mouth of Riv. Kinokawa (Wakayama City), Wakayama"	34.23		135.1561111														"25.1; 20.9; 21.8"	"19.8; 19.2; 19.2"								"1.5; 1.5; 1.5"		"23.1; 23.1; 23.2"	"3.5; 3.5; 5.5"	"Sandy; Sandy; Sandy"	"Gray; Brown; Brown"	"Green; Green; Green"	"Seaweed odor; Seaweed odor; Seaweed odor"	"Shellfish; None; None"	"24.8; 18.6; 22.7 (Each) / 29.0 (Mixed)"	"5.1; 3.2; 4.5 (Each) / 3.5 (Mixed)"									n=3	2022/7/12	2022/7/12
PRA000120	SAA008798	ST023				Okayama_sed1-123_2019	Sediment	"Marine sediment"	2019	10	23	"2019-10-23T10:50; T11:25; T11:55"			"Fair; Fair; Fair"	Asia	Japan	"Offshore of Mizushima, Okayama"	34.48055556		133.665														"23.6; 24.0; 23.5"	"22.0; 22.5; 22.0"								"1.5; 2.0; 2.0"		"24.0; 24.5; 23.8"	"7.6; 9.1; 7.8"	"Ooze; Ooze; Ooze"	"Grayish green; Grayish green; Grayish green"	"Yellow green_Dark; Yellow green_Dark; Yellow green_Dark"	"Earthy odor; Earthy odor; Earthy odor"	"Small pieces of seashell; Small pieces of seashell; Small pieces of seashell"	"49.3; 45.2; 47.8 (Each) / 44.8 (Mixed)"	"5.9; 5.5; 5.9 (Each) / 5.3 (Mixed)"									"n=3 pooled: SAA008716; SAA008717; SAA008718"	2022/7/12	2022/7/12
PRA000120	SAA008799	ST023				Hiroshima_sed1-123_2019	Sediment	"Marine sediment"	2019	11	13	"2019-11-13T09:58; T10:18; T10:27"			"Fair; Fair; Fair"	Asia	Japan	"Kure Port, Hiroshima"	34.23361111		132.5391667														"17.2; 17.7; 17.4"	"20.7; 21.0; 20.7"								"7.0; 6.5; 7.0"		"20.6; 20.9; 20.9"	"21.0; 20.0; 20.0"	"Silt; Silt; Silt"	"Gray_Dark; Gray_Dark; Gray_Dark"	"Blue green_Dark; Blue green_Dark; Blue green_Dark"	"Hydrogen sulfide odor_Faint; Hydrogen sulfide odor_Faint; Odorless"	"None; None; None"	"59.9; 62.5; 60.4 (Each) / 70.2 (Mixed)"	"10.0; 10.1; 8.4 (Each) / 10.4 (Mixed)"									n=3	2022/7/12	2022/7/12
PRA000120	SAA008800	ST023				Hiroshima_sed2-123_2019	Sediment	"Marine sediment"	2019	11	13	"2019-11-13T12:23; T12:48; T12:56"			"Fair; Fair; Fair"	Asia	Japan	"Hiroshima Bay (Hiroshima City), Hiroshima"	34.34833333		132.4225														"18.2; 18.8; 19.2"	"21.0; 21.1; 20.9"								"5.0; 4.0; 4.5"		"21.8; 21.5; 21.4"	"15.0; 12.0; 14.0"	"Silt; Silt; Silt"	"Grayish green_Dark; Grayish green_Dark; Grayish green_Dark"	"Blue green_Dark; Blue green_Dark; Blue green_Dark"	"Odorless; Odorless; Odorless"	"None; None; None"	"58.6; 57.4; 60.0 (Each) / 68.4 (Mixed)"	"9.5; 10.0; 10.0 (Each) / 10.5 (Mixed)"									n=3	2022/7/12	2022/7/12
PRA000120	SAA008801	ST023				Yamaguchi_sed1-123_2019	Sediment	"Marine sediment"	2019	11	12	"2019-11-12T12:25; T12:33; T12:43"			"Fair; Fair; Fair"	Asia	Japan	"Tokuyama Bay, Yamaguchi"	33.99361111		131.7505556														"20.0; 20.0; 20.0"	"22.4; 22.4; 22.4"								"7.0; 7.0; 7.0"		"20.0; 20.0; 20.0"	"23.0; 23.0; 23.0"	"Silt; Silt; Silt"	"Grayish yellow green; Grayish yellow green; Grayish yellow green"	"Blue green; Blue green; Blue green"	"Hydrogen sulfide odor; Hydrogen sulfide odor;  Hydrogen sulfide odor"	"None; None; None"	"62.5; 58.6; 57.1 (Each) / 67.7 (Mixed)"	"10.4; 10.6; 9.7 (Each) / 8.5 (Mixed)"									n=3	2022/7/12	2022/7/12
PRA000120	SAA008802	ST023				Yamaguchi_sed2-123_2019	Sediment	"Marine sediment"	2019	11	13	"2019-11-13T11:30; T11:40; T11:51"			"Fair; Fair; Fair"	Asia	Japan	"Offshore of Ube, Yamaguchi"	33.915		131.1975														"20.9; 20.9; 20.9"	"20.1; 20.1; 20.1"								"4.0; 4.0; 4.0"		"19.5; 19.5; 19.5"	"9.8; 9.8; 9.8"	"Silt; Silt; Silt"	"Grayish green; Grayish green; Grayish green"	"Grayish green; Grayish green; Grayish green"	"Odorless; Odorless; Odorless"	"None; None; None"	"39.3; 31.2; 31.3 (Each) / 42.8 (Mixed)"	"6.3; 5.6; 5.8 (Each) / 5.4 (Mixed)"									n=3	2022/7/12	2022/7/12
PRA000120	SAA008803	ST023				Yamaguchi_sed3-123_2019	Sediment	"Marine sediment"	2019	11	22	"2019-11-22T11:10; T11:17; T11:25"			"Cloudy; Cloudy; Cloudy"	Asia	Japan	"Offshore of Hagi, Yamaguchi"	34.43805556		131.3794444														"14.5; 14.5; 14.5"	"19.5; 19.5; 19.5"								"15.0; 15.0; 15.0"		"17.0; 17.0; 17.0"	"26.4; 26.4; 26.4"	"Fine sand; Fine sand; Fine sand"	"Light gray; Light gray; Light gray"	"Blue green; Blue green; Blue green"	"Odorless; Odorless; Odorless"	"None; None; None"	"31.3; 28.7; 28.1 (Each) / 30.9 (Mixed)"	"6.3; 6.0; 6.0 (Each) / 4.1 (Mixed)"									n=3	2022/7/12	2022/7/12
PRA000120	SAA008804	ST024				Tokushima_sed1-123_2018	Sediment	"River sediment"	2019	11	12	"2019-11-12T10:55; T10:25; T11:30"			"Fair; Fair; Fair"	Asia	Japan	"Mouth of Riv. Yoshino (Tokushima City), Tokushima"	34.085		134.5913889														"21.0; 21.5; 22.0"	"18.8; 18.8; 19.0"								"3.2; 3.4; 3.8"		"18.3; 18.8; 18.6"	"3.7; 4.5; 5.6"	"Sandy; Sandy; Sandy"	"Blackish gray; Blackish gray; Blackish gray"	"Green; Greenish blue; Greenish blue"	"Odorless; Odorless; Odorless"	"None; None; None"	"21.0; 21.0; 18.0 (Each) / 20.7 (Mixed)"	"1.3; 1.2; 0.9 (Each) / 1.0 (Mixed)"									n=3	2022/7/12	2022/7/12
PRA000120	SAA008805	ST023				Kagawa_sed1-123_2019	Sediment	"Marine sediment"	2019	11	26	"2019-11-26T09:07; T09:14; T09:25"			"Cloudy; Cloudy; Cloudy"	Asia	Japan	"Takamatsu Port, Kagawa"	34.34972222		134.0788889														"13.5; 13.4; 12.8"	"15.9; 16.4; 16.0"								"1.1; 1.0; 2.2"		"17.0; 16.8; 17.2"	"2.6; 5.2; 5.3"	"Muddy; Sandy; Muddy"	"Black; Black; Black"	"Blue green; Blue green; Blue green"	"Hydrogen sulfide odor, Pine essential oil odor; Hydrogen sulfide odor_Faint; Hydrogen sulfide odor_Faint"	"Seashells (Unknown type), Vegetative pieces (Lawn; Fallen leaves, etc),  Vinyl pieces; Seashells (Unknown type), Vegetative pieces (Lawn; Fallen leaves, etc), Vinyl pieces; None"	"63.8; 28.5; 69.7 (Each) / 51.9 (Mixed)"	"15.5; 2.6; 16.1 (Each) / 6.5 (Mixed)"									"n=3 pooled: SAA008721; SAA008722; SAA008723"	2022/7/12	2022/7/12
PRA000120	SAA008806	ST023				Ehime_sed1-123_2019	Sediment	"Marine sediment"	2019	10	28	"2019-10-28T10:14; T10:24; T10:34"			"Fair; Fair; Fair"	Asia	Japan	"Niihama Port, Ehime"	33.98777778		133.3144444														"22.5; 22.5; 22.5"	"21.5; 21.5; 21.5"								"3.5; 3.5; 3.5"		"23.0; 23.0; 23.0"	"6.7; 6.7; 6.7"	"Fine sand; Fine sand; Fine sand"	"Grayish green_Dark; Grayish green_Dark; Grayish green_Dark"	"Dark yellow green; Dark yellow green; Dark yellow green"	"Odorless; Odorless; Odorless"	"None; None; None"	"29.9; 29.4; 30.0 (Each) / 21.7 (Mixed)"	"1.5; 1.5; 1.5 (Each) / 1.4 (Mixed)"									n=3	2022/7/12	2022/7/12
PRA000120	SAA008807	ST024				Kochi_sed1-123_2019	Sediment	"River sediment"	2019	10	15	"2019-10-15T09:45; T11:00; T12:20"			"Fair; Fair; Fair"	Asia	Japan	"Mouth of Riv. Shimanto (Shimanto City), Kochi"	32.93777778		132.8441667														"26.8; 27.2; 26.4"	"22.2; 23.5; 25.0"										"25.0; 27.0; 25.5"	"5.2; 2.6; 0.5"	"Sandy; Muddy; Sandy"	"Gray; Blackish gray; Grayish brown"	"Clear; Clear; Clear"	"Odorless; Hydrogen sulfide odor; Odorless"	"None; None; None"	"23.5; 35.3; 19.0 (Each) / 28.2 (Mixed)"	"2.3; 6.3; 2.3 (Each) / 2.8 (Mixed)"									n=3	2022/7/12	2022/7/12
PRA000120	SAA008808	ST023				KitakyushuCity_sed1-123_2019	Sediment	"Marine sediment"	2019	11	25	"2019-11-25T09:50; T10:35; T10:20"			"Cloudy; Cloudy; Cloudy"	Asia	Japan	"Dokai Bay (Kitakyushu City), Fukuoka"	33.90388889		130.8158333														"19.3; 19.3; 19.3"	"17.8; 17.9; 18.0"								"4.5; 4.5; 4.5"		"18.3; 18.2; 18.1"	"11.5; 11.3; 9.8"	"Mud; Mud; Mud"	"Black; Black; Black"	"Clear; Clear; Clear"	"Odorless; Odorless; Odorless"	"None; None; None"	"42.2; 46.0; 57.1 (Each) / 45.3 (Mixed)"	"8.0; 6.7; 11.2 (Each) / 7.8 (Mixed)"									"n=3 pooled: SAA008724; SAA008725; SAA008726"	2022/7/12	2022/7/12
PRA000120	SAA008809	ST023				FukuokaCity_sed1-123_2019	Sediment	"Marine sediment"	2019	12	5	"2019-12-05T08:55; T09:25; T09:40"			"Cloudy; Cloudy; Cloudy"	Asia	Japan	"Hakata Bay, Fukuoka"	33.60833333		130.3297222														"13.5; 14.1; 14.4"	"14.0; 14.0; 14.0"								"2.5; 3.0; 3.0"		"14.5; 14.0; 14.5"	"7.7; 7.4; 8.4"	"Silt; Silt; Silt"	"Gray; Gray; Gray"	"Green_Dark; Green_Dark; Green_Dark"	"Odorless; Odorless; Odorless"	"None; None; None"	"42.0; 42.0; 42.0 (Each) / 53.3 (Mixed)"	"9.0; 8.8; 8.9 (Each) / 9.2 (Mixed)"									"n=3 pooled: SAA008727; SAA008728; SAA008729"	2022/7/12	2022/7/12
PRA000120	SAA008810	ST023				Saga_sed1-123_2019	Sediment	"Marine sediment"	2019	11	29	"2019-11-29T11:00; T11:56; T12:10"			"Fair; Fair; Fair"	Asia	Japan	"Imari Bay, Saga"	33.34		129.8208333														"13.0; 13.0; 13.0"	"16.5; 16.5; 16.5"								"2.5; 2.5; 2.5"		"17.0; 17.0; 17.0"	"15.2; 15.5; 16.2"	"Muddy; Muddy; Muddy"	"Grayish black; Grayish black; Grayish black"	"Clear; Clear; Clear"	"Earthy odor; Earthy odor; Earthy odor"	"None; None; None"	"66.5; 66.4; 68.7 (Each) / 65.2 (Mixed)"	"11.8; 11.6; 12.6 (Each) / 9.6 (Mixed)"									"n=3 pooled: SAA008730; SAA008731; SAA008732"	2022/7/12	2022/7/12
PRA000120	SAA008811	ST023				Nagasaki_sed1-123_2019	Sediment	"Marine sediment"	2019	10	29	"2019-10-29T10:55; T11:17; T11:45"			"Fair; Fair; Fair"	Asia	Japan	"Omura Bay, Nagasaki"	32.98833333		129.8522222														"23.0; 22.9; 21.8"	"22.6; 22.7; 22.5"								"7.6; 7.7; 7.7"		"23.9; 23.5; 22.0"	"19.8; 19.7; 20.1"	"Silt; Silt; Silt"	"Grayish brown; Grayish brown; Grayish brown"	"Blue green_Light; Blue green_Light; Blue green_Light"	"Odorless; Hydrogen sulfide odor_Faint; Hydrogen sulfide odor_Faint"	"Small pieces of shell; Small pieces of shell; Small pieces of shell"	"55.8; 55.4; 54.2 (Each) / 66.3 (Mixed)"	"12.6; 12.5; 12.2 (Each) / 12.1 (Mixed)"									n=3	2022/7/12	2022/7/12
PRA000120	SAA008812	ST024				Oita_sed1-123_2019	Sediment	"River sediment"	2019	11	21	"2019-11-21T11:45; T11:05; T09:57"			"Fair; Fair; Fair"	Asia	Japan	"Mouth of Riv. Oita, Oita"	33.25722222		131.6175														"14.5; 13.4; 12.9"	"16.5; 14.7; 13.8"										"19.5; 19.8; 18.2"	"1.5; 2.9; 2.7"	"Muddy, sandy; Muddy, sandy; Sandy"	"Black; Black; Black"	"Gray green_Dark; Gray green_Dark; Gray green_Dark"	"Hydrogen sulfide odor, sewage odor; Hydrogen sulfide odor, sewage odor; Sewage odor"	"Seashell pieces, pieces of wood; Seashell pieces, seashells, gravels, pieces of wood;  Gravels, pieces of wood"	"17.9; 17.3; 20.6 (Each) / 22.4 (Mixed)"	"1.4; 1.6; 1.8 (Each) / 1.4 (Mixed)"									"n=3 pooled: SAA008733; SAA008734; SAA008735"	2022/7/12	2022/7/12
PRA000120	SAA008813	ST024				Miyazaki_sed1-123_2019	Sediment	"River sediment"	2019	10	15	"2019-10-15T12:03; T12:14; T12:27"			"Fair; Fair; Fair"	Asia	Japan	"Mouth of Riv. Oyodo (Miyazaki City), Miyazaki"	31.89611111		131.4402778														"25.5; 24.5; 21.0"	"23.0; 23.0; 22.0"										"23.0; 22.5; 22.5"	"0.3; 0.4; 0.8"	"Pebble, Sand; Pebble, Sand; Pebble, Sand "	"Grayish black_Light; Grayish black_Light; Grayish black_Light"	"Clear; Clear; Clear"	"Odorless; Odorless; Odorless"	"None; Shellfish; None"	"17.1; 22.2; 21.2 (Each) / 20.6 (Mixed)"	"1.2; 1.1; 1.2 (Each) / 1.1 (Mixed)"									n=3	2022/7/12	2022/7/12
PRA000120	SAA008814	ST024				Kagoshima_sed1-123_2019	Sediment	"River sediment"	2019	11	13	"2019-11-13T11:44; T10:52; T10:22"			"Cloudy; Cloudy; Cloudy"	Asia	Japan	"Riv. Amori (Kirishima City), Kagoshima"	31.7225		130.7416667														"18.5; 21.3; 20.2"	"18.5; 17.8; 18.2"										"18.1; 20.2; 21.2"	"0.3; 0.5; 0.5"	"Sandy gravel; Sandy gravel; Sandy gravel"	"Blackish brown; Blackish brown; Blackish brown"	"Clear; Clear; Clear"	"Sewage odor_Faint; Earthy odor_Faint; Odorless"	"Pebbles; Pebbles; Pebbles"	"31.0; 21.0; 20.0 (Each) / 29.5 (Mixed)"	"2.3; 0.8; 1.0 (Each) / 1.4 (Mixed)"									n=3	2022/7/12	2022/7/12
PRA000120	SAA008815	ST024				Kagoshima_sed2-123_2019	Sediment	"River sediment"	2019	11	11	"2019-11-11T11:47; T11:15; T10:45"			"Fair; Fair; Fair"	Asia	Japan	"Gotanda-bashi Bridge, Riv. Gotanda (Ichikikushikino City), Kagoshima"	31.72583333		130.2769444														"21.5; 20.5; 21.3"	"18.2; 17.0; 16.4"										"18.1; 17.0; 16.0"	"0.2; 0.3; 0.3"	"Sandy gravel; Sandy gravel; Sandy gravel"	"Dark brown; Dark brown; Dark brown"	"Clear; Clear; Clear"	"Earthy odor_Faint; Earthy odor_Faint; Earthy odor_Faint"	"Pebbles; Pebbles; Pebbles"	"18.0; 19.0; 25.0 (Each) / 25.5 (Mixed)"	"1.4; 1.5; 2.6 (Each) / 1.8 (Mixed)"									n=3	2022/7/12	2022/7/12
PRA000120	SAA008816	ST023				Okinawa_sed1-123_2019	Sediment	"Marine sediment"	2020	1	10	"2020-01-10T11:40; T11:00; T12:20"			"Cloudy; Cloudy; Cloudy"	Asia	Japan	"Naha Port, Okinawa"	26.21222222		127.665														"22.4; 22.1; 21.3"	"22.5; 21.9; 20.9"								"1.5; 2.0; 5.4"		"22.6; 22.2; 21.4"	"7.1; 7.1; 5.4"	"Sludge; Sludge; Sludge"	"Grayish black; Grayish black; Grayish black"	"Clear; Clear; Clear"	"Hydrogen sulfide odor, Sewage odor; Hydrogen sulfide odor, Sewage odor; Hydrogen sulfide odor, Sewage odor"	"Pebbles, twigs; Pieces of plastic; Leaves"	"43.8; 36.0; 38.8 (Each) / 50.5 (Mixed)"	"9.6; 9.6; 9.9 (Each) / 9.1 (Mixed)"									n=3	2022/7/12	2022/7/12
PRA000125	SAA009044	ST015				Hokkaido_w3_2020	Water	"River water"	2020	11	24	2020-11-24T11:40			Cloudy	Asia	Japan	"Ishikarikakokyo Bridge, Mouth of Riv. Ishikari (Ishikari City), Hokkaido"	43.22861111		141.3519444														2.6	4.8	7.6	10.4	14			68			"Grayish brown"																			2023/1/26	2023/1/26
PRA000125	SAA009047	ST015				Iwate_w1-1_2020	Water	"River water"	2020	11	4	2020-11-04T10:22			Cloudy	Asia	Japan	"Toyosawa-bashi Bridge, Riv. Toyosawa (Hanamaki City), Iwate"	39.38166667		141.1191667														8	10	7.3	11	10			<1			"Light green"																			2023/1/26	2023/1/26
PRA000125	SAA009520	ST014				Miyagi_w3_2020	Water	"Sea water"	2020	10	19	2020-10-19T10:12			Cloudy	Asia	Japan	"Sendai Bay (Matsushima Bay), Miyagi"	38.3533333		141.0975														20.2	16.9	7.9	7.6	400			2		1.5	Clear																			2023/1/26	2023/1/26
PRA000125	SAA009521	ST015				Akita_w3_2020	Water	"Lake water"	2020	9	29	2020-09-29T10:00			Fair	Asia	Japan	"Lake Hachiro, Akita"	39.92277778		139.9988889														21.9	20.3	9.2	9.2	20			18		0.5	"Greenish brown_Light"																			2023/1/26	2023/1/26
PRA000125	SAA009522	ST015				Yamagata_w1_2020	Water	"River water"	2020	10	9	2020-10-09T09:15			Fair	Asia	Japan	"Mouth of Riv. Mogami, Yamagata"	38.88722222		139.8433333														17	15	7.5	9.8	14			5			"Light yellow green"																			2023/1/26	2023/1/26
PRA000125	SAA009523	ST014				Fukushima_w1_2020	Water	"Sea water"	2020	10	16	2020-10-16T10:20			Cloudy	Asia	Japan	"Onahama Port, Fukushima"	36.92472222		140.8752778														16	19	8.1	7.3	4600			2		2.6	Clear																			2023/1/26	2023/1/26
PRA000125	SAA009053	ST015				Ibaraki_w2_2020	Water	"River water"	2020	11	12	2020-11-12T10:10			Cloudy	Asia	Japan	"Kamome-ohasi Bridge, Mouth of Riv. Tone (Kamisu City), Ibaraki"	35.77638889		140.7569444														14	15	7.9	8.5	1500			6		1.4	"Light yellow"																			2023/1/26	2023/1/26
PRA000125	SAA009054	ST015				Tochigi_w1-1_2020	Water	"River water"	2020	10	27	2020-10-27T10:20			Fair	Asia	Japan	"Tagawa area-Toshuko Weir (Utsunomiya City), Tochigi"	36.52805556		139.8855556														17.3	16	8.3	11	19			4			Clear																			2023/1/26	2023/1/26
PRA000125	SAA009524	ST015				Gunma_w8_2020	Water	"River water"	2020	9	18	2020-09-18T11:15			Fair	Asia	Japan	"Upstream of Tone-Ozeki, Riv. Tone (Chiyoda machi), Gunma"	36.20611111		139.4341667														31	27.3	7.5	8.9	27			40			"Light brown"																			2023/1/26	2023/1/26
PRA000125	SAA009057	ST015				Saitama_w2_2020	Water	"River water"	2020	11	4	2020-11-04T10:30			Fair	Asia	Japan	"Akigase-Shusuizeki Weir, Riv. Ara (Shiki City), Saitama"	35.84055556		139.6044444														15.1	14.4	7.9	9.7	25			3			"Light yellow green"																			2023/1/26	2023/1/26
PRA000125	SAA009525	ST015				ChibaCity_w1_2020	Water	"River water"	2020	11	10	2020-11-10T10:50			Fair	Asia	Japan	"Mouth of Riv. Hanami (Chiba City), Chiba"	35.63472222		140.0469444														13.5	17.5	7.7	6.9	3600			7			Clear																			2023/1/26	2023/1/26
PRA000125	SAA009061	ST015				Tokyo_w1_2020	Water	"River water"	2020	11	20	2020-11-20T09:50			Cloudy	Asia	Japan	"Mouth of Riv. Arakawa (Koto Ward), Tokyo"	35.64583333		139.8463889														22.8	18.4	7.4	9.2	4300			12		1	"Greenish brown"																			2023/1/26	2023/1/26
PRA000125	SAA009062	ST015				Tokyo_w2_2020	Water	"River water"	2020	11	20	2020-11-20T11:50			Cloudy	Asia	Japan	"Mouth of Riv. Sumida (Minato Ward), Tokyo"	35.66		139.7705556														22.5	19.2	7.5	8	4200			4		4.1	"Dark green"																			2023/1/26	2023/1/26
PRA000125	SAA009064	ST014				YokohamaCity_w3_2020	Water	"Sea water"	2020	11	18	2020-11-18T10:18			Fair	Asia	Japan	"Yokohama Port, Kanagawa"	35.45555556		139.6636111														15.5	19	8.3	8	4500			3		5	Clear																			2023/1/26	2023/1/26
PRA000125	SAA009066	ST015				Niigata_w2_2020	Water	"River water"	2020	11	19	2020-11-19T09:30			Fair	Asia	Japan	"Downstream of Riv. Shinano (Niigata City), Niigata"	37.88305556		139.0155556														17.2	11.5	7.4	10	13			13			"Light yellow"																			2023/1/26	2023/1/26
PRA000125	SAA009526	ST015				Toyama_w2_2020	Water	"River water"	2020	10	15	2020-10-15T12:01			Cloudy	Asia	Japan	"Hagiura-bashi Bridge, Mouth of Riv. Jintsu (Toyama City), Toyama"	36.745		137.2180556														18.5	16.3	7.5	8.4	73			2			Clear																			2023/1/26	2023/1/26
PRA000125	SAA009067	ST015				Ishikawa_w1_2020	Water	"River water"	2020	11	6	2020-11-06T09:37			Cloudy	Asia	Japan	"Mouth of Riv. Sai (Kanazawa City), Ishikawa"	36.60027778		136.5888889														17.1	12.8	7	9.2	220			4			"Yellow green"																			2023/1/26	2023/1/26
PRA000125	SAA009068	ST015				Fukui_w1_2020	Water	"River water"	2020	10	22	2020-10-22T10:00			Cloudy	Asia	Japan	"Mishima-bashi Bridge, Riv. Shono (Tsuruga City), Fukui"	35.6475		136.0627778														19.5	17	7.4	9.7	8.5			<1			Clear																			2023/1/26	2023/1/26
PRA000125	SAA009069	ST015				Nagano_w2_2020	Water	"River water"	2020	10	19	2020-10-19T10:16			Cloudy	Asia	Japan	"Center of Lake Suwa, Nagano"	36.05		138.0861111														11.4	14.1	7.8	9.5	13			10		0.9	"Light yellow green"																			2023/1/26	2023/1/26
PRA000125	SAA009071	ST015				Shizuoka_w7_2020	Water	"River water"	2020	11	12	2020-11-12T11:00			Fair	Asia	Japan	"Kaketsuka-bashi Bridge, Riv. Tenryu (Iwata City), Shizuoka"	34.67888889		137.7958333														21.7	13.5	8.2	11	14			4			"Pale white"																			2023/1/26	2023/1/26
PRA000125	SAA009527	ST014				Aichi_w2-2_2020	Water	"Sea water"	2020	11	10	2020-11-10T13:13			Fair	Asia	Japan	"Nagoya Port, West of Shiomi Wharf, Aichi"	35.07111111		136.8691667														14.7	19	8	7.6	4400			4		2.5	Clear																			2023/1/26	2023/1/26
PRA000125	SAA009077	ST014				Mie_w1_2020	Water	"Sea water"	2020	10	28	2020-10-28T10:15			Cloudy	Asia	Japan	"Yokkaichi Port, Mie"	34.94944444		136.6530556														18.1	18.5	8.6	12.4	3800			5		1.5	"Greenish brown"																			2023/1/26	2023/1/26
PRA000125	SAA009251	ST015				Shiga_w2-2_2020	Water	"Lake water"	2020	10	28	2020-10-28T11:40			Cloudy	Asia	Japan	"Lake Biwa (center, offshore of Karasaki), Shiga"	35.04611111		135.8955556														17.9	18	8.1	9.9	12			1		3	Green																			2023/1/26	2023/1/26
PRA000125	SAA009081	ST015				KyotoCity_w1_2020	Water	"River water"	2020	10	28	2020-10-28T10:00			Cloudy	Asia	Japan	"Miyamae-bashi Bridge, Riv. Katsura (Kyoto City), Kyoto"	34.905		135.7125														17.5	18.5	7.4	9.1	19			1			Clear																			2023/1/26	2023/1/26
PRA000125	SAA009082	ST015				Osaka_w1_2020	Water	"River water"	2020	11	25	2020-11-25T09:00			Fair	Asia	Japan	"Mouth of Riv. Yamato (Sakai City), Osaka"	34.60833333		135.4325														13.7	15.7	7.7	7.7				2		1.3	"Light yellow"																			2023/1/26	2023/1/26
PRA000125	SAA009084	ST014				OsakaCity_w2_2020	Water	"Sea water"	2020	10	27	2020-10-27T08:06			Fair	Asia	Japan	"Osaka Port, Osaka"	34.65861111		135.4313889														17	19	7.6	6	1900			2		2.7	"Light grayish yellow"																			2023/1/26	2023/1/26
PRA000125	SAA009086	ST014				Hyogo_w3_2020	Water	"Sea water"	2020	10	28	2020-10-28T10:30			Fair	Asia	Japan	"Offshore of Himeji, Hyogo"	34.76194444		134.6697222														19.7	21.6	8.1	7.1	4400			4		4	"Greenish blue"																			2023/1/26	2023/1/26
PRA000125	SAA009088	ST014				Kobe_w1_2020	Water	"Sea water"	2020	11	17	2020-11-17T09:50			Fair	Asia	Japan	"Center of Kobe Port, Hyogo"	34.66444444		135.1944444														19	18.5	7.8	7.3				1		5.7	"Greenish brown"																			2023/1/26	2023/1/26
PRA000125	SAA009090	ST015				Wakayama_w1_2020	Water	"River water"	2020	11	6	2020-11-06T14:15			Fair	Asia	Japan	"Kinokawa-ohashi Bridge, Mouth of Riv. Kinokawa (Wakayama City), Wakayama"	34.23		135.1561111														20.5	20	7.3	9	1800			3		2	"Greenish yellow"																			2023/1/26	2023/1/26
PRA000125	SAA009093	ST014				Okayama_w2_2020	Water	"Sea water"	2020	10	26	2020-10-26T10:23			Fair	Asia	Japan	"Offshore of Mizushima, Okayama"	34.48055556		133.665														22.5	21.2	8.1	7.8	4300			<5		3	"Dark yellow green"																			2023/1/26	2023/1/26
PRA000125	SAA009528	ST014				Hiroshima_w2_2020	Water	"Sea water"	2020	11	11	2020-11-11T09:53			Fair	Asia	Japan	"Kure Port, Hiroshima"	34.23361111		132.5391667														14.5	19.9	8	7				1		8	"Bluish green_Dark"																			2023/1/26	2023/1/26
PRA000125	SAA009529	ST014				Hiroshima_w3_2020	Water	"Sea water"	2020	11	11	2020-11-11T12:12			Fair	Asia	Japan	"Hiroshima Bay (Hiroshima City), Hiroshima"	34.34833333		132.4225														16	19.6	8	6.8				2		5	"Bluish green_Dark"																			2023/1/26	2023/1/26
PRA000125	SAA009095	ST014				Yamaguchi_w1-2_2020	Water	"Sea water"	2020	10	26	2020-10-26T10:30			Fair	Asia	Japan	"Tokuyama Bay, Yamaguchi"	33.99361111		131.7505556														23	23	8.2	6.7				3		4.5	"Bluish green"																			2023/1/26	2023/1/26
PRA000125	SAA009530	ST014				Yamaguchi_w3_2020	Water	"Sea water"	2020	10	12	2020-10-12T10:15			Fair	Asia	Japan	"Offshore of Ube, Yamaguchi"	33.915		131.1975														26.2	22.5	8.1	7.8				2		5	"Grayish green"																			2023/1/26	2023/1/26
PRA000125	SAA009097	ST014				Yamaguchi_w2-2_2020	Water	"Sea water"	2020	11	13	2020-11-13T11:15			Fair	Asia	Japan	"Offshore of Hagi, Yamaguchi"	34.43805556		131.3794444														19	20	8.2	7.5				5		15	"Bluish green"																			2023/1/26	2023/1/26
PRA000125	SAA009531	ST015				Tokushima_w1_2020	Water	"River water"	2020	10	15	2020-10-15T09:35			Fair	Asia	Japan	"Mouth of Riv. Yoshino (Tokushima City), Tokushima"	34.085		134.5913889														21.2	20.6	7.7	9.8	1500			1		3.5	Green																			2023/1/26	2023/1/26
PRA000125	SAA009098	ST014				Kagawa_w1_2020	Water	"Sea water"	2020	10	27	2020-10-27T09:00			Fair	Asia	Japan	"Takamatsu Port, Kagawa"	34.34972222		134.0788889														17.3	20.6	7.6	5.7				3		1	"Greenish blue"																			2023/1/26	2023/1/26
PRA000125	SAA009532	ST015				Kochi_w2_2020	Water	"River water"	2020	10	2	2020-10-02T08:48			Fair	Asia	Japan	"Mouth of Riv. Shimanto (Shimanto City), Kochi"	32.93777778		132.8441667														23	21	7.6	8.3	290			1.6			Clear																			2023/1/26	2023/1/26
PRA000125	SAA009103	ST014				KitakyushuCity_w1_2020	Water	"Sea water"	2020	11	18	2020-11-18T09:15			Fair	Asia	Japan	"Dokai Bay (Kitakyushu City), Fukuoka"	33.90388889		130.8158333														19	18	8.1	7.8	4600			<1		3.5	Clear																			2023/1/26	2023/1/26
PRA000125	SAA009105	ST014				Saga_w1_2020	Water	"Sea water"	2020	10	28	2020-10-28T10:23			Cloudy	Asia	Japan	"Imari Bay, Saga"	33.34		129.8208333														15	22	8.4	5.1	4300			14		3.3	Clear																			2023/1/26	2023/1/26
PRA000125	SAA009533	ST014				Nagasaki_w1_2020	Water	"Sea water"	2020	10	30	2020-10-30T11:30			Fair	Asia	Japan	"Omura Bay, Nagasaki"	32.98833333		129.8522222														20.1	20	8.2	7.5				<1		5.5	"Greenish blue_Light"																			2023/1/26	2023/1/26
PRA000125	SAA009534	ST015				Kumamoto_w1_2020	Water	"River water"	2020	10	13	2020-10-13T10:30			Fair	Asia	Japan	"Hiraki-bashi Bridge, Riv. Midori (Uto City), Kumamoto"	32.71638889		130.6422222														24.6	21.9	7.9	8.9	420			20			"Light gray"																			2023/1/26	2023/1/26
PRA000125	SAA009535	ST015				Miyazaki_w3_2020	Water	"River water"	2020	10	28	2020-10-28T10:17			Fair	Asia	Japan	"Mouth of Riv. Oyodo (Miyazaki City), Miyazaki"	31.89611111		131.4402778														23	18.5	7.7	9.3	260			2			Clear																			2023/1/26	2023/1/26
PRA000125	SAA009536	ST015				Kagoshima_w1_2020	Water	"River water"	2020	9	29	2020-09-29T13:10			Fair	Asia	Japan	"Shinkawa-bashi Bridge, Riv. Amori (Kirishima City), Kagoshima"	31.7225		130.7416667														25.2	20.2	7.5	8.8				5			Clear																			2023/1/26	2023/1/26
PRA000125	SAA009537	ST015				Kagoshima_w2_2020	Water	"River water"	2020	10	12	2020-10-12T11:42			Fair	Asia	Japan	"Gotanda-bashi Bridge, Riv. Gotanda (Ichikikushikino City), Kagoshima"	31.72583333		130.2769444														25.6	24.6	8.8	11				4			Clear																			2023/1/26	2023/1/26
PRA000125	SAA009110	ST014				Okinawa_w1_2020	Water	"Sea water"	2020	10	14	2020-10-14T11:20			Fair	Asia	Japan	"Naha Port, Okinawa"	26.21222222		127.665														27.3	27.3	7.6	6.3	4500			10		1.2	Clear																			2023/1/26	2023/1/26
PRA000125	SAA009538	ST024				Hokkaido_sed2-123_2020	Sediment	"River sediment"	2020	11	24	"2020-11-24T11:00; T11:15; T11:30"			"Cloudy; Cloudy; Cloudy"	Asia	Japan	"Ishikarikakokyo Bridge, Mouth of Riv. Ishikari (Ishikari City), Hokkaido"	43.22861111		141.3519444														"2.7; 2.8; 2.9"	"4.8; 4.8; 4.8"										"5.0; 5.5; 5.0"			"Blackish brown; Brown; Blackish brown"	"Grayish brown; Grayish brown; Grayish brown"	"Odorless; Odorless; Odorless"		"53.8; 22.1; 42.9 (Each) / 49.0 (Mixed)"	"8.3; 1.5 5.7 (Each) / 5.7 (Mixed)"									"n=3 pooled"	2023/2/15	2023/2/15
PRA000125	SAA009539	ST023				Hokkaido_sed3-123_2020	Sediment	"Marine sediment"	2020	9	9	"2020-09-09T10:40; T10:50; T11:10"			"Fair; Fair; Fair"	Asia	Japan	"Tomakomai Port, Hokkaido"	42.63138889		141.6288889														"26.0; 26.1; 25.6"	"22.0; 22.0; 22.0"										"23.3; 22.2; 22.5"	"16; 16; 16"		"Black; Black; Black"	"Greenish blue; Greenish blue; Greenish blue"	"Hydrogen sulfide odor; Hydrogen sulfide odor; Hydrogen sulfide odor"		"50.8; 35.8; 34.1 (Each) / 47.2 (Mixed)"	"7.4; 3.8; 3.2 (Each) / 4.8 (Mixed)"									"n=3 pooled"	2023/2/15	2023/2/15
PRA000125	SAA009540	ST024				Iwate_sed1-123_2020	Sediment	"River sediment"	2020	11	4	"2020-11-04T11:25; T11:30; T11:40"			"Fair; Fair; Fair"	Asia	Japan	"Toyosawa-bashi Bridge, Riv. Toyosawa (Hanamaki City), Iwate"	39.38166667		141.1191667														"8.0; 8.8; 10.8"	"10.0; 10.8; 10.8"										"10.2; 10.0; 10.8"	"0.1; 0.1; 0.1"	"Sand mixed with pebbles; Sand mixed with pebbles; Sand mixed with pebbles"	"Brown_Light; Brown_Light; Brown_Light"	"Green_Light; Green_Light; Green_Light"	"Odorless; Odorless; Odorless"	"Vegetative pieces; Vegetative pieces; Vegetative pieces"	"20.5; 19.2; 24.0 (Each) / 22.8 (Mixed)"	"1.8; 1.6; 1.9 (Each) / 1.6 (Mixed)"									"n=3 pooled"	2023/2/15	2023/2/15
PRA000125	SAA009541	ST023				Miyagi_sed1_123_2020	Sediment	"Marine sediment"	2020	10	19	"2020-10-19T10:12; T10:58; T11:20"			"Cloudy; Cloudy; Cloudy"	Asia	Japan	"Sendai Bay (Matsushima Bay), Miyagi"	38.3533333		141.0975														"20.2; 19.7; 19.7"	"16.9; 16.6; 16.6"								"1.5; 1.5; 1.6"		"19.5; 17.7; 17.6"	"4.6; 4.8; 4.1"	"Mud; Mud; Mud"	"Grayish green; Grayish green; Grayish green"	"Clear; Clear; Clear"	"Seaweed odor_Faint; Seaweed odor_Faint; Seaweed odor_Faint"	"None; Stone; Shell"	"64.1; 62.5; 61.4 (Each) / 69.0 (Mixed)"	"13.8; 13.2; 12.7 (Each) / 9.7 (Mixed)"									"n=3 pooled"	2023/2/15	2023/2/15
PRA000125	SAA009542	ST024				Sendai_sed1_123_2020	Sediment	"River sediment"	2020	11	10	"2020-11-10T10:20; T10:00; T09:50"			Fair	Asia	Japan	"Hirose-ohashi Bridge, Riv. Hirose (Sendai City), Miyagi"	38.21333333		140.9088889														"7.0; 7.0; 7.0"	"10.2; 10.2; 10.2"										"11; 11; 12"	"0.15; 0.26; 0.47"	"Sand; Sand; Sand"	"Grayish black; Grayish black; Grayish black"	"Clear; Clear; Clear"	"Swampy odor; Swampy odor; Strong_Swampy odor"	"None; None; None"	"20.5; 23.8; 20.9 (Each) / 19.8 (Mixed)"	"1.1; 1.1; 1.3 (Each) / 1.0 (Mixed)"									"n=3 pooled:SAA009257, SAA009258, SAA009259"	2023/2/15	2023/2/15
PRA000125	SAA009543	ST024				Akita_sed2-123_2020	Sediment	"Lake sediment"	2020	9	29	"2020-09-29T11:27; T10:34; T11:55"			"Fair; Fair; Fair"	Asia	Japan	"Lake Hachiro, Akita"	39.92277778		139.9988889														"23.0; 21.9; 23.0"	"20.5; 20.3; 20.6"								"0.5; 0.5; 0.5"		"19.6; 19.9; 20.0"	"6; 7.4; 7.6"	"Mud; Mud; Mud"	"Grayish black; Grayish black; Grayish black"	"Greenish brown_Light; Greenish brown_Light; Greenish brown_Light"	"Earthy odor_Faint; Earthy odor_Faint; Earthy odor_Faint"	"None; None; None"	"78.2; 79.2; 78.4 (Each) / 75.7 (Mixed)"	"11.5; 12.4; 12.4 (Each) / 8.4 (Mixed)"									"n=3 pooled"	2023/2/15	2023/2/15
PRA000125	SAA009544	ST024				Yamagata_sed1-123_2020	Sediment	"River sediment"	2020	10	9	"2020-10-09T10:18; T10:13; T10:07"			"Fair; Fair; Fair"	Asia	Japan	"Mouth of Riv. Mogami (Sakata City), Yamagata"	38.88722222		139.8433333														"17.0; 17.0; 17.0"	"15.0; 15.0; 15.0"										"16.9; 16.9; 16.9"	"0.3; 0.3; 0.3"	"Fine sand; Fine sand; Fine sand"	"Grayish black; Grayish black; Grayish black"	"Yellow green_Light; Yellow green_Light; Yellow green_Light"	"Earthy odor; Earthy odor; Earthy odor"	"Vegetative pieces; Vegetative pieces; Vegetative pieces"	"33.5; 34.2; 31.5 (Each) / 33.9 (Mixed)"	"3.7; 4.5; 3.1 (Each) / 3.1 (Mixed)"									"n=3 pooled"	2023/2/15	2023/2/15
PRA000125	SAA009545	ST023				Fukushima_sed1-123_2020	Sediment	"Marine sediment"	2020	10	16	"2020-10-16T11:17; T11:48; T12:19"			"Cloudy; Cloudy; Cloudy"	Asia	Japan	"Onahama Port, Fukushima"	36.92472222		140.8752778														"16.0; 20.2; 21.5"	"19.0; 19.4; 19.6"								"2.6; 3.4; 4.2"		"17.3; 19.8; 19.8"	"14.4; 15.3; 15.5"	"Mud; Mud; Mud"	"Grayish green; Grayish green; Grayish green"	"Bluish green; Bluish green; Bluish green"	"Odorless; Seaweed odor_Faint; Seaweed odor_Faint"	"Pebbles; None; None"	"47.0; 49.0; 53.0 (Each) / 54.2 (Mixed)"	"8.7; 9.4; 9.5 (Each) / 8.2 (Mixed)"									"n=3 pooled"	2023/2/15	2023/2/15
PRA000125	SAA009546	ST024				Ibaraki_sed1-123_2020	Sediment	"River sediment"	2020	11	12	"2020-11-12T09:45; T10:10; T11:20"			"Cloudy; Cloudy; Cloudy"	Asia	Japan	"Kamome-ohasi Bridge, Mouth of Riv. Tone (Kamisu City), Ibaraki"	35.77638889		140.7569444														"13.0; 14.0; 14.0"	"15.0; 15.0; 14.5"								"0.7; 1.5; 1.2"			"1.4; 7.5; 1.3"	"Mud; Mud; Sandy"	"Black; Black; Black"	"Yellow_Light; Yellow_Light; Yellow_Light"	"Odorless; Odorless; Odorless"	"Little; Little; None"	"37.0; 49.0; 24.0 (Each) / 48.4 (Mixed)"	"7.1; 9.5; 1.1 (Each) / 5.7 (Mixed)"									"n=3 pooled: SAA009263, SAA009264, SAA009265"	2023/2/15	2023/2/15
PRA000125	SAA009547	ST024				Tochigi_sed1-123_2020	Sediment	"River sediment"	2020	10	27	"2020-10-27T09:25; T11:37; T12:05"			"Fair; Fair; Fair"	Asia	Japan	"Tagawa area-Toshuko Weir (Utsunomiya City), Tochigi"	36.52805556		139.8855556														"17.0; 17.5; 17.7"	"15.0; 16.0; 16.3"										"13.5; 13.0; 13.2"	"0.6; 0.65; 0.65"	"Gravel;Gravel; Sand"	"Brown; Brown; Brown"	"Clear; Clear; Clear"	"Odorless; Odorless; Odorless"		"/ 21.9 (Mixed)"	" / 1.0 (Mixed)"									"n=3 pooled"	2023/2/15	2023/2/15
PRA000125	SAA009548	ST023				Chiba_sed1-123_2020	Sediment	"Marine sediment"	2020	10	27	"2020-10-27T10:10; T11:00; T11:13"			"Cloudy; Cloudy; Cloudy"	Asia	Japan	"Ichihara-Anesaki Coast, Chiba"	35.52166667		140.0283333														"17.4; 20.4; 20.2"	"19.1; 19.1; 19.1"								"4.7; 4.9; 4.3"		"20.2; 19.8; 19.9"	"18.5; 18.9; 18.8"	"Silt; Silt; Silt"	"Black; Black; Black"	"Dark green; Dark green; Dark green"	"Hydrogen sulfide odor_Strong; Hydrogen sulfide odor_Strong; Hydrogen sulfide odor_Strong"	"Seashell pieces; Seashell pieces; Seashell pieces"	"72.8; 72.6; 69.8 (Each) / 80.4 (Mixed)"	"14.6; 14.3; 13.3 (Each) / 11.4 (Mixed)"									"n=3 pooled"	2023/2/15	2023/2/15
PRA000125	SAA009549	ST024				ChibaCity_sed1-123_2020	Sediment	"River sediment"	2020	11	10	"2020-11-10T11:10; T11:44; T12:15"			"Fair; Fair; Fair"	Asia	Japan	"Mouth of Riv. Hanami (Chiba City), Chiba"	35.63472222		140.0469444														"12.0; 14.0; 13.0"	"17.5; 19.5; 20.5"										"15.0; 18.5; 18.5"	"2; 1.7; 1.8"	"Mud; Mud; Mud"	"Grayish black; Grayish black; Grayish black"	"Clear; Clear; Clear"	"Seaweed odor; Seaweed odor; Seaweed odor"	"Shellfish; Shellfish; Shellfish"	"24.0; 25.8; 26.9 (Each) / 23.0 (Mixed)"	"2.4; 2.5; 2.5 (Each) / 1.8 (Mixed)"									"n=3 pooled"	2023/2/15	2023/2/15
PRA000125	SAA009550	ST024				Tokyo_sed1-123_2020	Sediment	"River sediment"	2020	11	20	"2020-11-20T09:50; T10:33; T10:54"			"Cloudy; Cloudy; Cloudy"	Asia	Japan	"Mouth of Riv. Arakawa (Koto Ward), Tokyo"	35.64583333		139.8463889														"22.8; 23.1; 22.8"	"18.4; 18.4; 18.9"								"1.0; 1.2; 1.3"		"18.7; 18.7; 18.7"	"4.4; 3.6; 2.7"	"Silt mixed with fine sand; Silt mixed with fine sand; Silt mixed with fine sand"	"Olive black; Olive black; Olive black"	"Greenish brown; Greenish brown; Greenish brown"	"Hydrogen sulfide odor_Faint; Hydrogen sulfide odor_Faint; Hydrogen sulfide odor_Faint"	"Shell; Shell; Shell"	"44.1; 37.9; 42.0 (Each) / 52.9 (Mixed)"	"8.8; 7.4; 7.2 (Each) / 7.4 (Mixed)"									"n=3 pooled: SAA009266, SAA009267, SAA009268"	2023/2/15	2023/2/15
PRA000125	SAA009551	ST024				Tokyo_sed2-123_2020	Sediment	"River sediment"	2020	11	20	"2020-11-20T11:50; T12:32; T12:53"			"Cloudy; Cloudy;Cloudy"	Asia	Japan	"Mouth of Riv. Sumida (Minato Ward), Tokyo"	35.66		139.7705556														"22.5; 23.6; 23.7"	"19.2; 19.2; 19.1"								"4.1; 4.0; 4.0"		"19.6; 19.7; 19.7"	"5.2; 5.1; 4.5"	"Silt; Silt; Silt"	"Black; Black; Black"	"Dark green; Dark green; Dark green"	"Hydrogen sulfide odor_Strong; Hydrogen sulfide odor_Strong; Hydrogen sulfide odor_Strong"	"Shell, Fallen leaves; Shell, Vinyl pieces; None"	"52.0; 56.2; 53.5 (Each) / 64.8 (Mixed)"	"12.0; 11.9; 10.4 (Each) / 10.7 (Mixed)"									"n=3 pooled: SAA009269; SAA009270; SAA009271"	2023/2/15	2023/2/15
PRA000125	SAA009552	ST023				Yokohama_sed1-123_2020	Sediment	"Marine sediment"	2020	11	18	"2020-11-18T10:04; T11:03; T09:52"			"Fair; Fair; Fair"	Asia	Japan	"Yokohama Port, Kanagawa"	35.45555556		139.6636111														"17.5; 17.8; 17.0"	"19.2; 18.2; 17.4"								"4.0; 5.0; 4.0"		"19.1; 17.0; 20.0"	"12.5; 13.0; 12.0"	"Mud; Mud; Mud"	"Blackish brown; Blackish brown; Blackish brown"	"Clear; Clear; Clear"	"Hydrogen sulfide odor; Hydrogen sulfide odor; Hydrogen sulfide odor"	"None; None; None"	"66.0; 79.1; 70.3 (Each) / 70.6 (Mixed)"	"9.6; 13.1; 11.1 (Each) / 9.6 (Mixed)"									"n=3 pooled: SAA009272; SAA009273; SAA009274"	2023/2/15	2023/2/15
PRA000125	SAA009553	ST024				Niigata_sed1-123_2020	Sediment	"River sediment"	2020	12	3	"2020-12-03T09:20; T09:45; T10:00"			"Rain; Rain; Rain"	Asia	Japan	"Downstream of Riv. Shinano (Niigata City), Niigata"	37.88305556		139.0155556														"7.2; 7.2; 7.2"	"9.0; 9.0; 9.0"										"9.0; 9.0; 9.0"	"3.2; 4.8; 4.8"	"Mud; Sand; Sand"	"Brown; Brown; Brown"	"Green; Green; Green"	"Earthy odor; Odorless; Odorless"	"Leaves; Twigs; Pebbles"	"29.0; 23.9; 21.0 (Each) / 25.1 (Mixed)"	"2.4; 1.3; 1.0 (Each) / 1.2 (Mixed)"									"n=3 pooled; SAA009275, SAA009276, SAA009277"	2023/2/15	2023/2/15
PRA000125	SAA009554	ST024				Toyama_sed1-123_2020	Sediment	"River sediment"	2020	10	13	"2020-10-13T13:00; T13:15; T13:40"			"Cloudy; Cloudy; Cloudy"	Asia	Japan	"Hagiura-bashi Bridge, Mouth of Riv. Jintsu (Toyama City), Toyama"	36.745		137.2180556														"23.0; 22.6; 23.8"	"19.0; 18.9; 18.2"										"18.9; 19.0; 20.2"	"0.7; 0.5; 0.85"	"Mud; Muddy sand; Muddy sand"	"Gray; Gray; Gray"	"Clear; Clear; Clear"	"Hydrogen sulfide odor_Faint; Hydrogen sulfide odor_Faint; Odorless"	"Leaves, Stems; Leaves, Stems; Stems, Shell"	"34.0; 30.0; 19.0 (Each) / 30.6 (Mixed)"	"5.4; 3.5; 1.5 (Each) / 3.2 (Mixed)"									"n=3 pooled"	2023/2/15	2023/2/15
PRA000125	SAA009555	ST024				Ishikawa_sed1-123_2020	Sediment	"River sediment"	2020	11	6	"2020-11-06T10:44; T12:33; T13:38"			"Cloudy; Cloudy; Cloudy"	Asia	Japan	"Mouth of Riv. Sai (Kanazawa City), Ishikawa"	36.60027778		136.5888889														"17.1; 18.7; 19.0"	"12.8; 13.2; 12.7"											"3.2; 1.6; 0.6"	"Silt; Silt mixed with sand; Sand"	"Blackish brown; Grayish brown; Grayish brown"	"Yellow green; Green; Green"	"Fish rotten odor_Strong; Fish rotten odor_Faint; Fish rotten odor_Faint"	"Pebbles, Shell; Pebbles; Pebbles"	"31.0; 25.0; 24.6 (Each) / 30.5 (Mixed)"	"4.3; 1.7; 1.8 (Each) / 2.1 (Mixed)"									"n=3 pooled: SAA009278, SAA009279, SAA009280"	2023/2/15	2023/2/15
PRA000125	SAA009556	ST024				Fukui_sed1-123_2020	Sediment	"River sediment"	2020	10	22	"2020-10-22T10:00; T10:00; T10:00"			"Cloudy; Cloudy; Cloudy"	Asia	Japan	"Mishima-bashi Bridge, Riv. Shono (Tsuruga City), Fukui"	35.6475		136.0627778														"19.5; 19.5; 19.5"	"17.0; 17.0; 17.0"										"17.0; 17.0; 17.0"	"0.2; 0.2; 0.2"	"Sandy; Sandy; Sandy"	"Brown; Brown; Brown"	"Clear; Clear; Clear"	"Odorless; Odorless; Odorless"	"Stones; Stones; Stones"	"19.6; 20.8; 20.2 (Each) / 20.5 (Mixed)"	"1.8; 1.8; 1.4 (Each) / 0.7 (Mixed)"									"n=3 pooled: SAA009281, SAA009282, SAA009283"	2023/2/15	2023/2/15
PRA000125	SAA009557	ST024				Yamanashi_sed1-123_2020	Sediment	"River sediment"	2020	10	27	"2020-10-27T10:21; T09:52; T09:23"			"Fair; Fair; Fair"	Asia	Japan	"Chiaki-bashi Bridge, Riv. Ara (Kofu City), Yamanashi"	35.6475		138.5655556														"16.5; 17.0; 16.5"	"13.5; 13.0; 14.5"										"13.8; 13.0; 14.5"	"0.45; 0.4; 0.5"	"-; -; Sand"	"Gray; Brown; Gray"	"Gray; Brown; Gray"	"River algae odor_Faint; River algae odor_Faint; River algae odor_Faint"	"Sand; Sand; None"	"13.0; 17.0; 29.5 (Each) / 17.2 (Mixed)"	"1.3; 1.1; 1.4 (Each) / 0.9 (Mixed)"									"n=3 pooled"	2023/2/15	2023/2/15
PRA000125	SAA009558	ST024				Nagano_sed1-123_2020	Sediment	"Lake sediment"	2020	10	19	"2020-10-19T10:16; T11:13; T10:16"			"Cloudy; Cloudy; Cloudy"	Asia	Japan	"Center of Lake Suwa, Nagano"	36.05		138.0861111														"11.4; 11.7; 11.3"	"14.1; 14.0; 14.2"								"0.9; 1.3; 1.3"		"13.6; 14.0; 13.6"	"6.0; 6.0; 6.0"	"Mud; Mud; Mud"	"Blackish brown; Blackish brown; Blackish brown"	"Yellow green_Light; Yellow green_Light; Yellow green_Light"	"Swampy odor; Swampy odor; Swampy odor"	"None; None; None"	"78.2; 78.5; 78.8 (Each) / 85.1 (Mixed)"	"14.0; 14.2; 14.4 (Each) / 13.4 (Mixed)"									"n=3 pooled: SAA009284, SAA009285, SAA009286"	2023/2/15	2023/2/15
PRA000125	SAA009559	ST023				Shizuoka_sed1-123_2020	Sediment	"Marine sediment"	2020	10	22	"2020-10-22T10:25; T11:15; T11:32"			"Cloudy; Fair; Fair"	Asia	Japan	"Shimizu Port, Shizuoka"	35.02416667		138.5161111														"21.3; 25.9; 25.0"	"20.1; 20.7; 20.0"								"3.0; 3.2; 3.5"		"21.0; 22.0; 22.0"	"23.9; 20.3; 17.6"	"Sand mixed with clay; Sand mixed with clay; Sand mixed with clay"	"Grayish green_Dark; Grayish green_Dark; Grayish green_Dark"	"Clear; Clear; Clear"	"Odorless; Odorless; Odorless"	"Shellfish, pieces of wood; Shellfish, pieces of wood; Shellfish, pieces of wood"	"23.9; 23.7; 28.0 (Each) / 30.0 (Mixed)"	"19.6; 12.3; 10.6 (Each) / 3.4 (Mixed)"									"n=3 pooled: SAA009287, SAA009288, SAA009289"	2023/2/15	2023/2/15
PRA000125	SAA009560	ST024				Shizuoka_sed6-123_2020	Sediment	"River sediment"	2020	11	12	"2020-11-12T11:00; T12:05; T12:37"			"Fair; Fair; Fair"	Asia	Japan	"Kaketsuka-bashi Bridge, Riv. Tenryu (Iwata City), Shizuoka"	34.67888889		137.7958333														"21.7; 23.0; 20.0"	"13.5; 15.0; 14.8"										"17.0; 13.8; 14.8"	"0.45; 0.45; 0.45"	"Sand; Sand; Sand"	"Grayish brown_Dark; Grayish brown_Dark; Grayish brown_Dark"	"White_Light; White_Light; White_Light"	"Odorless; Odorless; Odorless"	"Pebbles; Pebbles; Pebbles"	"21.1; 21.2; 17.8 (Each) / 19.5 (Mixed)"	"1.4; 1.4; 1.7 (Each) / 1.3 (Mixed)"									"n=3 pooled: SAA009290, SAA009291, SAA009292"	2023/2/15	2023/2/15
PRA000125	SAA009561	ST023				Aichi_sed2-123_2020	Sediment	"Marine sediment"	2020	11	10	"2020-11-10T10:25; T10:30; T10:35"			"Fair; Fair; Fair"	Asia	Japan	"Kinuura Port, Aichi"	34.84166667		136.9486111														"13.7; 13.7; 13.7"	"18.0; 18.0; 18.0"								"4.0; 4.0; 4.0"		"19.5; 19.5; 19.5"	"13.6; 13.6; 13.6"	"Mud; Mud; Mud"	"Grayish black; Grayish black; Grayish black"	"Clear; Clear; Clear"	"Sewage odor; Sewage odor; Sewage odor"	"None; None; None"	"63.1; 65.4; 65.7 (Each) / 66.8 (Mixed)"	"17.8; 11.5; 11.5 (Each) / 9.5 (Mixed)"									"n=3 pooled"	2023/2/15	2023/2/15
PRA000125	SAA009562	ST023				Aichi_sed1-234_2020	Sediment	"Marine sediment"	2020	11	10	"2020-11-10T13:13; T13:18; T13:23"			"Fair; Fair; Fair"	Asia	Japan	"Nagoya Port, West of Shiomi Wharf, Aichi"	35.07111111		136.8691667														"14.7; 14.7; 14.7"	"19.0; 19.0; 19.0"								"2.5; 2.5; 2.5"		"21.0; 21.0; 21.0"	"18.0; 18.0; 18.0"	"Mud; Mud; Mud"	"Grayish green; Grayish green; Grayish green"	"Clear; Clear; Clear"	"Odorless; Odorless; Odorless"	"None; None; None"	"51.6; 46.9; 53.8 (Each) / 57.6 (Mixed)"	"27.6; 33.8; 23.8 (Each) / 6.7 (Mixed)"									"n=3 pooled"	2023/2/15	2023/2/15
PRA000125	SAA009563	ST023				Mie_sed1-123_2020	Sediment	"Marine sediment"	2020	10	28	"2020-10-28T10:15; T10:15; T10:15"			"Cloudy; Cloudy; Cloudy"	Asia	Japan	"Yokkaichi Port, Mie"	34.94944444		136.6530556														"18.1; 19.1; 20.2"	"18.5; 19.0; 19.0"								"1.5; 1.5; 1.2"		"21.2; 21.3; 21.5"	"7.3; 10.1; 5.7"	"Mud; Mud; Mud"	"Grayish black; Grayish black; Grayish black"	"Greenish brown; Greenish brown; Greenish brown"	"Hydrogen sulfide odor_Faint; Hydrogen sulfide odor_Faint; Hydrogen sulfide odor_Faint"	"Shell; Shell; Shell"	"57.9; 69.4; 43.1 (Each) / 55.4 (Mixed)"	"6.7; 8.4; 4.0 (Each) / 5.9 (Mixed)"									"n=3 pooled: SAA009299, SAA009300, SAA009301"	2023/2/15	2023/2/15
PRA000125	SAA009564	ST023				Mie_sed2-123_2020	Sediment	"Marine sediment"	2020	10	20	"2020-10-20T10:55; T11:30; T11:40"			"Fair; Fair; Fair"	Asia	Japan	"Toba Port, Mie"	34.48083333		136.8486111														"20.1; 20.6; 22.9"	"21.7; 21.8; 21.7"								"2.0; 2.5; 2.5"		"21.1; 22.0; 22.0"	"7.0; 6.0; 6.4"	"Mud; Mud; Mud"	"Grayish brown; Grayish brown; Grayish brown"	"Yellow green; Yellow green; Yellow green"	"Swampy odor_Faint; Swampy odor_Faint; Swampy odor_Faint"	"Shell, pieces of wood; Shell, pieces of wood; Shell, pieces of wood"	"57.0; 52.0; 49.2 (Each) / 44.8 (Mixed)"	"9.9; 7.9; 6.7 (Each) / 7.3 (Mixed)"									"n=3 pooled: SAA009302; SAA009303; SAA009304"	2023/2/15	2023/2/15
PRA000125	SAA009565	ST024				Shiga_sed1-123_2020	Sediment	"Lake sediment"	2020	10	28	"2020-10-28T09:20; T10:25; T10:50"			"Cloudy; Cloudy; Cloudy"	Asia	Japan	"Lake Biwa (center, offshore of Minamihira), Shiga"	35.18527778		135.9733333														"17.0; 19.0; 20.8"	"18.2; 18.1; 19.0"								"3.4; 3.6; 3.8"		"8.5; 8.7; 8.7"	"58.6; 54.3; 49.3"	"Mud; Mud; Mud"	"Blackish brown; Blackish brown; Blackish brown"	"Green; Green; Green"	"Swampy odor; Swampy odor; Swampy odor"		"70.0; 68.7; 68.4 (Each) / 79.9 (Mixed)"	"11.7; 11.5; 11.4 (Each) / 10.5 (Mixed)"									"n=3 pooled"	2023/2/15	2023/2/15
PRA000125	SAA009566	ST024				Shiga_sed2-123_2020	Sediment	"Lake sediment"	2020	10	28	"2020-10-28T11:40; T12:15; T12:40"			"Cloudy; Cloudy; Cloudy"	Asia	Japan	"Lake Biwa (center, offshore of Karasaki), Shiga"	35.04611111		135.8955556														"17.9; 18.0; 19.0"	"18.0; 18.0; 17.5"								"3.0; 3.3; 3.6"		"17.1; 17.8; 17.0"	"3.8; 4.0; 3.4"	"Mud; Mud; Mud"	"Gray; Gray; Gray"	"Green; Green; Green"	"Swampy odor; Swampy odor; Swampy odor"	"Aquatic plants; Aquatic plants; Aquatic plants"	"67.6; 68.6; 64.3 (Each) / 77.4 (Mixed)"	"10.8; 12.1; 10.7 (Each) / 10.6 (Mixed)"									"n=3 pooled"	2023/2/15	2023/2/15
PRA000125	SAA009567	ST024				KyotoCity_sed1-123_2020	Sediment	"River sediment"	2020	10	28	"2020-10-28T10:20; T10:35; T10:45"			"Cloudy; Cloudy; Cloudy"	Asia	Japan	"Miyamae-bashi Bridge, Riv. Katsura (Kyoto City), Kyoto"	34.905		135.7125														"17.5; 17.5; 17.5"	"18.5; 18.5; 18.5"										"18.0; 18.0; 18.0"	"0.8; 0.8; 0.8"	"Sand; Sand; Sand"	"Grayish brown; Grayish brown; Grayish brown"	"Clear; Clear; Clear"	"Odorless; Odorless; Odorless"	"None; None; None"	"14.6; 16.5; 15.9 (Each) / 15.6 (Mixed)"	"1.21; 1.04; 1.33 (Each) / 1.1 (Mixed)"									"n=3 pooled: SAA009305, SAA009306, SAA009307"	2023/2/15	2023/2/15
PRA000125	SAA009568	ST024				Osaka_sed1-123_2020	Sediment	"River sediment"	2020	11	25	"2020-11-25T10:15; T11:03; T11:32"			"Cloudy; Cloudy; Cloudy"	Asia	Japan	"Mouth of Riv. Yamato (Sakai City), Osaka"	34.60833333		135.4325														"13.8; 13.9; 14.0"	"16.5; 16.7; 16.7"								"1.3; 1.5; 1.6"		"17.6; 19.7; 19.2"	"1.3; 1.5; 1.6"	"Silt mixed with sand; Silt mixed with sand; Silt"	"Dark olive gray; Olive black; Olive black"	"Yellow_Light; Yellow_Light; Yellow_Light"	"Sewage odor; Fishy smell; Fish odor"	"Vegetative pieces; Vegetative pieces; Vegetative pieces"	"29.8; 33.4; 50.8 (Each) / 40.1 (Mixed)"	"3.0; 4.7; 10.1 (Each) / 5.3 (Mixed)"									"n=3 pooled: SAA009308 and 2 other samples"	2023/2/15	2023/2/15
PRA000125	SAA009569	ST024				OsakaCity_sed2-123_2020	Sediment	"River sediment"	2020	10	28	"2020-10-28T09:32; T11:08; T10:28"			"Fair; Fair; Fair"	Asia	Japan	"Kema-bashi Bridge, Riv. Oh (Osaka City), Osaka"	34.71776		135.51961														"17.0; 19.0; 18.6"	"17.6; 17.7; 17.7"										"17.1; 17.7; 18.0"	"2.2; 1.6; 2.9"	"Silt; Silt; Silt"	"Grayish yellow; Grayish yellow; Grayish yellow"	"Grayish yellow_Light; Grayish yellow_Light; Grayish yellow_Light"	"Odorless; Sewage odor_Faint; Sewage odor_Faint"	"Shellfish; Shellfish; Shellfish"	"49.1; 45.0; 48.7 (Each) / 58.3 (Mixed)"	"8.7; 7.9; 8.1 (Each) / 9.6 (Mixed)"									"n=3 pooled; SAA009311; SAA009312; SAA009313"	2023/2/15	2023/2/15
PRA000125	SAA009570	ST023				OsakaCity_sed3-123_2020	Sediment	"Marine sediment"	2020	10	27	"2020-10-27T09:54; T10:06; T10:22"			"Fair; Fair; Fair"	Asia	Japan	"Mouth of Riv. Yodo, Osaka"	34.67638889		135.3975														"18.0; 19.3; 19.0"	"19.3; 19.0; 20.6"								"2.3 2.2; 2.5"		"22.0; 21.0; 21.2"	"6.3; 5.0; 3.7"	"Silt; Silt; Silt"	"Grayish black; Grayish black; Grayish black"	"Grayish yellow_Light; Grayish yellow_Light; Grayish yellow_Light"	"Oily odor; Oily odor; Oily odor_Faint"	"None; Vegetative pieces; Vegetative pieces"	"33.2; 48.0; 51.1 (Each) / 59.8 (Mixed)"	"6.0; 10.4; 11.7 (Each) / 10.3 (Mixed)"									"n=3 pooled"	2023/2/15	2023/2/15
PRA000125	SAA009571	ST023				OsakaCity_sed1-123_2020	Sediment	"Marine sediment"	2020	10	27	"2020-10-27T08:34; T08:06; T08:45"			"Fair; Fair; Fair"	Asia	Japan	"Osaka Port, Osaka"	34.65861111		135.4313889														"15.4; 17.0; 17.0"	"19.0; 19.0; 20.0"								"2.8; 2.7; 2.9"		"22.6; 21.0; 22.3"	"12.0; 12.6; 12.9"	"Silt; Silt; Silt"	"Black; Black; Black"	"Grayish yellow_Light; Grayish yellow_Light; Grayish yellow_Light"	"Hydrogen sulfide odor_Faint; Hydrogen sulfide odor_Faint; Hydrogen sulfide odor_Faint"	"None; Shellfish; None"	"58.3; 57.5; 56.2 (Each) / 68.0 (Mixed)"	"10.3; 9.5; 9.1 (Each) / 9.9 (Mixed)"									"n=3 pooled; SAA009314, SAA009315, SAA009316"	2023/2/15	2023/2/15
PRA000125	SAA009572	ST023				OsakaCity_sed4-123_2020	Sediment	"Marine sediment"	2020	10	27	"2020-10-27T09:03; T09:15; T09:28"			"Fair; Fair; Fair"	Asia	Japan	"Outside of Osaka Port, Osaka"	34.64027778		135.3858333														"17.2; 18.3; 18.0"	"19.4; 21.4; 21.4"								"2.5; 2.8; 2.9"		"21.3; 21.6; 21.0"	"16.3; 12.0; 12.5"	"Silt; Silt; Silt"	"Grayish black; Grayish black; Grayish black"	"Grayish yellow_Light; Grayish yellow_Light; Grayish yellow_Light"	"Hydrogen sulfide odor_Faint; Hydrogen sulfide odor_Faint; Hydrogen sulfide odor_Faint"	"Shellfish; None; None"	"57.7; 50.3; 35.3 (Each) / 61.1 (Mixed)"	"9.2; 7.3; 4.4 (Each) / 7.6 (Mixed)"									"n=3 pooled"	2023/2/15	2023/2/15
PRA000125	SAA009573	ST023				Hyogo_sed1-123_2020	Sediment	"Marine sediment"	2020	10	28	"2020-10-28T10:50; T11:10; T11:30"			"Fair; Fair; Fair"	Asia	Japan	"Offshore of Himeji, Hyogo"	34.76194444		134.6697222														"19.7; 21.1; 21.3"	"21.6; 21.8; 22.4"								"4.0; 4.0; 3.4"		"21.1; 21.0; 21.0"	"10.0; 10.0; 11.0"	"Silt; Silt; Silt"	"Grayish black; Gray; Gray"	"Greenish blue; Greenish blue; Greenish blue"	"Hydrogen sulfide odor; Hydrogen sulfide odor; Hydrogen sulfide odor"	"None; None; None"	"58.3; 59.8; 61.0 (Each) / 71.1 (Mixed)"	"13.4; 17.6; 12.1 (Each) / 9.8 (Mixed)"									"n=3 pooled"	2023/2/15	2023/2/15
PRA000125	SAA009574	ST023				Hyogo_sed2-123_2020	Sediment	"Marine sediment"	2020	11	17	"2020-11-17T09:50; T10:35; T10:50"			"Fair; Fair; Fair"	Asia	Japan	"Center of Kobe Port, Hyogo"	34.66444444		135.1944444														"19.0; 20.5; 21.8"	"18.5; 18.4; 18.5"								"5.7; 5.1; 5.6"		"14.7; 18.3; 18.7"	"9.6; 9.4; 12.5"	"Silt; Silt; Silt"	"Greenish brown; Greenish brown; Greenish brown"	"Greenish brown; Greenish brown; Greenish brown"	"Hydrogen sulfide odor; Hydrogen sulfide odor; Hydrogen sulfide odor"	"Pebbles; Shell, pebbles; None"	"51.4; 43.1; 54.0 (Each) / 64.0 (Mixed)"	"9.2; 7.8; 9.5 (Each) / 8.2 (Mixed)"									"n=3 pooled: SAA009317, SAA009318, SAA009319"	2023/2/15	2023/2/15
PRA000125	SAA009575	ST024				Nara_sed1_123_2020	Sediment	"River sediment"	2020	10	21	"2020-10-21T10:30; T11:10; T10:50"			"Fair; Fair; Fair"	Asia	Japan	"Taisho-bashi Bridge, Riv. Yamato (Oji town), Nara"	34.58583333		135.6833333														"18.5; 18.5; 18.5"	"18.5; 19.5; 19.7"										"18.5; 19.5; 19.7"	"0.3; 0.3; 0.3"	"Sand; Sand; Sand"	"Gray; Gray; Dark brown"	"Grayish yellow green_Light; Grayish yellow green_Light; Grayish yellow green_Light"	"Fishy smell; Fishy smell; Fishy smell"	"None; None; None"	"22.0; 25.0; 26.0 (Each) / 21.6 (Mixed)"	"0.9; 0.9; 0.5 (Each) / 0.8 (Mixed)"									"n=3 pooled: SAA009320, SAA009321, SAA009322"	2023/2/15	2023/2/15
PRA000125	SAA009576	ST024				Wakayama_sed1-3_2020	Sediment	"River sediment"	2020	11	6	"2020-11-06T13:30; T13:50; T13:15"			"Fair; Fair; Fair"	Asia	Japan	"Kinokawa-ohashi Bridge, Mouth of Riv. Kinokawa (Wakayama City), Wakayama"	34.23		135.1561111														"20.3; 22.1; 22.1"	"18.8; 20.7; 16.3"								"1.5; 2.0; 2.5"		"22.4; 23.4; 22.9"	"5.0; 3.0; 3.5"	"Sand; Sand; Sand"	"Grayish yellow; Grayish yellow; Grayish yellow"	"Greenish yellow_Medium; Greenish yellow_Medium; Greenish yellow_Medium"	"Seaweed odor; Seaweed odor; Seaweed odor"	"Dead leaves; None; Dead leaves"	"27.7; 31.4; 36.9 (Each) / 40.7 (Mixed)"	"4.9; 5.8; 6.8 (Each) / 5.1 (Mixed)"									"n=3 pooled"	2023/2/15	2023/2/15
PRA000125	SAA009577	ST023				Okayama_sed1-123_2020	Sediment	"Marine sediment"	2020	10	26	"2020-10-26T11:20; T11:30; T11:50"			"Fair; Fair; Fair"	Asia	Japan	"Offshore of Mizushima, Okayama"	34.48055556		133.665														"22.5; 24.5; 24.8"	"21.5; 22.0; 21.5"								"3.0; 3.5; 2.8"		"21.4; 21.0; 21.3"	"9.8; 9.7; 8.5"	"Ooze; Ooze; Ooze"	"Grayish green; Grayish green; Grayish green"	"Yellow green_Dark; Yellow green_Dark; Yellow green_Dark"	"Earthy odor; Earthy odor; Earthy odor"	"Seashell pieces; Seashell pieces; Seashell pieces"	"44.9; 45.9; 49.0 (Each) / 44.4 (Mixed)"	"5.7; 5.4; 6.5 (Each) / 5.2 (Mixed)"									"n=3 pooled:SAA009323, SAA009324, SAA009325"	2023/2/15	2023/2/15
PRA000125	SAA009578	ST023				Hiroshima_sed1-123_2020	Sediment	"Marine sediment"	2020	11	11	"2020-11-11T09:53; T10:10; T10:18"			"Fair; Fair; Fair"	Asia	Japan	"Kure Port, Hiroshima"	34.23361111		132.5391667														"14.5; 16.0; 16.6"	"19.9; 20.1; 20.2"								"8.0; 6.0; 6.0"		"19.7; 20.3; 20.6"	"18.0; 17.0; 18.0"	"Silt; Silt; Silt"	"Gray_Dark; Grayish green_Dark; Grayish green_Dark"	"Bluish green_Dark; Bluish green_Dark; Bluish green_Dark"	"Odorless; Hydrogen sulfide odor_Faint; Hydrogen sulfide odor_Faint"	"None; None; None"	"61.3; 61.1; 60.9 (Each) / 70.7 (Mixed)"	"11.2; 10.4; 10.2 (Each) / 10.7 (Mixed)"									"n=3 pooled"	2023/2/15	2023/2/15
PRA000125	SAA009579	ST023				Hiroshima_sed2-123_2020	Sediment	"Marine sediment"	2020	11	11	"2020-11-11T12:12; T12:32; T12:41"			"Fair; Fair; Fair"	Asia	Japan	"Hiroshima Bay (Hiroshima City), Hiroshima"	34.34833333		132.4225														"16.0; 15.8; 16.5"	"19.6; 19.7; 19.9"								"5.0; 3.5; 8.0"		"19.7; 19.9; 20.0"	"10.0; 11.0; 13.0"	"Silt; Silt; Silt"	"Grayish green_Dark; Grayish green_Dark; Grayish green_Dark"	"Bluish green_Dark; Bluish green_Dark; Bluish green_Dark"	"Odorless; Odorless; Odorless"	"None; None; None"	"54.9; 52.9; 54.3 (Each) / 65.1 (Mixed)"	"10.9; 10.4; 10.2 (Each) / 10.8 (Mixed)"									"n=3 pooled"	2023/2/15	2023/2/15
PRA000125	SAA009580	ST023				Yamaguchi_sed1-123_2020	Sediment	"Marine sediment"	2020	10	26	"2020-10-26T10:40; T10:45; T10:50"			"Fair; Fair; Fair"	Asia	Japan	"Tokuyama Bay, Yamaguchi"	33.99361111		131.7505556														"23.0; 23.0; 23.0"	"23.0; 23.0; 23.0"								"4.5; 4.5; 4.5"		"21.0; 21.0; 21.0"	"19.2; 19.2; 19.2"	"Silt; Silt; Silt"	"Grayish yellow green; Grayish yellow green; Grayish yellow green"	"Bluish green; Bluish green; Bluish green"	"Hydrogen sulfide odor_Faint; Hydrogen sulfide odor_Faint; Hydrogen sulfide odor_Faint"	"None; None; None"	"51.7; 52.3; 51.2 (Each) / 63.9 (Mixed)"	"10.8; 11.8; 11.8 (Each) / 8.2 (Mixed)"									"n=3 pooled: SAA009326, SAA009327, SAA009328"	2023/2/15	2023/2/15
PRA000125	SAA009581	ST023				Yamaguchi_sed2-123_2020	Sediment	"Marine sediment"	2020	10	12	"2020-10-12T10:15; T10:20; T10:25"			"Fair; Fair; Fair"	Asia	Japan	"Offshore of Ube, Yamaguchi"	33.915		131.1975														"26.2; 26.2; 26.2"	"22.5; 22.5; 22.5"								"5.0; 5.0; 5.0"		"22.0; 22.0; 22.0"	"9.8; 9.8; 9.8"	"Silt; Silt; Silt"	"Grayish green; Grayish green; Grayish green"	"Grayish green; Grayish green; Grayish green"	"Odorless; Odorless; Odorless"	"None; None; None"	"35.5; 33.9; 33.3 (Each) / 42.7 (Mixed)"	"6.1; 5.8; 5.8 (Each) / 4.8 (Mixed)"									"n=3 pooled"	2023/2/15	2023/2/15
PRA000125	SAA009582	ST023				Yamaguchi_sed3-123_2020	Sediment	"Marine sediment"	2020	11	13	"2020-11-13T11:20; T11:25; T11:30"			"Fair; Fair; Fair"	Asia	Japan	"Offshore of Hagi, Yamaguchi"	34.43805556		131.3794444														"19.0; 19.0; 19.0"	"20.0; 20.0; 20.0"								"15.0; 15.0; 15.0"		"19.0; 19.0; 19.0"	"28.0; 28.0; 28.0"	"Fine sand; Fine sand; Fine sand"	"Light gray; Light gray; Light gray"	"Bluish green; Bluish green; Bluish green"	"Odorless; Odorless; Odorless"	"None; None; None"	"30.0; 29.8; 29.8 (Each) / 32.0 (Mixed)"	"6.2; 6.2; 6.1 (Each) / 4.0 (Mixed)"									"n=3 pooled: SAA009329, SAA009330, SAA009331"	2023/2/15	2023/2/15
PRA000125	SAA009583	ST024				Tokushima_sed1-123_2020	Sediment	"River sediment"	2020	10	15	"2020-10-15T10:00; T09:20; T10:10"			"Fair; Fair; Fair"	Asia	Japan	"Mouth of Riv. Yoshino (Tokushima City), Tokushima"	34.085		134.5913889														"21.2; 21.0; 21.8"	"20.6; 20.8; 20.4"								"3.5; 3.0; 4.0"		"22.9; 23.4; 23.3"	"5.3; 5.0; 5.6"	"Clay mixed with sand; Sand; Clay"	"Grayish black; Grayish black; Grayish black_Dark"	"Green; Green; Green"	"Sewage odor_Faint; Odorless; Sewage odor_Faint"	"Vegetative pieces; None; Vegetative pieces"	"22.0; 23.0; 43.0 (Each) / 32.0 (Mixed)"	"1.6; 1.1; 8.4 (Each) / 2.9 (Mixed)"									"n=3 pooled"	2023/2/15	2023/2/15
PRA000125	SAA009584	ST023				Kagawa_sed1-123_2020	Sediment	"Marine sediment"	2020	10	27	"2020-10-27T09:10; T09:20; T09:30"			"Fair; Fair; Fair"	Asia	Japan	"Takamatsu Port, Kagawa"	34.34972222		134.0788889														"17.3; 15.4; 17.3"	"20.6; 21.3. 20.5"								"1.0; 1.0; 2.0"		"21.3; 21.3; 21.0"	"2.6; 6.0; 5.8"	"Mud; Sand; Sand and mud"	"Black; Black; Black"	"Greenish blue; Greenish white; Greenish blue"	"Hydrogen sulfide odor; Hydrogen sulfide odor_Faint; Hydrogen sulfide odor"	"Vegetative pieces, Shell; Vegetative pieces, Vinyl pieces; None"	"72.4; 30.4; 67.1 (Each) / 54.3 (Mixed)"	"21.7; 2.5; 15.5 (Each) / 7.2 (Mixed)"									"n=3 pooled: SAA009332, SAA009333, SAA009334"	2023/2/15	2023/2/15
PRA000125	SAA009585	ST023				Ehime_sed1-123_2020	Sediment	"Marine sediment"	2020	10	27	"2020-10-27T10:00; T10:10; T10:20"			"Fair; Fair; Fair"	Asia	Japan	"Niihama Port, Ehime"	33.98777778		133.3144444														"21.2; 21.2; 21.2"	"22.0; 22.0; 22.0"								"5.5; 5.5; 5.5"		"22.0; 22.0; 22.0"	"6.51; 6.51; 6.51"	"Fine sand; Fine sand; Fine sand"	"Grayish green_Dark; Grayish green_Dark; Grayish green_Dark"	"Yellow green_Dark; Yellow green_Dark; Yellow green_Dark"	"Odorless; Odorless; Odorless"	"None; None; None"	"25.0; 24.8; 22.5 (Each) / 23.5 (Mixed)"	"2.8; 2.5; 2.2 (Each) / 1.8 (Mixed)"									"n=3 pooled"	2023/2/15	2023/2/15
PRA000125	SAA009586	ST024				Kochi_sed1-123_2020	Sediment	"River sediment"	2020	10	2	"2020-10-02T08:48; T09:22; T10:12"			"Fair; Fair; Fair"	Asia	Japan	"Mouth of Riv. Shimanto (Shimanto City), Kochi"	32.93777778		132.8441667														"23.0; 24.2; 26.4"	"21.0; 21.8; 24.8"										"24.5; 25.0; 25.0"	"2.0; 2.0; 0.1"	"Muddy; Muddy; Muddy"	"Grayish black; Grayish black; Brown"	"Clear; Clear; Clear"	"Hydrogen sulfide odor_Faint; Hydrogen sulfide odor_Faint; Odorless"	"Grass, Wood; Grass, Wood; None"	"24.5; 25.0; 17.3 (Each) / 22.9 (Mixed)"	"3.4; 3.4; 2.2 (Each) / 2.8 (Mixed)"									"n=3 pooled"	2023/2/15	2023/2/15
PRA000125	SAA009587	ST023				KitakyushuCity_sed1-123_2020	Sediment	"Marine sediment"	2020	11	18	"2020-11-18T09:35; T10:00; T10:20"			"Fair; Fair; Fair"	Asia	Japan	"Dokai Bay (Kitakyushu City), Fukuoka"	33.90388889		130.8158333														"19.0; 19.0; 19.0"	"18.0; 18.0; 18.5"								"3.5; 3.5; 3.5"		"19.0; 19.5; 19.0"	"10.3; 11.4; 7.0"	"Mud; Mud; Mud"	"Grayish black; Grayish black; Grayish black"	"Clear; Clear; Clear"	"Earthy odor_Faint; Earthy odor_Faint; Earthy odor_Faint"	"Little; Little; Little"	"46.6; 46.3; 57.3 (Each) / 46.7 (Mixed)"	"7.8; 8.2; 11.6 (Each) / 8.1 (Mixed)"									"n=3 pooled: SAA009338, SAA009339, SAA009340"	2023/2/15	2023/2/15
PRA000125	SAA009588	ST023				FukuokaCity_sed1-123_2020	Sediment	"Marine sediment"	2020	10	20	"2020-10-20T08:47; T09:44; T10:05"			"Fair; Fair; Fair"	Asia	Japan	"Hakata Bay, Fukuoka"	33.60833333		130.3297222														"19.5; 19.8; 20.0"	"21.5; 21.2; 21.5"								"1.9; 2.0; 2.0"		"21.0; 20.0; 20.0"	"7.4; 8.0; 8.4"	"Silt; Silt; Silt"	"Grayish yellow green_Dark; Grayish yellow green_Dark; Grayish yellow green_Dark"	"Green_Dark; Green_Dark; Yellow green_Dark"	"Odorless; Odorless; Odorless"	"None; None; None"	"44.0; 42.0; 49.0 (Each) / 52.9 (Mixed)"	"9.5; 9.5; 10.0 (Each) / 8.3 (Mixed)"									"n=3 pooled: SAA009341, SAA009342, SAA009343"	2023/2/15	2023/2/15
PRA000125	SAA009589	ST023				Saga_sed1-123_2020	Sediment	"Marine sediment"	2020	10	28	"2020-10-28T11:26; T11:53; T12:03"			"Cloudy; Cloudy; Cloudy"	Asia	Japan	"Imari Bay, Saga"	33.34		129.8208333														"25.0; 22.0; 21.5"	"22.0; 21.5; 22.0"								"3.3; 3.5; 3.5"		"21.5; 21.5; 21.0"	"15.5; 14.5; 14.4"	"Mud; Mud; Mud"	"Grayish black; Grayish black; Grayish black"	"Clear; Clear; Clear"	"Earthy odor; Earthy odor; Earthy odor"	"None; None; None"	"68.3; 67.3; 66.3 (Each) / 64.9 (Mixed)"	"11.2; 11.5; 11.0 (Each) / 9.7 (Mixed)"									"n=3 pooled: SAA009344, SAA009345, SAA009346"	2023/2/15	2023/2/15
PRA000125	SAA009590	ST023				Nagasaki_sed1-123_2020	Sediment	"Marine sediment"	2020	11	5	"2020-11-05T10:35; T11:10; T11:50"			"Fair; Fair; Fair"	Asia	Japan	"Omura Bay, Nagasaki"	32.98833333		129.8522222														"18.5; 18.2; 19.6"	"20.5; 20.5; 20.5"								"6.0; 6.5; 5.0"		"20.8; 21.0; 21.6"	"19.2; 20.3; 19.8"	"Sand and mud; Sand and mud; Sand and mud"	"Grayish brown; Grayish brown; Grayish brown"	"Greenish blue_Light; Greenish blue_Light; Greenish blue_Light"	"Hydrogen sulfide odor_Faint; Hydrogen sulfide odor_Faint; Hydrogen sulfide odor_Faint"	"Seashell pieces; Seashell pieces; Seashell pieces"	"72.0; 70.0; 70.0 (Each) / 68.2 (Mixed)"	"13.0; 13.0; 13.0 (Each) / 12.4 (Mixed)"									"n=3 pooled"	2023/2/15	2023/2/15
PRA000125	SAA009591	ST024				Oita_sed1-123_2020	Sediment	"River sediment"	2020	10	26	"2020-10-26T09:44; T10:30; T11:18"			"Fair; Fair; Fair"	Asia	Japan	"Mouth of Riv. Oita, Oita"	33.25722222		131.6175														"19.6; 20.1; 18.9"	"19.6; 19.8; 20.7"										"21.2; 22.7; 22.9"	"1.5; 3.2; 3.4"	"Muddy sand; Sand; Sand"	"Black; Black; Black"	"Grayish green; Grayish green; Grayish green"	"Hydrogen sulfide odor; Odorless; Smell of dry grass"	"Shell, Gravels; Shell, Gravels, pieces of wood; Shell, Gravels, pieces of wood"	"19.9; 18.9; 18.1 (Each) / 20.6 (Mixed)"	"2.3; 1.6; 1.9 (Each) / 1.8 (Mixed)"									"n=3 pooled: SAA009347, SAA009348, SAA009349"	2023/2/15	2023/2/15
PRA000125	SAA009592	ST024				Miyazaki_sed1-123_2020	Sediment	"River sediment"	2020	10	28	"2020-10-26T10:33; T10:51; T11:22"			"Fair; Fair; Fair"	Asia	Japan	"Mouth of Riv. Oyodo (Miyazaki City), Miyazaki"	31.89611111		131.4402778														"23.0; 24.0; 24.0"	"18.8; 18.8; 19.0"										"19.5; 20.0; 21.0"	"0.44; 0.73; 0.79"	"Pebble, Sand; Pebble, Sand; Pebble, Sand"	"Grayish black_Light; Grayish black_Light; Grayish black_Light"	"Clear; Clear; Clear"	"Odorless; Odorless; Odorless"	"None; None; None"	"20.5; 16.4; 20.6 (Each) / 17.6 (Mixed)"	"1.4; 1.7; 1.6 (Each) / 1.3 (Mixed)"									"n=3 pooled"	2023/2/15	2023/2/15
PRA000125	SAA009593	ST024				Kagoshima_sed1-123_2020	Sediment	"River sediment"	2020	9	29	"2020-09-29T12:15; T11:20; T10:50"			"Fair; Fair; Fair"	Asia	Japan	"Riv. Amori (Kirishima City), Kagoshima"	31.7225		130.7416667														"25.2; 25.0; 25.6"	"20.2; 19.5; 20.4"										"20.7; 21.5; 21.8"	"1.0; 0.5; 1.0"	"Gravel; Gravel; Gravel"	"Blackish brown; Blackish brown; Blackish brown"	"Clear; Clear; Clear"	"Sewage odor_Faint; Earthy odor_Faint; Odorless"	"Pebbles; Pebbles; Pebbles"	"24.0; 22.0; 15.0 (Each) / 24.1 (Mixed)"	"1.6; 1.2; 1.1 (Each) / 1.1 (Mixed)"									"n=3 pooled"	2023/2/15	2023/2/15
PRA000125	SAA009594	ST024				Kagoshima_sed2-123_2020	Sediment	"River sediment"	2020	10	12	"2020-10-12T11:42; T11:13; T10:37"			"Fair; Fair; Fair"	Asia	Japan	"Gotanda-bashi Bridge, Riv. Gotanda (Ichikikushikino City), Kagoshima"	31.72583333		130.2769444														"25.6; 26.0; 24.9"	"24.6; 23.4; 22.2"										"23.7; 23.3; 23.0"	"0.3; 0.3; 0.3"	"Gravel; Gravel; Gravel"	"Brown; Brown; Brown"	"Clear; Clear; Clear"	"Earthy odor_Faint; Earthy odor_Faint; Earthy odor_Faint"	"Pebbles; Pebbles; Pebbles"	"19.0; 25.0; 24.0 (Each) / 24.7 (Mixed)"	"2.0; 1.6; 2.6 (Each) / 2.0 (Mixed)"									"n=3 pooled"	2023/2/15	2023/2/15
PRA000125	SAA009595	ST023				Okinawa_sed1-123_2020	Sediment	"Marine sediment"	2020	10	14	"2020-10-14T11:40; T12:42; T12:20"			"Fair; Fair; Fair"	Asia	Japan	"Naha Port, Okinawa"	26.21222222		127.665														"27.3; 30.8; 27.2"	"27.3; 27.8; 27.5"								"1.2; 1.5; 3.3"		"27.3; 27.3; 27.2"	"7.0; 9.0; 4.1"	"Sludge; Sludge; Sludge"	"Grayish black; Grayish black; Grayish black"	"Green; Green; Green"	"Hydrogen sulfide odor, Sewage odor; Hydrogen sulfide odor, Sewage odor; Hydrogen sulfide odor, Sewage odor"	"Vegetative pieces, Shellfish, Pebbles; Pebbles, Vegetative pieces, Vinyl pieces, Pieces of sponge; Pebbles, Shellfish, Vinyl pieces, Plastic pieces"	"39.2; 41.1; 33.6 (Each) / 49.2 (Mixed)"	"8.8; 10.1; 9.2 (Each) / 8.7  (Mixed)"									"n=3 pooled"	2023/2/15	2023/2/15
PRA000125	SAA009596	ST029				Hokkaido_air2-1_2020	Air	"Outside air"	2020	10	9	2020-10-02T12:01/2020-10-09T12:01		"7days (Oct. 02_09)"	"Fair / Fair"	Asia	Japan	"Kushiro General Subprefectural Bureau, Kushiro city, Hokkaido"	42.97666667		144.385														17.9/15.9																								74/64	SW/SW	3.1/6.3	"1008 m^3"	"Air Sampler: Middle Volume; Weather during 7-day sampling: Fair, Cloudy, Cloudy, Rain, Fair, Fair, Cloudy, Fair; Wind direction:SW, SSE, SSE, WSW, WNW, SW, N, SW; Wind speed: 3.1, 7.6, 5.7, 7.1, 4.7, 4.8, 2.2, 6.3"	2023/3/10	2023/3/10
PRA000125	SAA009603	ST029				SapporoCity_air1-123_2020H	Air	"Outside air"	2020	9		"2020-09-28/09-29; 09-29/09-30; 09-30/10-01"				Asia	Japan	"Sapporo Art Park, Sapporo city, Hokkaido"	42.93861111		141.3402778																																										"Air Sampler: High Volume; n=3 pooled: SAA009600, SAA009601, SAA009602"	2023/3/10	2023/3/10
PRA000125	SAA009610	ST029				Iwate_air1-123_2020H	Air	"Outside air"	2020	9		"2020-09-28/09-29; 09-29/09-30; 09-30/10-01"				Asia	Japan	"Sugo Air Pollution Monitoring Station, Takizawa city, Iwate"	39.78194444		141.1405556																																										"Air Sampler: High Volume; n=3 pooled: SAA009607, SAA009608, SAA009609"	2023/3/10	2023/3/10
PRA000125	SAA009614	ST029				Miyagi_air1-1_2020	Air	"Outside air"	2020	10	23	2020-10-16T11:10/2020-10-23T11:10		"7days (Oct. 16_23)"	"Fair / Rain"	Asia	Japan	"Miyagi Prefectural Institute of Public Health and Environment, Sendai City, Miyagi"	38.2775		140.9052778														15.6/17.3																								51/95	NW/SSE	1.8/3.0	"1008 m^3"	"Air Sampler: Middle Volume; Weather during 7-day sampling: Fair, Cloudy, Cloudy, Cloudy, Fair, Fair, Cloudy, Rain; Wind direction: NW, WSW, NE, SE, SSE, ESE, S, SSE; Wind speed: 1.8, 1.8, 1.4, 2.8, 1.9, 1.9, 2.4, 3.0"	2023/3/10	2023/3/10
PRA000125	SAA009618	ST029				Yamagata_air1-1_2020	Air	"Outside air"	2020	10	2	2020-09-25T09:56/2020-10-02T09:56		"7days (Sep. 25_Oct. 02)"	"Rain / Fair"	Asia	Japan	"Environmental Science Research Center of Yamagata Prefecture, Murayama city, Yamagata"	38.47361111		140.3988889														16.4/18.7																								97/63	NNW/W	3.5/1.2	"1008 m^3"	"Air Sampler: Middle Volume; Weather during 7-day sampling: Rain, Cloudy, Cloudy, Rain, Fair, Fair, Cloudy, Fair; Wind direction: NNW, E, S, NNE, WSW, WSW, SSE, W; Wind speed: 3.5, 0.3, 0.7, 2.0, 1.1, 1.0, 0.6, 1.2"	2023/3/10	2023/3/10
PRA000125	SAA009622	ST029				Ibaraki_air1-7_2020	Air	"Outside air"	2020	10	6	2020-09-29T10:05/2020-10-06T10:15		"7days (Sep. 29_Oct. 06)"	"Fair / Fair"	Asia	Japan	"Ibaraki Kasumigaura Environmental Science Center, Tsuchiura city, Ibaraki"	36.07555556		140.2666667														20.8/20.9																								67/55	NE/N	3.0/1.7	"1009 m^3"	"Air Sampler: Middle Volume; Weather during 7-day sampling: Fair, Fair, Rain, Fair, Fair, Cloudy, Rain, Fair; Wind direction: NE, NE, NNE, NE, S, SW, SW, N; Wind speed: 3.0, 2.3, 1.7, 1.2, 1.4, 0.7, 1.4, 1.7"	2023/3/10	2023/3/10
PRA000125	SAA009626	ST029				Chiba_air2-1_2020	Air	"Outside air"	2020	10	12	2020-10-05T10:00/2020-10-12T10:00		"7days (Oct. 05_12)"	"Cloudy / Cloudy"	Asia	Japan	"Ichiharamatsuzaki Air Pollution Monitoring Station, Ichihara city, Chiba"	35.44861111		140.1363889														25.4/20.5																								68/92	SW/N	2.0/3.6	"1008 m^3"	"Air Sampler: Middle Volume; Weather during 7-day sampling: Cloudy, Fair, Fair, Rain, Rain, Rain, Cloudy, Coudy; Wind direction: SW, NNE, NNE, N, NNE, NNE, N, N; Wind speed: 2.0, 3.2, 5.4, 6.3, 4.3, 4.0, 5.4, 3.6"	2023/3/10	2023/3/10
PRA000125	SAA009630	ST029				Tokyo_air1-7_2020	Air	"Outside air"	2020	10	23	2020-10-16T10:00/2020-10-23T10:05		"7days (Oct. 16_23)"	"Fair / Rain"	Asia	Japan	"Tokyo Metropolitan Research Institute for Environmental Protection, Koto Ward, Tokyo"	35.66833333		139.8241667														15.8/17.2																								58/99	NNE/NW	3.2/1.8	"1013 m^3"	"Air Sampler: Middle Volume; Weather during 7-day sampling: Fair, Rain, Cloudy, Cloudy, Cloudy, Fair, Fair, Rain; Wind direction: NNE, NNW, NNW, NNW, NNW, NNE, NNW, NW; Wind speed: 3.2, 1.7, 2.6, 2.7, 2.4, 2.3, 2.9, 1.8"	2023/3/10	2023/3/10
PRA000125	SAA009634	ST029				Tokyo_air2-7_2020	Air	"Outside air"	2020	10	11	2020-10-04T10:00/2020-10-11T09:40		"7days (Oct. 04_11)"	"Cloudy / Cloudy"	Asia	Japan	"Ogasawara Chichijima, Ogasawara Village, Tokyo"	27.09361111		142.2161111														29.1/28.8																								90/78	NE/NW	3.2/2.8	"1012 m^3"	"Air Sampler: Middle Volume; Weather during 7-day sampling: Cloudy, Rain, Rain, Cloudy, Fair, Fair, Fair, Cloudy; Wind direction: NE, SSE, ESE, SE, SE, E, SE, NW; Wind speed: 3.2, 2.9, 4.9, 9.3, 6.6, 3.4, 1.9, 2.8"	2023/3/10	2023/3/10
PRA000125	SAA009641	ST029				Kanagawa_air1-789_2020H	Air	"Outside air"	2020	10		"2020-10-05/10-06; 10-06/10-07; 10-07/10-08"				Asia	Japan	"Kanagawa Environmental Research Center, Hiratsuka City, Kanagawa"	35.3475		139.3513889																																										"Air Sampler: High Volume; n=3 pooled: SAA009638, SAA009639, SAA009640"	2023/3/10	2023/3/10
PRA000125	SAA009645	ST029				YokohamaCity_air1-4_2020	Air	"Outside air"	2020	10	26	2020-10-19T09:53/2020-10-26T09:57		"7days (Oct. 19_26)"	"Cloudy / Fair"	Asia	Japan	"Yokohama Environmental Research Institute, Yokohama city, Kanagawa"	35.48111111		139.6580556														17.6/20.9																								68/55	N/N	3.7/1.8	"1008 m^3"	"Air Sampler: Middle Volume; Weather during 7-day sampling: Cloudy, Fair, Fair, Fair, Rain, Cloudy, Fair, Fair; Wind direction: N, N, NNE, N, N, N, N, N; Wind speed: 3.7, 5.1, 3.1, 2.9, 2.0, 3.4, 3.7, 1.8"	2023/3/10	2023/3/10
PRA000125	SAA009652	ST029				Niigata_air1-123_2020H	Air	"Outside air"	2020	9		"2020-09-14/09-15; 09-15/09-16; 09-16/09-17"				Asia	Japan	"Oyama Air Pollution Monitoring Station, Niigata city, Niigata"	37.93611111		139.0794444																																										"Air Sampler: High Volume; n=3 pooled: SAA009649, SAA009650, SAA009651"	2023/3/10	2023/3/10
PRA000125	SAA009659	ST029				Toyama_air1-123_2020H	Air	"Outside air"	2020	9		"2020-09-15/09-16; 09-16/09-17; 09-17/09-18"				Asia	Japan	"Tonami Air Pollution Monitoring Station, Tonami city, Toyama"	36.62888889		136.9886111																																										"Air Sampler: High Volume; n=3 pooled: SAA009656, SAA009657, SAA009658"	2023/3/10	2023/3/10
PRA000125	SAA009666	ST029				Ishikawa_air1-789_2020H	Air	"Outside air"	2020	9		"2020-09-14/09-15; 09-15/09-16; 09-16/09-17"				Asia	Japan	"Ishikawa Prefectural Institute of Public Health and Environmental Science, Kanazawa City, Ishikawa"	36.52722222		136.7055556																																										"Air Sampler: High Volume; n=3 pooled: SAA009663, SAA009664, SAA009665"	2023/3/10	2023/3/10
PRA000125	SAA009673	ST029				Yamanashi_air1-123_2020H	Air	"Outside air"	2020	9		"2020-09-14/09-15; 09-15/09-16; 09-16/09-17"				Asia	Japan	"Yamanashi Institute of Public Health and Environment, Kofu city, Yamanashi"	35.67194444		138.5497222																																										"Air Sampler: High Volume; n=3 pooled: SAA009670, SAA009671, SAA009672"	2023/3/10	2023/3/10
PRA000125	SAA009677	ST029				Nagano_air1-7_2020	Air	"Outside air"	2020	10	27	2020-10-20T10:01/2020-10-27T10:00		"7days (Oct. 20_27)"	"Fair / Fair"	Asia	Japan	"Nagano Environmental Conservation Research Institute, Nagano City, Nagano"	36.63555556		138.1786111														13.6/12.0																								72/75	SSW/ESE	1.9/1.0	"1008 m^3"	"Air Sampler: Middle Volume; Weather during 7-day sampling: Fair, Fair, Cloudy, Rain, Fair, Fair, Cloudy, Fair; Wind direction: SSW, WSW, SW, W, SE, S, SSW, ESE; Wind speed: 1.9, 5.5, 4.2, 2.1, 1.5, 1.4, 1.7, 1.0"	2023/3/10	2023/3/10
PRA000125	SAA009684	ST029				Gifu_air1-123_2020H	Air	"Outside air"	2020	10		"2020-10-12/10-13; 10-13/10-14; 10-14/10-15"				Asia	Japan	"Gifu Prefectural Research Institute for Health and Environmental Sciences, Kakamigahara city, Gifu"	35.4075		136.8447222																																										"Air Sampler: High Volume; n=3 pooled: SAA009681, SAA009682, SAA009683"	2023/3/10	2023/3/10
PRA000125	SAA009688	ST029				NagoyaCity_air1-4_2020	Air	"Outside air"	2020	9	15	2020-09-08T10:39/2020-09-15T10:36		"7days (Sep. 08_15)"	"Fair, Cloudy, occasionally rain / Fair, occasionally slightly cloudy"	Asia	Japan	"Chikusa-ku Heiwakoen Park, Nagoya City, Aichi"	35.17055556		136.9788889														27.4/24.2																								77/66	SSE/NNE	4.7/2.4	"1007 m^3"	"Air Sampler: Middle Volume; Weather during 7-day sampling: Fair Cloudy occasionally Rain, Fair Cloudy occasionally Rain,, Cloudy occasionally Rain, Coudy occasionally Rain, Fair occasionally cloudy, Rain Cloudy later, Slightly Cloudy occasionally Fair, Fair occasionally slightly Cloudy; Wind direction: SSE, SW, SSE, SSE, WSW, NW, WNW, NNE; Wind speed: 4.7, 2.1, 2.1, 2.0, 2.5, 2.9, 3.9, 2.4"	2023/3/10	2023/3/10
PRA000125	SAA009695	ST029				Mie_air1-789_2020H	Air	"Outside air"	2020	9		"2020-09-14/09-15; 09-15/09-16; 09-16/09-17"				Asia	Japan	"Mie Prefecture Health and Environment Research Institute, Yokkaichi city, Mie"	34.99166667		136.4855556																																										"Air Sampler: High Volume; n=3 pooled: SAA009692, SAA009693, SAA009694"	2023/3/10	2023/3/10
PRA000125	SAA009702	ST029				Osaka_air1-345_2020H	Air	"Outside air"	2020	10		"2020-10-12/10-13; 10-13/10-14; 10-14/10-15"				Asia	Japan	"Osaka Joint government building No.2 Annex, Osaka city, Osaka"	34.6825		135.5191667																																										"Air Sampler: High Volume; n=3 pooled: SAA009699, SAA009700, SAA009701"	2023/3/10	2023/3/10
PRA000125	SAA009709	ST029				Hyogo_air1-123_2020H	Air	"Outside air"	2020	9		"2020-09-28/09-29; 09-29/09-30; 09-30/10-01"				Asia	Japan	"Hyogo Prefectural Institute of Environmental Sciences, Kobe city, Hyogo"	34.64916667		135.1316667																																										"Air Sampler: High Volume; n=3 pooled: SAA009706, SAA009707, SAA009708"	2023/3/10	2023/3/10
PRA000125	SAA009716	ST029				KobeCity_air1-123_2020H	Air	"Outside air"	2020	10		"2020-10-26/10-27; 10-27/10-28; 10-28/10-29"				Asia	Japan	"Public Health Research Institute of Kobe City, Kobe city, Hyogo"	34.67861111		135.2105556																																										"Air Sampler: High Volume; n=3 pooled: SAA009713; SAA009714; SAA009715"	2023/3/10	2023/3/10
PRA000125	SAA009723	ST029				Nara_air1-123_2020H	Air	"Outside air"	2020	10		"2020-10-26/10-27; 10-27/10-28; 10-28/10-29"				Asia	Japan	"Tenri Air Pollution Monitoring Station, Tenri city, Nara"	34.59333333		135.8291667																																										"Air Sampler: High Volume; n=3 pooled: SAA009720, SAA009721, SAA009722"	2023/3/10	2023/3/10
PRA000125	SAA009730	ST029				Shimane_air1-123_2020H	Air	"Outside air"	2020	10		"2020-10-19/10-20; 10-20/10-21; 10-21/10-22"				Asia	Japan	"Oki Acid Rain Monitoring Station, Okinoshima town, Shimane"	36.28833333		133.1825																																										"Air Sampler: High Volume; n=3 pooled: SAA009727, SAA009728, SAA009729"	2023/3/10	2023/3/10
PRA000125	SAA009737	ST029				HiroshimaCity_air1-123_2020H	Air	"Outside air"	2020	10		"2020-10-19/10-20; 10-20/10-21; 10-21/10-22"				Asia	Japan	"Kokutaiji Junior high school, Hiroshima city, Hiroshima"	34.38472222		132.4580556																																										"Air Sampler: High Volume; n=3 pooled: SAA009734, SAA009735, SAA009736"	2023/3/10	2023/3/10
PRA000125	SAA009741	ST029				Yamaguchi_air1-7_2020	Air	"Outside air"	2020	9	15	2020-09-08T10:00/2020-09-15T10:00		"7days (Sep. 08_15)"	"Fair / Fair"	Asia	Japan	"Yamaguchi Prefectural Institute of Public Health and Environment, Yamaguchi City, Yamaguchi"	34.15277778		131.4333333														29.1/24.8																								56/65	S/WNW	3.7/1.3	"1008 m^3"	"Air Sampler: Middle Volume; Weather during 7-day sampling: Fair, Cloudy, Fair, Rain, Rain, Cloudy, Cloudy, Fair; Wind direction: S, NNW, NNW, SSW, SSE, NE, ENE, WNW; Wind speed: 3.7, 0.5, 0.8, 0.4, 2.2, 3.6, 2.6, 1.3"	2023/3/10	2023/3/10
PRA000125	SAA009745	ST029				Yamaguchi_air3-1_2020	Air	"Outside air"	2020	11	27	2020-11-20T10:00/2020-11-27T10:00		"7days (Nov. 20_27)"	"Cloudy / Cloudy"	Asia	Japan	"Hagi Health and Welfare Center, Hagi city, Yamaguchi"	34.40848		131.39581														18.7/13.8																								68/83	SW/S	2.7/2.7	"1008 m^3"	"Air Sampler: Middle Volume; Weather during 7-day sampling: Cloudy, Cloudy, Fair, Fair, Fair, Cloudy, Fair, Cloudy; Wind direction: SW, NNE, SSE, NW, S, S, WSW, S; Wind speed: 2.7, 4.2, 4.0, 2.7, 2.4, 3.5, 0.8, 2.7"	2023/3/10	2023/3/10
PRA000125	SAA009752	ST029				Tokushima_air1-789_2020H	Air	"Outside air"	2020	10		"2020-10-19/10-20; 10-20/10-21; 10-21/10-22"				Asia	Japan	"Tokushima Prefectural Public health, Pharmaceutical and Environmental Sciences Center, Tokushima city, Tokushima"	34.07		134.5608333																																										"Air Sampler: High Volume; n=3 pooled: SAA009749, SAA009750, SAA009751"	2023/3/10	2023/3/10
PRA000125	SAA009756	ST029				Kagawa_air2-7_2020	Air	"Outside air"	2020	10	21	2020-10-14T10:00/2020-10-21T10:00		"7days (Oct. 14_21)"	"Fair / Fair"	Asia	Japan	"Kagawa Prefectural Research Institute for Environmental Sciences and Public Health, Takamatsu city, Kagawa"	34.35027778		134.0744444														22.0/20.3																								63/66	SW/E	1.3/2.0	"1008 m^3"	"Air Sampler: Middle Volume; Weather during 7-day sampling: Fair, Fair, Slightly Cloudy, Rain, Cloudy, Rain, Fair, fair; Wind direction: SW, E, NNE, W, WSW, NE, NNE, E; Wind speed: 1.3, 1.7, 1.4, 1.1, 1.8, 0.6, 1.0, 2.0"	2023/3/10	2023/3/10
PRA000125	SAA009760	ST029				Kagawa_air1-1_2020	Air	"Outside air"	2020	10	21	2020-10-14T10:00/2020-10-21T10:00		"7days (Oct. 14_21)"	"Fair / Fair"	Asia	Japan	"Kagawa Pref. Synthesis Swimming Pool, Takamatsu City, Kagawa"	34.30861111		133.9802778														22.0/20.3																								63/66	SW/E	1.3/2.0	"1008 m^3"	"Air Sampler: Middle Volume; Weather during 7-day sampling: Fair, Fair, Slightly Cloudy, Rain, Cloudy, Rain, Fair, fair; Wind direction: SW, E, NNE, W, WSW, NE, NNE, E; Wind speed: 1.3, 1.7, 1.4, 1.1, 1.8, 0.6, 1.0, 2.0"	2023/3/10	2023/3/10
PRA000125	SAA009767	ST029				Ehime_air1-123_2020H	Air	"Outside air"	2020	10		"2020-10-05/10-06; 10-06/10-07; 10-07/10-08"				Asia	Japan	"Nanyo General Subprefectural Bureau, Uwajima city, Ehime"	33.22722222		132.57																																										"Air Sampler: High Volume; n=3 pooled: SAA009764, SAA009765, SAA009766"	2023/3/10	2023/3/10
PRA000125	SAA009774	ST029				Fukuoka_air1-789_2020H	Air	"Outside air"	2020	10		"2020-10-20/10-21; 10-21/10-22; 10-22/10-23"				Asia	Japan	"Omuta municipal office, Omuta city, Fukuoka"	33.03027778		130.4458333																																										"Air Sampler: High Volume; n=3 pooled: SAA009771, SAA009772, SAA009773"	2023/3/10	2023/3/10
PRA000125	SAA009778	ST029				Saga_air1-7_2020	Air	"Outside air"	2020	9	16	2020-09-09T09:57/2020-09-16T09:57		"7days (Sep. 09_16)"	"Fair / Rain"	Asia	Japan	"Saga Prefectural Environmental Research Center, Saga city, Saga"	33.27333333		130.2727778														25.0/23.2																								75/96	ENE/E	2.0/0.4	"1008 m^3"	"Air Sampler: Middle Volume; Weather during 7-day sampling: Fair, Fair, Fair, Rain, Fair, Cloudy, Fair, Rain; Wind direction: ENE, ENE, NNE, ENE, NW, NNE, ENE, E; Wind speed: 2.0, 0.6, 0.8, 2.6, 1.8, 4.1, 1.6, 0.4"	2023/3/10	2023/3/10
PRA000125	SAA009785	ST029				Kumamoto_air1-123_2020H	Air	"Outside air"	2020	10		"2020-10-26/10-27; 10-27/10-28; 10-28/10-29"				Asia	Japan	"Kumamoto Prefectural Institute of Public-Health and Environmental Science, Uto city, Kumamoto"	32.66583333		130.6530556																																										"Air Sampler: High Volume; n=3 pooled: SAA009782, SAA009783, SAA009784"	2023/3/10	2023/3/10
PRA000125	SAA009789	ST029				Miyazaki_air1-1_2020	Air	"Outside air"	2020	10	12	2020-10-05T10:08/2020-10-12T10:08		"7days (Oct. 05_12)"	"Rain / Fair"	Asia	Japan	"Miyazaki Prefectural Institute for Public Health and Environment, Miyazaki city, Miyazaki"	31.83305556		131.4152778														25.0/24.3																								73/71	WNW/ESE	2.7/1.5	"1008 m^3"	"Air Sampler: Middle Volume; Weather during 7-day sampling: Rain, Fair, Fair, Cloudy, Cloudy, Fair, Cloudy, Fair; Wind direction: WNW, ENE, W, NNE, NE, SW, ENE, ESE; Wind speed: 2.7, 2.1, 2.0, 8.4, 4.6, 1.5, 2.7, 1.5"	2023/3/10	2023/3/10
PRA000125	SAA009796	ST029				Kagoshima_air1-123_2020H	Air	"Outside air"	2020	10		"2020-10-19/10-20; 10-20/10-21; 10-21/10-22"				Asia	Japan	"Kagoshima Prefectural Institute for Environmental Research and Public Health, Kagoshima city, Kagoshima"	31.58444444		130.5644444																																										"Air Sampler: High Volume; n=3 pooled: SAA009793, SAA009794, SAA009795"	2023/3/10	2023/3/10
PRA000125	SAA009803	ST029				Okinawa_air1-123_2020H	Air	"Outside air"	2020	9		"2020-09-28/09-29; 09-29/09-30; 09-30/10-01"				Asia	Japan	"Cape Hedo-misaki, Kunigami villedge, Okinawa"	26.87		128.25																																										"Air Sampler: High Volume; n=3 pooled: SAA009800, SAA009801, SAA009802"	2023/3/10	2023/3/10
PRA000126	SAA009808	ST015				No2_Hokkaido_RW_2020	" Water"	"River water"	2020							Asia	Japan	"Kuko-bashi bridge (Upstream from Memambetsu Airport), Tomappu-gawa Riv., Ozora town, Hokkaido"	43.89166667		144.1708333																																											2023/3/23	2023/3/23
PRA000126	SAA009810	ST016				No4_Aomori_GW_2020	" Water"	"Ground water"	2020							Asia	Japan	"Misawa city, Aomori"	40.659801	40.886793	141.31064	141.438539																																										2023/3/23	2023/3/23
PRA000126	SAA009811	ST015				No5_Iwate_RW_2020	" Water"	"River water"	2020							Asia	Japan	"Waga-chuo bashi bridge, Riv. Waga, Kitakami city, Iwate"	39.289927		141.032923																																											2023/3/23	2023/3/23
PRA000126	SAA009813	ST015				No7_Miyagi_RW_2020	" Water"	"River water"	2020							Asia	Japan	"Nenbutsu-bashi bridge, Riv. Sunaoshi, Tagajo city, Miyagi"	38.290561		141.027149																																											2023/3/23	2023/3/23
PRA000126	SAA009815	ST015				No9_Akita_RW_2020	" Water"	"River water"	2020							Asia	Japan	"Kawaguchi-bashi bridge, Riv. Osarube, Kitaakita city, Akita"	40.210639		140.365434																																											2023/3/23	2023/3/23
PRA000126	SAA009816	ST015				No10_Yamagata_RW_2020	" Water"	"River water"	2020							Asia	Japan	"Ochiai-bashi bridge, Riv. Su, Tendo city, Yamagata"	38.34298		140.310905																																											2023/3/23	2023/3/23
PRA000126	SAA009819	ST016				No13_Fukushima_GW_2020	" Water"	"Ground water"	2020							Asia	Japan	"Minamisoma city, Fukushima"	37.507609	37.746621	140.810265	141.03473																																										2023/3/23	2023/3/23
PRA000126	SAA009820	ST015				No14_Ibaraki_RW_2020	" Water"	"River water"	2020							Asia	Japan	"Shinwa-bashi bridge, Riv. Hanamuro, Tsuchiura city, Ibaraki"	36.054609		140.193154																																											2023/3/23	2023/3/23
PRA000126	SAA009822	ST015				No16_Tochigi_RW_2020	" Water"	"River water"	2020							Asia	Japan	"Daido-izumi-hashi bridge, Riv. Kinu, Maoka city, Tochigi"	36.366991		139.919497																																											2023/3/23	2023/3/23
PRA000126	SAA009824	ST015				No18_Gunma_RW_2020	" Water"	"River water"	2020							Asia	Japan	"Iwakura-bashi bridge, Riv. Karasu, Takasaki city, Gunma"	36.282378		139.118074																																											2023/3/23	2023/3/23
PRA000126	SAA009826	ST015				No20_Saitama_RW_2020	" Water"	"River water"	2020							Asia	Japan	"Sayama Ohashi bridge, Riv. Iruma, Sayama city, Saitama"	35.87527		139.411697																																											2023/3/23	2023/3/23
PRA000126	SAA009831	ST015				No25_Chiba_RW_2020	" Water"	"River water"	2020							Asia	Japan	"Mamada-bashi bridge, Riv. Tokko, Narita city, Chiba"	35.792875		140.348476																																											2023/3/23	2023/3/23
PRA000126	SAA009839	ST015				No33_Tokyo_RW_2020	" Water"	"River water"	2020							Asia	Japan	"Denenchofu weir, Riv. Tama, Ota ward, Tokyo"	35.587148		139.666982																																											2023/3/23	2023/3/23
PRA000126	SAA009854	ST016				No48_Kanagawa_GW_2020	" Water"	"Ground water"	2020							Asia	Japan	"Yamato city, Kanagawa"	35.422922	35.520376	139.429396	139.480601																																										2023/3/23	2023/3/23
PRA000126	SAA009857	ST015				No51_Niigata_RW_2020	" Water"	"River water"	2020							Asia	Japan	"Naoetsu-bashi Bridge, Riv. Seki, Jyoetsu city, Niigata"	37.174291		138.248653																																											2023/3/23	2023/3/23
PRA000126	SAA009859	ST015				No53_Toyama_RW_2020	" Water"	"River water"	2020							Asia	Japan	"Hagiura-bashi Bridge, Riv. Jintsu, Toyama city, Toyama"	36.745985		137.217829																																											2023/3/23	2023/3/23
PRA000126	SAA009861	ST015				No55_Ishikawa_RW_2020	" Water"	"River water"	2020							Asia	Japan	"Yasuragi-bashi Bridge, Riv. Kawarada, Wajima city, Ishikawa"	37.385107		136.906341																																											2023/3/23	2023/3/23
PRA000126	SAA009863	ST016				No57_Fukui_GW_2020	" Water"	"Ground water"	2020							Asia	Japan	"Echizen city, Fukui"	35.808138	35.948627	136.019026	136.333659																																										2023/3/23	2023/3/23
PRA000126	SAA009864	ST015				No58_Yamanashi_RW_2020	" Water"	"River water"	2020							Asia	Japan	"Fujimi-bashi Bridge, Riv. Sagami, Nishikatsura town, Yamanashi"	35.523178		138.848331																																											2023/3/23	2023/3/23
PRA000126	SAA009866	ST015				No60_Nagano_RW_2020	" Water"	"River water"	2020							Asia	Japan	"Yashima-bashi Bridge, Riv. Chikuma, Suzaka city, Nagano"	36.640502		138.259027																																											2023/3/23	2023/3/23
PRA000126	SAA009868	ST015				No62_Gifu_RW_2020	" Water"	"River water"	2020							Asia	Japan	"Kaizu-bashi Bridge, Riv. Ibi, Kaizu city, Gifu"	35.186469		136.629683																																											2023/3/23	2023/3/23
PRA000126	SAA009870	ST015				No64_Shizuoka_RW_2020	" Water"	"River water"	2020							Asia	Japan	"Kikukawa-takata-bashi Bridge, Riv. Kiku, Kikukawa city, Shizuoka"	34.717149		138.078168																																											2023/3/23	2023/3/23
PRA000126	SAA009873	ST015				No67_Aichi_RW_2020	" Water"	"River water"	2020							Asia	Japan	"Hinode-bashi Bridge, Riv. Shinhori, Nagoya City, Aichi"	35.12611111		136.9172222																																										"The same sampling spot as NagoyaCity_w5_2020"	2023/3/23	2023/3/23
PRA000126	SAA009878	ST015				No72_Mie_RW_2020	" Water"	"River water"	2020							Asia	Japan	"Kisogawa-ohashi Bridge (Yokomitsu-bashi), Riv. Kiso, Kuwana city, Mie"	35.060682		136.728694																																											2023/3/23	2023/3/23
PRA000126	SAA009881	ST016				No75_Shiga_GW_2020	" Water"	"Ground water"	2020							Asia	Japan	"Yasu city, Shiga"	35.025433	35.143995	135.976163	136.079803																																										2023/3/23	2023/3/23
PRA000126	SAA009882	ST015				No76_Kyoto_RW_2020	" Water"	"River water"	2020							Asia	Japan	"Upstream of Confluence of three rivers (Riv. Katsura, Riv. Uji and Riv. Kizu), Riv. Katsura, Ooyamazaki town, Kyoto"	34.892725		135.68762																																											2023/3/23	2023/3/23
PRA000126	SAA009884	ST015				No78_Osaka_RW_2020	" Water"	"River water"	2020							Asia	Japan	"Ononoi-bashi Bridge, Riv. Wada, Sakai city, Osaka"	34.522145		135.471524																																											2023/3/23	2023/3/23
PRA000126	SAA009893	ST016				No87_Hyogo_GW_2020	" Water"	"Ground water"	2020							Asia	Japan	"Kakogawa city, Hyogo"	34.70634	34.866989	134.763678	134.935094																																										2023/3/23	2023/3/23
PRA000126	SAA009896	ST015				No90_Nara_RW_2020	" Water"	"River water"	2020							Asia	Japan	"Kareki-bashi Bridge, Riv. Katsuragi, Riv. Koryo, Kitakatsuragi-gun, Nara"	34.566969		135.756346																																											2023/3/23	2023/3/23
PRA000126	SAA009899	ST015				No93_Wakayama_RW_2020	" Water"	"River water"	2020							Asia	Japan	"Donyu-bashi Bridge, Riv. Donyu, Wakayama city, Wakayama"	34.23712		135.152397																																											2023/3/23	2023/3/23
PRA000126	SAA009902	ST016				No96_Tottori_GW_2020	" Water"	"Ground water"	2020							Asia	Japan	"Kurayoshi city, Tottori"	35.308272	35.481032	133.576667	133.887414																																										2023/3/23	2023/3/23
PRA000126	SAA009903	ST015				No97_Shimane_RW_2020	" Water"	"River water"	2020							Asia	Japan	"Mouth of Riv. Hamada, Hamada city, Shimane"	34.905412		132.073417																																											2023/3/23	2023/3/23
PRA000126	SAA009905	ST015				No99_Okayama_RW_2020	" Water"	"River water"	2020							Asia	Japan	"Hamanogawa-bashi Bridge, Riv. Iri, Bizen city, Okayama"	34.743542		134.223006																																											2023/3/23	2023/3/23
PRA000126	SAA009909	ST015				No103_Hiroshima_RW_2020	" Water"	"River water"	2020							Asia	Japan	"Downstream of Riv. Kurose, Riv. Kurose, Higashihiroshima city, Hiroshima"	34.386264		132.72202																																											2023/3/23	2023/3/23
PRA000126	SAA009911	ST015				No105_Yamaguchi_RW_2020	" Water"	"River water"	2020							Asia	Japan	"QC-1, Kirito-bashi Bridge, Riv. Kirito, Kudamatsu city, Yamaguchi"	34.012057		131.862094																																											2023/3/23	2023/3/23
PRA000126	SAA009914	ST016				No108_Tokushima_GW_2020	" Water"	"Ground water"	2020							Asia	Japan	"Yoshinogawa city, Tokushima"	33.978908	34.092325	134.182832	134.401602																																										2023/3/23	2023/3/23
PRA000126	SAA009915	ST015				No109_Kagawa_RW_2020	" Water"	"River water"	2020							Asia	Japan	"Ochiai-bashi bridge, Riv. Kunita, Kannonji city, Kagawa"	34.096437		133.686976																																											2023/3/23	2023/3/23
PRA000126	SAA009917	ST015				No111_Ehime_RW_2020	" Water"	"River water"	2020							Asia	Japan	"Nakagawa-bashi Bridge, Riv. Nakayama, Saijo city, Ehime"	33.869255		133.045539																																											2023/3/23	2023/3/23
PRA000126	SAA009919	ST015				No113_Kochi_RW_2020	" Water"	"River water"	2020							Asia	Japan	"Kazurashima-bashi Bridge, Riv. Kokubu, Kochi city, Kochi"	33.557399		133.568479																																											2023/3/23	2023/3/23
PRA000126	SAA009921	ST015				No115_Fukuoka_RW_2020	" Water"	"River water"	2020							Asia	Japan	"Murasaki-gawa Intake Weir (R-6), Riv. Murasaki, Kitakyushu city, Fukuoka"	33.871828		130.869364																																											2023/3/23	2023/3/23
PRA000126	SAA009924	ST014				No118_Saga_SW_2020	" Water"	"Sea water"	2020							Asia	Japan	"East of Karatsu Bay, Karatsu city, Saga"	33.469169		129.969896																																											2023/3/23	2023/3/23
PRA000126	SAA009925	ST015				No119_Nagasaki_RW_2020	" Water"	"River water"	2020							Asia	Japan	"River flow under highway, Riv. Nishiokawa, Isahaya city, Nagasaki"	32.832005		130.010286																																											2023/3/23	2023/3/23
PRA000126	SAA009928	ST015				No122_Kumamoto_RW_2020	" Water"	"River water"	2020							Asia	Japan	"Shinohama-bashi Bridge, Riv. Kikuchi, Tamana city, Kumamoto"	32.893535		130.536561																																											2023/3/23	2023/3/23
PRA000126	SAA009930	ST015				No124_Oita_RW_2020	" Water"	"River water"	2020							Asia	Japan	"Inukai, Riv. Ono, Bungoono city, Oita"	33.07226		131.636347																																											2023/3/23	2023/3/23
PRA000126	SAA009932	ST015				No126_Miyazaki_RW_2020	" Water"	"River water"	2020							Asia	Japan	"Kakuto-bashi Bridge, Riv. Sendai, Ebino city, Miyazaki"	32.049105		130.81532																																											2023/3/23	2023/3/23
PRA000126	SAA009934	ST015				No128_Kagoshima_RW_2020	" Water"	"River water"	2020							Asia	Japan	"Dainitsurugasaki-hashi Bridge, Riv. Shin, Kagoshima city, Kagoshima"	31.554243		130.551464																																											2023/3/23	2023/3/23
PRA000126	SAA009946	ST012				No140_Okinawa_SpringW_2020	" Water"	"Spring water"	2020							Asia	Japan	"Akazanga (Spring), Uruma city, Okinawa"	26.36527		127.87012																																											2023/3/23	2023/3/23
